GEFSCGP_prec_meanprecacc_006.txt.gz
Total_Precipitation_Accumulation
0.00 0.00 0.00 0.00 0.00 0.00 0.00 0.00 0.00 0.00 0.00 0.00 0.00 0.00 0.00 0.00 0.00 0.00 0.00 0.00 0.00 0.00 0.00 0.00 0.00 0.00 0.01 0.02 0.03 0.05 0.06 0.06 0.05 0.04 0.04 0.08 0.11 0.16 0.19 0.18 0.15 0.11 0.09 0.08
0.00 0.00 0.00 0.00 0.00 0.00 0.00 0.00 0.00 0.00 0.00 0.00 0.00 0.00 0.00 0.00 0.00 0.00 0.00 0.00 0.00 0.00 0.00 0.00 0.00 0.00 0.00 0.01 0.01 0.01 0.01 0.01 0.01 0.01 0.02 0.03 0.06 0.09 0.11 0.11 0.12 0.10 0.11 0.12
0.00 0.00 0.00 0.00 0.00 0.00 0.00 0.00 0.00 0.00 0.00 0.00 0.00 0.00 0.00 0.00 0.00 0.00 0.00 0.00 0.00 0.00 0.00 0.00 0.00 0.00 0.00 0.00 0.00 0.00 0.00 0.01 0.01 0.00 0.01 0.02 0.03 0.03 0.04 0.04 0.05 0.06 0.09 0.11
0.00 0.00 0.00 0.00 0.00 0.00 0.00 0.00 0.00 0.00 0.00 0.00 0.00 0.00 0.00 0.00 0.00 0.00 0.00 0.00 0.00 0.00 0.00 0.00 0.00 0.00 0.00 0.00 0.00 0.00 0.00 0.01 0.01 0.01 0.01 0.02 0.03 0.03 0.03 0.03 0.04 0.05 0.06 0.07
0.00 0.00 0.00 0.00 0.00 0.00 0.00 0.00 0.00 0.00 0.00 0.00 0.00 0.00 0.00 0.00 0.00 0.01 0.01 0.01 0.00 0.00 0.00 0.00 0.00 0.00 0.00 0.00 0.00 0.00 0.00 0.00 0.01 0.02 0.02 0.02 0.01 0.01 0.01 0.03 0.04 0.04 0.04 0.03
0.00 0.00 0.00 0.00 0.00 0.00 0.00 0.00 0.00 0.00 0.00 0.00 0.00 0.00 0.00 0.00 0.00 0.01 0.02 0.02 0.00 0.00 0.00 0.00 0.00 0.00 0.00 0.00 0.00 0.00 0.00 0.00 0.00 0.01 0.02 0.03 0.02 0.02 0.03 0.04 0.05 0.06 0.05 0.03
0.00 0.00 0.00 0.00 0.00 0.00 0.00 0.00 0.00 0.00 0.00 0.00 0.01 0.00 0.00 0.00 0.00 0.00 0.00 0.00 0.00 0.00 0.00 0.00 0.00 0.00 0.00 0.00 0.00 0.00 0.00 0.00 0.00 0.01 0.02 0.03 0.04 0.05 0.05 0.06 0.07 0.07 0.06 0.05
0.00 0.00 0.00 0.00 0.00 0.00 0.00 0.00 0.00 0.00 0.00 0.00 0.00 0.00 0.00 0.00 0.00 0.00 0.00 0.00 0.00 0.00 0.00 0.00 0.00 0.00 0.00 0.00 0.00 0.00 0.00 0.00 0.01 0.02 0.03 0.04 0.05 0.06 0.06 0.10 0.13 0.10 0.06 0.05
0.00 0.00 0.00 0.00 0.00 0.00 0.00 0.00 0.00 0.00 0.00 0.00 0.00 0.00 0.00 0.00 0.00 0.00 0.00 0.00 0.00 0.00 0.00 0.00 0.00 0.00 0.00 0.00 0.00 0.00 0.00 0.01 0.01 0.01 0.02 0.03 0.04 0.06 0.11 0.14 0.13 0.08 0.05 0.03
0.00 0.00 0.00 0.00 0.00 0.00 0.00 0.00 0.00 0.00 0.00 0.00 0.00 0.00 0.00 0.00 0.00 0.00 0.00 0.00 0.00 0.00 0.00 0.00 0.00 0.00 0.00 0.00 0.00 0.00 0.00 0.01 0.00 0.00 0.00 0.02 0.06 0.12 0.17 0.21 0.15 0.08 0.05 0.02
0.00 0.00 0.00 0.00 0.00 0.00 0.00 0.00 0.00 0.00 0.00 0.00 0.00 0.00 0.00 0.00 0.00 0.00 0.00 0.00 0.00 0.00 0.00 0.00 0.00 0.00 0.00 0.00 0.00 0.00 0.00 0.01 0.00 0.01 0.01 0.06 0.14 0.17 0.23 0.36 0.32 0.14 0.05 0.02
0.00 0.00 0.00 0.00 0.00 0.00 0.00 0.00 0.00 0.00 0.00 0.00 0.00 0.00 0.00 0.00 0.00 0.00 0.00 0.00 0.00 0.00 0.00 0.00 0.00 0.00 0.00 0.00 0.00 0.00 0.00 0.01 0.01 0.00 0.01 0.04 0.14 0.18 0.21 0.26 0.27 0.17 0.10 0.05
0.00 0.00 0.00 0.00 0.00 0.00 0.00 0.00 0.00 0.00 0.00 0.00 0.00 0.00 0.00 0.00 0.00 0.00 0.00 0.00 0.00 0.00 0.00 0.00 0.00 0.00 0.00 0.00 0.00 0.00 0.00 0.01 0.01 0.01 0.02 0.04 0.06 0.07 0.08 0.09 0.11 0.13 0.12 0.10
0.00 0.00 0.00 0.00 0.00 0.00 0.00 0.00 0.00 0.00 0.00 0.00 0.00 0.00 0.00 0.00 0.00 0.00 0.00 0.00 0.00 0.00 0.00 0.00 0.00 0.00 0.00 0.00 0.00 0.00 0.00 0.00 0.00 0.01 0.02 0.02 0.02 0.02 0.02 0.05 0.08 0.12 0.11 0.07
0.00 0.00 0.00 0.00 0.00 0.00 0.00 0.00 0.00 0.00 0.00 0.00 0.00 0.00 0.00 0.00 0.00 0.00 0.00 0.00 0.00 0.00 0.00 0.00 0.00 0.00 0.00 0.00 0.00 0.00 0.00 0.00 0.00 0.01 0.05 0.05 0.03 0.01 0.01 0.03 0.05 0.06 0.05 0.02
0.00 0.00 0.00 0.00 0.00 0.00 0.00 0.00 0.00 0.00 0.00 0.00 0.00 0.00 0.00 0.00 0.00 0.00 0.00 0.00 0.00 0.00 0.00 0.00 0.00 0.00 0.00 0.00 0.01 0.00 0.00 0.00 0.02 0.05 0.10 0.13 0.09 0.04 0.01 0.01 0.01 0.03 0.02 0.01
0.00 0.00 0.00 0.00 0.00 0.00 0.00 0.00 0.00 0.00 0.00 0.00 0.00 0.00 0.00 0.00 0.00 0.00 0.00 0.00 0.00 0.00 0.00 0.00 0.00 0.00 0.00 0.00 0.01 0.02 0.02 0.02 0.08 0.10 0.08 0.14 0.14 0.04 0.00 0.00 0.01 0.02 0.00 0.00
0.00 0.00 0.00 0.00 0.00 0.00 0.00 0.00 0.00 0.00 0.00 0.00 0.00 0.00 0.00 0.00 0.00 0.00 0.00 0.00 0.00 0.00 0.00 0.00 0.00 0.00 0.00 0.00 0.00 0.01 0.04 0.04 0.10 0.12 0.07 0.11 0.12 0.04 0.02 0.02 0.02 0.01 0.00 0.02
0.00 0.00 0.00 0.00 0.00 0.00 0.00 0.00 0.00 0.00 0.00 0.00 0.00 0.00 0.00 0.00 0.00 0.00 0.00 0.00 0.00 0.00 0.00 0.00 0.00 0.00 0.00 0.00 0.00 0.01 0.05 0.07 0.06 0.06 0.03 0.08 0.12 0.07 0.05 0.04 0.04 0.01 0.01 0.04
0.00 0.00 0.00 0.00 0.00 0.00 0.00 0.00 0.00 0.00 0.00 0.00 0.00 0.00 0.00 0.00 0.01 0.00 0.00 0.00 0.00 0.00 0.00 0.00 0.00 0.00 0.00 0.00 0.00 0.00 0.01 0.03 0.04 0.02 0.01 0.05 0.13 0.14 0.09 0.06 0.04 0.02 0.03 0.05
0.00 0.00 0.00 0.00 0.00 0.00 0.00 0.00 0.00 0.02 0.03 0.01 0.00 0.00 0.00 0.01 0.01 0.00 0.00 0.00 0.00 0.00 0.00 0.00 0.00 0.00 0.00 0.00 0.00 0.00 0.00 0.00 0.01 0.01 0.02 0.03 0.11 0.19 0.17 0.12 0.07 0.04 0.02 0.04
0.00 0.00 0.00 0.00 0.01 0.01 0.00 0.00 0.02 0.04 0.02 0.01 0.01 0.00 0.00 0.01 0.00 0.00 0.01 0.01 0.00 0.00 0.01 0.01 0.01 0.01 0.01 0.01 0.00 0.00 0.00 0.00 0.00 0.01 0.02 0.05 0.12 0.12 0.16 0.14 0.12 0.10 0.04 0.03
0.00 0.00 0.00 0.00 0.02 0.01 0.00 0.00 0.02 0.01 0.02 0.02 0.01 0.01 0.01 0.01 0.02 0.02 0.03 0.02 0.01 0.01 0.01 0.03 0.03 0.04 0.05 0.05 0.04 0.02 0.00 0.00 0.00 0.01 0.02 0.04 0.07 0.12 0.19 0.16 0.10 0.09 0.06 0.04
0.00 0.00 0.00 0.01 0.01 0.00 0.00 0.01 0.02 0.01 0.02 0.01 0.01 0.01 0.01 0.02 0.04 0.05 0.05 0.04 0.03 0.02 0.02 0.03 0.04 0.07 0.11 0.15 0.16 0.07 0.02 0.00 0.00 0.01 0.03 0.04 0.06 0.11 0.16 0.19 0.14 0.11 0.08 0.06
0.00 0.00 0.01 0.02 0.01 0.00 0.01 0.01 0.01 0.01 0.01 0.01 0.00 0.01 0.02 0.04 0.05 0.06 0.06 0.06 0.04 0.03 0.01 0.02 0.04 0.07 0.11 0.19 0.27 0.18 0.06 0.02 0.01 0.02 0.03 0.03 0.05 0.07 0.10 0.13 0.14 0.13 0.10 0.04
0.00 0.00 0.00 0.01 0.00 0.00 0.00 0.00 0.00 0.00 0.01 0.01 0.01 0.01 0.02 0.03 0.04 0.04 0.04 0.04 0.03 0.02 0.01 0.01 0.03 0.07 0.10 0.15 0.24 0.25 0.18 0.07 0.02 0.02 0.02 0.02 0.02 0.04 0.05 0.06 0.04 0.03 0.03 0.01

GEFSCGP_prec_meanprecacc_012.txt.gz
Total_Precipitation_Accumulation
0.00 0.00 0.00 0.00 0.00 0.00 0.00 0.00 0.00 0.00 0.00 0.00 0.00 0.00 0.00 0.00 0.00 0.00 0.00 0.00 0.00 0.00 0.00 0.00 0.00 0.00 0.02 0.04 0.07 0.10 0.12 0.11 0.09 0.10 0.11 0.13 0.16 0.21 0.23 0.22 0.18 0.14 0.13 0.18
0.00 0.00 0.00 0.00 0.00 0.00 0.00 0.00 0.00 0.00 0.00 0.00 0.00 0.00 0.00 0.00 0.00 0.00 0.00 0.00 0.00 0.00 0.00 0.00 0.00 0.00 0.00 0.01 0.01 0.02 0.02 0.02 0.01 0.01 0.03 0.04 0.07 0.10 0.11 0.12 0.13 0.11 0.13 0.18
0.00 0.00 0.00 0.00 0.00 0.00 0.00 0.00 0.00 0.00 0.00 0.00 0.00 0.00 0.00 0.00 0.00 0.00 0.01 0.01 0.01 0.00 0.00 0.00 0.00 0.00 0.00 0.00 0.00 0.01 0.01 0.01 0.01 0.01 0.01 0.02 0.03 0.04 0.04 0.05 0.06 0.07 0.11 0.15
0.00 0.00 0.00 0.00 0.00 0.00 0.00 0.00 0.00 0.00 0.00 0.00 0.00 0.00 0.00 0.00 0.01 0.02 0.03 0.03 0.02 0.01 0.00 0.00 0.00 0.00 0.00 0.00 0.00 0.00 0.00 0.01 0.01 0.01 0.01 0.02 0.03 0.03 0.03 0.03 0.04 0.06 0.08 0.08
0.00 0.00 0.00 0.00 0.00 0.00 0.00 0.00 0.00 0.00 0.00 0.00 0.00 0.00 0.00 0.01 0.03 0.07 0.07 0.05 0.02 0.01 0.00 0.00 0.00 0.00 0.00 0.00 0.00 0.00 0.00 0.00 0.01 0.02 0.02 0.02 0.02 0.01 0.02 0.03 0.05 0.05 0.05 0.05
0.00 0.00 0.00 0.00 0.00 0.00 0.00 0.00 0.00 0.00 0.00 0.00 0.01 0.02 0.02 0.03 0.05 0.06 0.06 0.04 0.01 0.00 0.00 0.00 0.00 0.00 0.00 0.00 0.00 0.00 0.00 0.00 0.00 0.02 0.03 0.03 0.03 0.03 0.03 0.04 0.06 0.07 0.06 0.05
0.01 0.01 0.01 0.00 0.00 0.00 0.00 0.00 0.00 0.00 0.00 0.01 0.01 0.02 0.02 0.02 0.02 0.03 0.02 0.01 0.00 0.00 0.00 0.00 0.00 0.00 0.00 0.00 0.00 0.00 0.00 0.00 0.00 0.01 0.03 0.04 0.05 0.06 0.05 0.06 0.08 0.08 0.08 0.08
0.00 0.01 0.01 0.00 0.00 0.00 0.00 0.00 0.00 0.00 0.00 0.00 0.00 0.01 0.02 0.02 0.02 0.02 0.01 0.00 0.00 0.00 0.00 0.00 0.00 0.00 0.00 0.00 0.00 0.00 0.00 0.00 0.01 0.02 0.03 0.04 0.05 0.06 0.07 0.11 0.14 0.12 0.09 0.09
0.00 0.00 0.00 0.00 0.00 0.00 0.00 0.00 0.00 0.00 0.00 0.00 0.00 0.00 0.01 0.01 0.01 0.00 0.00 0.00 0.00 0.00 0.00 0.00 0.00 0.00 0.00 0.00 0.00 0.00 0.00 0.01 0.01 0.01 0.02 0.03 0.04 0.07 0.11 0.14 0.14 0.10 0.08 0.07
0.00 0.00 0.00 0.00 0.00 0.00 0.00 0.00 0.00 0.00 0.00 0.00 0.00 0.00 0.00 0.00 0.00 0.00 0.00 0.00 0.00 0.00 0.00 0.00 0.00 0.00 0.00 0.00 0.00 0.00 0.00 0.01 0.00 0.00 0.00 0.02 0.06 0.12 0.18 0.21 0.16 0.10 0.08 0.06
0.00 0.00 0.00 0.00 0.00 0.00 0.00 0.00 0.00 0.00 0.00 0.00 0.00 0.00 0.00 0.01 0.00 0.00 0.00 0.00 0.00 0.00 0.00 0.00 0.00 0.00 0.00 0.00 0.00 0.00 0.00 0.01 0.00 0.01 0.01 0.06 0.14 0.18 0.23 0.36 0.33 0.16 0.09 0.06
0.00 0.00 0.00 0.00 0.00 0.00 0.00 0.00 0.00 0.00 0.00 0.00 0.00 0.00 0.00 0.00 0.00 0.00 0.00 0.00 0.00 0.00 0.00 0.00 0.00 0.00 0.00 0.00 0.00 0.00 0.00 0.01 0.01 0.00 0.01 0.04 0.14 0.18 0.21 0.27 0.28 0.19 0.12 0.08
0.00 0.00 0.00 0.00 0.00 0.00 0.00 0.00 0.00 0.00 0.00 0.00 0.00 0.00 0.00 0.00 0.00 0.00 0.00 0.00 0.00 0.00 0.00 0.00 0.00 0.00 0.00 0.00 0.00 0.00 0.00 0.01 0.01 0.01 0.02 0.04 0.06 0.07 0.08 0.10 0.13 0.15 0.15 0.15
0.00 0.00 0.00 0.00 0.00 0.00 0.00 0.00 0.00 0.00 0.00 0.00 0.00 0.00 0.00 0.00 0.00 0.00 0.00 0.00 0.00 0.00 0.00 0.00 0.00 0.00 0.00 0.00 0.00 0.00 0.00 0.00 0.00 0.01 0.02 0.02 0.02 0.02 0.02 0.05 0.09 0.14 0.14 0.13
0.00 0.00 0.00 0.00 0.00 0.00 0.00 0.00 0.00 0.00 0.00 0.00 0.00 0.00 0.00 0.00 0.00 0.00 0.00 0.00 0.00 0.00 0.00 0.00 0.00 0.00 0.00 0.00 0.00 0.00 0.00 0.00 0.00 0.02 0.06 0.06 0.03 0.02 0.01 0.03 0.05 0.07 0.07 0.05
0.00 0.00 0.00 0.00 0.00 0.00 0.00 0.00 0.00 0.00 0.00 0.00 0.00 0.00 0.00 0.00 0.00 0.00 0.00 0.00 0.00 0.00 0.00 0.00 0.00 0.00 0.00 0.00 0.01 0.00 0.00 0.00 0.02 0.05 0.11 0.14 0.10 0.04 0.01 0.01 0.02 0.03 0.02 0.02
0.00 0.00 0.00 0.00 0.00 0.00 0.00 0.00 0.00 0.00 0.00 0.00 0.00 0.01 0.01 0.01 0.01 0.01 0.00 0.00 0.00 0.00 0.00 0.00 0.00 0.00 0.00 0.00 0.01 0.02 0.02 0.02 0.08 0.11 0.09 0.15 0.15 0.04 0.01 0.00 0.01 0.02 0.00 0.00
0.00 0.00 0.00 0.00 0.00 0.00 0.00 0.00 0.00 0.00 0.01 0.01 0.01 0.02 0.02 0.02 0.02 0.01 0.00 0.00 0.00 0.00 0.00 0.00 0.00 0.00 0.00 0.00 0.00 0.02 0.04 0.04 0.11 0.13 0.08 0.12 0.13 0.04 0.02 0.02 0.02 0.01 0.00 0.02
0.00 0.00 0.00 0.00 0.00 0.00 0.00 0.00 0.01 0.01 0.01 0.01 0.02 0.02 0.02 0.02 0.01 0.01 0.00 0.00 0.00 0.00 0.00 0.00 0.00 0.00 0.00 0.00 0.01 0.02 0.07 0.09 0.09 0.09 0.06 0.10 0.14 0.07 0.05 0.04 0.04 0.01 0.01 0.04
0.00 0.00 0.00 0.00 0.00 0.01 0.01 0.01 0.03 0.03 0.04 0.04 0.03 0.02 0.02 0.01 0.02 0.01 0.00 0.00 0.00 0.00 0.00 0.00 0.00 0.00 0.01 0.01 0.02 0.03 0.05 0.09 0.10 0.08 0.06 0.09 0.16 0.15 0.10 0.06 0.04 0.02 0.04 0.06
0.00 0.01 0.01 0.01 0.03 0.03 0.02 0.02 0.03 0.08 0.10 0.03 0.02 0.02 0.02 0.02 0.03 0.01 0.00 0.01 0.01 0.00 0.00 0.01 0.01 0.01 0.01 0.03 0.04 0.06 0.07 0.08 0.10 0.11 0.12 0.12 0.16 0.21 0.18 0.13 0.07 0.04 0.02 0.04
0.00 0.01 0.01 0.02 0.05 0.08 0.02 0.02 0.04 0.06 0.04 0.02 0.02 0.02 0.02 0.02 0.01 0.01 0.01 0.01 0.01 0.01 0.01 0.02 0.03 0.04 0.05 0.07 0.10 0.12 0.12 0.13 0.15 0.15 0.16 0.18 0.21 0.18 0.18 0.15 0.12 0.10 0.04 0.03
0.00 0.01 0.02 0.03 0.05 0.02 0.00 0.01 0.02 0.02 0.02 0.02 0.02 0.02 0.02 0.02 0.02 0.02 0.03 0.02 0.02 0.01 0.02 0.03 0.04 0.06 0.09 0.12 0.18 0.22 0.23 0.24 0.23 0.20 0.19 0.20 0.20 0.21 0.24 0.19 0.12 0.10 0.06 0.04
0.00 0.00 0.01 0.03 0.02 0.01 0.01 0.01 0.02 0.01 0.02 0.02 0.01 0.01 0.01 0.03 0.04 0.05 0.05 0.04 0.03 0.02 0.02 0.03 0.04 0.07 0.12 0.19 0.28 0.33 0.34 0.32 0.27 0.22 0.20 0.21 0.21 0.21 0.23 0.24 0.17 0.13 0.09 0.06
0.00 0.00 0.01 0.02 0.01 0.00 0.01 0.01 0.01 0.01 0.01 0.01 0.00 0.01 0.02 0.04 0.05 0.06 0.06 0.06 0.05 0.03 0.02 0.02 0.04 0.07 0.11 0.21 0.33 0.39 0.39 0.36 0.31 0.25 0.20 0.18 0.19 0.19 0.18 0.19 0.19 0.17 0.11 0.05
0.00 0.00 0.00 0.01 0.00 0.00 0.00 0.00 0.00 0.00 0.01 0.01 0.01 0.01 0.02 0.03 0.04 0.04 0.04 0.04 0.03 0.02 0.01 0.01 0.03 0.07 0.10 0.16 0.26 0.34 0.43 0.47 0.43 0.34 0.27 0.20 0.17 0.16 0.14 0.13 0.09 0.06 0.06 0.02

GEFSCGP_prec_meanprecacc_018.txt.gz
Total_Precipitation_Accumulation
0.00 0.00 0.00 0.00 0.00 0.00 0.00 0.00 0.00 0.00 0.00 0.00 0.00 0.00 0.02 0.03 0.04 0.04 0.03 0.03 0.04 0.03 0.03 0.03 0.02 0.02 0.03 0.06 0.09 0.12 0.14 0.12 0.10 0.11 0.11 0.14 0.17 0.21 0.24 0.23 0.19 0.15 0.14 0.19
0.00 0.00 0.00 0.00 0.00 0.00 0.00 0.00 0.00 0.00 0.00 0.00 0.00 0.00 0.00 0.01 0.01 0.01 0.01 0.03 0.04 0.03 0.02 0.01 0.01 0.00 0.00 0.01 0.02 0.02 0.02 0.02 0.01 0.01 0.03 0.05 0.07 0.10 0.11 0.12 0.13 0.11 0.14 0.18
0.00 0.00 0.00 0.00 0.00 0.00 0.00 0.00 0.00 0.00 0.00 0.00 0.00 0.00 0.00 0.00 0.01 0.01 0.02 0.04 0.04 0.03 0.02 0.01 0.00 0.00 0.00 0.00 0.00 0.01 0.01 0.01 0.01 0.01 0.01 0.02 0.03 0.04 0.04 0.05 0.06 0.07 0.11 0.15
0.00 0.00 0.00 0.00 0.00 0.00 0.00 0.00 0.00 0.00 0.00 0.00 0.00 0.00 0.00 0.00 0.02 0.03 0.04 0.04 0.04 0.03 0.01 0.00 0.00 0.00 0.00 0.00 0.00 0.00 0.00 0.01 0.01 0.01 0.01 0.02 0.03 0.03 0.03 0.03 0.04 0.06 0.08 0.08
0.00 0.00 0.00 0.00 0.00 0.00 0.00 0.00 0.00 0.00 0.00 0.00 0.00 0.00 0.00 0.02 0.04 0.08 0.09 0.07 0.04 0.02 0.01 0.00 0.00 0.00 0.00 0.00 0.00 0.00 0.00 0.00 0.01 0.02 0.02 0.02 0.02 0.01 0.02 0.03 0.05 0.05 0.05 0.05
0.00 0.00 0.00 0.00 0.00 0.00 0.00 0.00 0.00 0.00 0.00 0.00 0.01 0.02 0.02 0.03 0.05 0.07 0.07 0.05 0.02 0.01 0.00 0.00 0.00 0.00 0.00 0.00 0.00 0.00 0.00 0.00 0.00 0.02 0.03 0.03 0.03 0.03 0.03 0.04 0.06 0.07 0.06 0.05
0.01 0.01 0.01 0.01 0.00 0.00 0.00 0.00 0.00 0.00 0.00 0.01 0.01 0.02 0.02 0.02 0.03 0.03 0.03 0.01 0.01 0.01 0.00 0.00 0.00 0.00 0.00 0.00 0.00 0.00 0.00 0.00 0.00 0.01 0.03 0.04 0.05 0.06 0.05 0.06 0.08 0.08 0.08 0.08
0.00 0.01 0.01 0.00 0.00 0.00 0.00 0.00 0.00 0.00 0.00 0.00 0.00 0.01 0.02 0.02 0.02 0.02 0.01 0.01 0.01 0.01 0.01 0.00 0.00 0.00 0.00 0.00 0.00 0.00 0.00 0.00 0.01 0.02 0.03 0.04 0.05 0.06 0.07 0.11 0.14 0.12 0.09 0.09
0.00 0.00 0.00 0.00 0.00 0.00 0.00 0.00 0.00 0.00 0.00 0.00 0.00 0.00 0.01 0.01 0.01 0.00 0.00 0.00 0.01 0.01 0.00 0.00 0.00 0.00 0.00 0.00 0.00 0.00 0.00 0.01 0.01 0.01 0.02 0.03 0.04 0.07 0.11 0.14 0.14 0.10 0.08 0.07
0.00 0.00 0.00 0.00 0.00 0.00 0.00 0.00 0.00 0.00 0.00 0.00 0.00 0.00 0.00 0.01 0.00 0.00 0.00 0.00 0.00 0.00 0.00 0.00 0.00 0.00 0.00 0.00 0.00 0.00 0.00 0.01 0.00 0.00 0.00 0.02 0.06 0.12 0.18 0.21 0.16 0.10 0.08 0.06
0.00 0.00 0.00 0.00 0.00 0.00 0.00 0.00 0.00 0.00 0.00 0.00 0.00 0.00 0.00 0.01 0.01 0.00 0.00 0.00 0.00 0.00 0.00 0.00 0.00 0.00 0.00 0.00 0.00 0.00 0.00 0.01 0.00 0.01 0.01 0.06 0.14 0.18 0.23 0.36 0.33 0.16 0.09 0.06
0.00 0.00 0.00 0.00 0.00 0.00 0.00 0.00 0.00 0.00 0.00 0.00 0.00 0.00 0.00 0.00 0.00 0.00 0.00 0.00 0.00 0.00 0.00 0.00 0.00 0.00 0.00 0.00 0.00 0.00 0.00 0.01 0.01 0.00 0.01 0.04 0.14 0.18 0.21 0.27 0.28 0.19 0.12 0.08
0.00 0.00 0.00 0.00 0.00 0.00 0.00 0.00 0.00 0.00 0.00 0.00 0.00 0.00 0.00 0.00 0.00 0.00 0.00 0.00 0.00 0.00 0.00 0.00 0.00 0.00 0.00 0.00 0.00 0.00 0.00 0.01 0.01 0.01 0.02 0.04 0.06 0.07 0.08 0.10 0.13 0.15 0.15 0.15
0.00 0.00 0.00 0.00 0.00 0.00 0.00 0.00 0.00 0.00 0.00 0.00 0.00 0.00 0.00 0.00 0.00 0.00 0.00 0.00 0.00 0.00 0.00 0.00 0.00 0.00 0.00 0.00 0.00 0.00 0.00 0.00 0.00 0.01 0.02 0.02 0.02 0.02 0.02 0.05 0.09 0.14 0.14 0.13
0.00 0.00 0.00 0.00 0.00 0.00 0.00 0.00 0.00 0.00 0.00 0.00 0.00 0.01 0.01 0.00 0.00 0.00 0.00 0.00 0.00 0.00 0.00 0.00 0.00 0.00 0.00 0.00 0.00 0.00 0.00 0.00 0.00 0.02 0.06 0.06 0.03 0.02 0.01 0.03 0.05 0.07 0.07 0.05
0.00 0.00 0.00 0.00 0.00 0.00 0.00 0.00 0.00 0.00 0.01 0.01 0.01 0.01 0.01 0.01 0.02 0.02 0.02 0.02 0.02 0.02 0.01 0.01 0.01 0.01 0.01 0.01 0.01 0.01 0.00 0.01 0.03 0.05 0.11 0.14 0.10 0.04 0.01 0.01 0.02 0.03 0.02 0.02
0.00 0.00 0.00 0.01 0.01 0.00 0.00 0.01 0.01 0.01 0.02 0.03 0.04 0.04 0.04 0.04 0.05 0.05 0.06 0.05 0.04 0.03 0.02 0.01 0.01 0.01 0.00 0.00 0.01 0.02 0.02 0.02 0.08 0.11 0.10 0.16 0.16 0.05 0.01 0.01 0.01 0.02 0.00 0.00
0.00 0.00 0.00 0.01 0.01 0.00 0.00 0.00 0.01 0.01 0.02 0.03 0.05 0.06 0.07 0.09 0.08 0.08 0.09 0.07 0.04 0.02 0.01 0.00 0.00 0.00 0.00 0.00 0.00 0.02 0.04 0.04 0.11 0.14 0.10 0.16 0.16 0.07 0.05 0.04 0.04 0.02 0.01 0.02
0.00 0.00 0.00 0.00 0.00 0.00 0.01 0.02 0.02 0.03 0.05 0.05 0.08 0.11 0.11 0.09 0.06 0.04 0.03 0.02 0.01 0.00 0.00 0.00 0.00 0.00 0.00 0.00 0.01 0.02 0.07 0.09 0.10 0.11 0.10 0.15 0.19 0.13 0.11 0.10 0.09 0.05 0.03 0.04
0.00 0.00 0.00 0.01 0.01 0.02 0.02 0.04 0.06 0.07 0.12 0.11 0.09 0.07 0.04 0.02 0.03 0.01 0.00 0.00 0.00 0.00 0.00 0.00 0.00 0.00 0.01 0.01 0.02 0.03 0.05 0.09 0.10 0.10 0.10 0.15 0.24 0.24 0.19 0.17 0.15 0.10 0.07 0.07
0.00 0.01 0.01 0.02 0.04 0.04 0.02 0.04 0.05 0.11 0.15 0.05 0.02 0.02 0.02 0.02 0.03 0.01 0.00 0.01 0.01 0.00 0.00 0.01 0.01 0.01 0.01 0.03 0.04 0.06 0.07 0.08 0.10 0.12 0.14 0.17 0.26 0.34 0.32 0.28 0.23 0.17 0.10 0.07
0.00 0.01 0.01 0.03 0.06 0.09 0.02 0.02 0.05 0.06 0.04 0.02 0.02 0.02 0.02 0.02 0.01 0.01 0.01 0.01 0.01 0.01 0.01 0.02 0.03 0.04 0.05 0.07 0.10 0.12 0.12 0.13 0.15 0.16 0.18 0.22 0.31 0.33 0.37 0.35 0.33 0.31 0.19 0.10
0.00 0.01 0.02 0.04 0.06 0.02 0.00 0.01 0.02 0.02 0.02 0.02 0.02 0.02 0.02 0.02 0.02 0.02 0.03 0.02 0.02 0.01 0.02 0.03 0.04 0.06 0.09 0.12 0.18 0.22 0.23 0.25 0.23 0.21 0.21 0.25 0.30 0.37 0.47 0.47 0.42 0.41 0.33 0.17
0.00 0.00 0.01 0.03 0.02 0.01 0.01 0.01 0.02 0.01 0.02 0.02 0.01 0.01 0.01 0.03 0.04 0.05 0.05 0.04 0.03 0.02 0.02 0.03 0.04 0.07 0.12 0.19 0.28 0.33 0.34 0.32 0.28 0.23 0.22 0.25 0.30 0.36 0.45 0.54 0.55 0.56 0.49 0.29
0.00 0.00 0.01 0.02 0.01 0.00 0.01 0.01 0.01 0.01 0.01 0.01 0.00 0.01 0.02 0.04 0.05 0.06 0.06 0.06 0.05 0.03 0.02 0.02 0.04 0.07 0.11 0.21 0.33 0.39 0.39 0.36 0.31 0.26 0.22 0.22 0.26 0.31 0.38 0.46 0.54 0.60 0.54 0.35
0.00 0.00 0.00 0.01 0.00 0.00 0.01 0.00 0.00 0.00 0.01 0.01 0.01 0.01 0.02 0.03 0.04 0.04 0.04 0.04 0.03 0.02 0.01 0.01 0.03 0.07 0.10 0.16 0.26 0.34 0.43 0.47 0.43 0.34 0.28 0.23 0.22 0.26 0.33 0.40 0.40 0.42 0.46 0.37

GEFSCGP_prec_meanprecacc_024.txt.gz
Total_Precipitation_Accumulation
0.00 0.00 0.00 0.00 0.00 0.00 0.00 0.00 0.00 0.00 0.00 0.00 0.00 0.00 0.02 0.03 0.04 0.04 0.03 0.04 0.04 0.03 0.03 0.03 0.02 0.02 0.03 0.06 0.11 0.15 0.17 0.15 0.11 0.11 0.12 0.14 0.17 0.22 0.24 0.23 0.19 0.15 0.14 0.19
0.00 0.00 0.00 0.00 0.00 0.00 0.00 0.00 0.00 0.00 0.00 0.00 0.00 0.00 0.00 0.01 0.01 0.02 0.02 0.03 0.04 0.04 0.03 0.02 0.01 0.01 0.01 0.01 0.02 0.03 0.03 0.03 0.02 0.02 0.04 0.05 0.07 0.10 0.11 0.12 0.13 0.11 0.14 0.18
0.00 0.00 0.00 0.00 0.00 0.00 0.00 0.00 0.00 0.00 0.00 0.00 0.00 0.00 0.00 0.00 0.01 0.01 0.03 0.04 0.05 0.04 0.04 0.02 0.02 0.02 0.01 0.01 0.01 0.01 0.01 0.02 0.01 0.01 0.01 0.02 0.03 0.04 0.05 0.05 0.06 0.07 0.11 0.15
0.00 0.00 0.00 0.00 0.00 0.00 0.00 0.00 0.00 0.00 0.00 0.00 0.00 0.00 0.00 0.00 0.02 0.03 0.04 0.05 0.05 0.04 0.03 0.03 0.02 0.02 0.02 0.01 0.01 0.01 0.01 0.02 0.02 0.02 0.02 0.03 0.04 0.03 0.03 0.04 0.05 0.06 0.08 0.08
0.00 0.00 0.00 0.00 0.00 0.00 0.00 0.00 0.00 0.00 0.00 0.00 0.00 0.00 0.00 0.02 0.04 0.08 0.10 0.08 0.06 0.04 0.04 0.04 0.04 0.03 0.02 0.01 0.01 0.01 0.01 0.03 0.03 0.04 0.05 0.04 0.02 0.02 0.02 0.03 0.05 0.05 0.05 0.05
0.00 0.00 0.00 0.00 0.00 0.00 0.00 0.00 0.00 0.00 0.00 0.00 0.01 0.02 0.02 0.03 0.05 0.07 0.09 0.09 0.08 0.09 0.11 0.11 0.08 0.05 0.03 0.01 0.01 0.01 0.02 0.03 0.03 0.04 0.05 0.05 0.04 0.04 0.03 0.04 0.06 0.07 0.06 0.05
0.01 0.01 0.01 0.01 0.00 0.00 0.00 0.00 0.00 0.00 0.00 0.01 0.01 0.02 0.02 0.02 0.03 0.04 0.05 0.06 0.09 0.11 0.12 0.13 0.11 0.07 0.05 0.04 0.03 0.02 0.02 0.03 0.04 0.04 0.05 0.05 0.05 0.06 0.05 0.06 0.08 0.08 0.08 0.08
0.00 0.01 0.01 0.00 0.00 0.00 0.00 0.00 0.00 0.00 0.00 0.00 0.00 0.01 0.02 0.02 0.03 0.02 0.02 0.03 0.05 0.06 0.08 0.09 0.08 0.06 0.05 0.04 0.03 0.03 0.02 0.02 0.02 0.02 0.04 0.04 0.05 0.06 0.07 0.11 0.14 0.12 0.09 0.09
0.00 0.00 0.00 0.00 0.00 0.00 0.00 0.00 0.00 0.00 0.00 0.00 0.00 0.00 0.01 0.01 0.01 0.01 0.01 0.01 0.03 0.03 0.04 0.04 0.04 0.04 0.03 0.02 0.02 0.01 0.01 0.02 0.01 0.01 0.02 0.03 0.04 0.07 0.11 0.14 0.14 0.10 0.08 0.07
0.00 0.00 0.00 0.00 0.00 0.00 0.00 0.00 0.00 0.00 0.00 0.00 0.00 0.00 0.00 0.01 0.00 0.00 0.00 0.01 0.01 0.02 0.02 0.02 0.02 0.02 0.02 0.01 0.01 0.01 0.01 0.01 0.01 0.00 0.00 0.02 0.06 0.12 0.18 0.21 0.16 0.10 0.08 0.06
0.00 0.00 0.00 0.00 0.00 0.00 0.00 0.00 0.00 0.00 0.00 0.00 0.00 0.00 0.00 0.01 0.01 0.00 0.00 0.00 0.00 0.01 0.01 0.01 0.01 0.01 0.01 0.01 0.01 0.01 0.01 0.01 0.01 0.01 0.01 0.06 0.15 0.18 0.24 0.36 0.33 0.16 0.09 0.06
0.00 0.00 0.00 0.00 0.00 0.00 0.00 0.00 0.00 0.00 0.00 0.00 0.01 0.00 0.00 0.00 0.00 0.00 0.00 0.00 0.00 0.00 0.00 0.00 0.00 0.00 0.00 0.01 0.01 0.01 0.01 0.01 0.01 0.01 0.01 0.04 0.14 0.19 0.22 0.28 0.29 0.20 0.13 0.08
0.00 0.00 0.00 0.00 0.00 0.00 0.00 0.00 0.00 0.00 0.00 0.00 0.01 0.01 0.00 0.00 0.00 0.00 0.00 0.00 0.00 0.00 0.00 0.00 0.00 0.00 0.01 0.01 0.01 0.01 0.01 0.01 0.01 0.01 0.02 0.04 0.06 0.07 0.08 0.10 0.14 0.17 0.17 0.16
0.00 0.00 0.00 0.00 0.00 0.00 0.00 0.00 0.00 0.00 0.01 0.02 0.03 0.03 0.00 0.00 0.00 0.00 0.00 0.00 0.00 0.00 0.00 0.00 0.00 0.00 0.00 0.00 0.00 0.00 0.01 0.01 0.01 0.02 0.03 0.03 0.03 0.02 0.02 0.05 0.09 0.15 0.16 0.15
0.00 0.00 0.00 0.00 0.00 0.00 0.00 0.00 0.00 0.01 0.02 0.04 0.03 0.02 0.01 0.01 0.01 0.00 0.00 0.00 0.00 0.00 0.01 0.01 0.01 0.01 0.01 0.01 0.01 0.01 0.01 0.01 0.02 0.03 0.08 0.08 0.05 0.04 0.03 0.05 0.06 0.08 0.09 0.08
0.00 0.00 0.00 0.00 0.00 0.00 0.00 0.00 0.00 0.01 0.01 0.01 0.01 0.01 0.01 0.02 0.02 0.02 0.02 0.02 0.02 0.02 0.02 0.02 0.02 0.02 0.01 0.01 0.01 0.01 0.01 0.01 0.03 0.06 0.12 0.15 0.11 0.05 0.02 0.02 0.03 0.04 0.04 0.04
0.00 0.00 0.00 0.01 0.01 0.01 0.01 0.01 0.01 0.01 0.02 0.03 0.04 0.04 0.04 0.05 0.05 0.07 0.07 0.06 0.05 0.04 0.03 0.02 0.01 0.01 0.00 0.01 0.01 0.02 0.02 0.02 0.08 0.11 0.10 0.16 0.16 0.05 0.02 0.02 0.02 0.04 0.03 0.04
0.00 0.00 0.00 0.01 0.01 0.01 0.01 0.00 0.01 0.01 0.02 0.03 0.05 0.06 0.08 0.09 0.09 0.09 0.10 0.08 0.04 0.02 0.01 0.00 0.00 0.00 0.00 0.00 0.00 0.02 0.04 0.04 0.11 0.14 0.10 0.16 0.16 0.07 0.05 0.05 0.05 0.05 0.05 0.07
0.00 0.00 0.00 0.00 0.00 0.01 0.01 0.02 0.03 0.04 0.05 0.06 0.08 0.11 0.11 0.09 0.06 0.04 0.03 0.02 0.01 0.00 0.00 0.00 0.00 0.00 0.00 0.00 0.01 0.02 0.07 0.09 0.10 0.11 0.10 0.15 0.19 0.13 0.11 0.10 0.10 0.09 0.10 0.12
0.00 0.00 0.00 0.01 0.01 0.02 0.02 0.04 0.06 0.07 0.13 0.12 0.09 0.07 0.04 0.02 0.03 0.01 0.00 0.00 0.00 0.00 0.00 0.00 0.00 0.00 0.01 0.01 0.02 0.03 0.05 0.09 0.10 0.10 0.10 0.15 0.24 0.24 0.20 0.18 0.17 0.15 0.17 0.21
0.00 0.01 0.01 0.02 0.04 0.04 0.02 0.04 0.05 0.12 0.15 0.05 0.02 0.02 0.02 0.02 0.03 0.01 0.00 0.01 0.01 0.00 0.00 0.01 0.01 0.01 0.01 0.03 0.04 0.06 0.07 0.08 0.10 0.12 0.14 0.18 0.26 0.35 0.33 0.30 0.25 0.23 0.23 0.28
0.00 0.01 0.01 0.03 0.07 0.10 0.02 0.02 0.05 0.06 0.04 0.02 0.02 0.02 0.02 0.02 0.01 0.01 0.01 0.01 0.01 0.01 0.01 0.02 0.03 0.04 0.05 0.07 0.10 0.13 0.13 0.14 0.16 0.16 0.18 0.23 0.32 0.34 0.37 0.37 0.36 0.37 0.35 0.39
0.00 0.01 0.02 0.04 0.06 0.02 0.00 0.01 0.02 0.02 0.02 0.02 0.02 0.02 0.02 0.02 0.02 0.02 0.03 0.02 0.02 0.01 0.02 0.03 0.04 0.06 0.09 0.12 0.19 0.23 0.24 0.26 0.25 0.22 0.22 0.26 0.32 0.39 0.49 0.49 0.45 0.47 0.49 0.53
0.00 0.00 0.01 0.03 0.02 0.01 0.01 0.01 0.02 0.01 0.02 0.02 0.01 0.01 0.01 0.03 0.04 0.05 0.05 0.04 0.03 0.02 0.02 0.03 0.05 0.08 0.12 0.20 0.29 0.34 0.35 0.34 0.30 0.25 0.24 0.27 0.32 0.38 0.47 0.57 0.59 0.62 0.64 0.66
0.00 0.00 0.01 0.02 0.01 0.00 0.01 0.01 0.01 0.01 0.01 0.01 0.00 0.01 0.02 0.04 0.05 0.06 0.06 0.06 0.05 0.03 0.02 0.02 0.05 0.08 0.12 0.22 0.35 0.41 0.42 0.40 0.35 0.30 0.25 0.24 0.29 0.34 0.41 0.49 0.57 0.65 0.67 0.67
0.00 0.00 0.00 0.01 0.00 0.00 0.01 0.00 0.00 0.00 0.01 0.01 0.01 0.01 0.02 0.03 0.04 0.04 0.04 0.04 0.03 0.02 0.01 0.02 0.05 0.09 0.12 0.18 0.29 0.38 0.48 0.54 0.50 0.41 0.33 0.27 0.25 0.30 0.36 0.43 0.43 0.45 0.55 0.58

GEFSCGP_prec_meanprecacc_030.txt.gz
Total_Precipitation_Accumulation
0.00 0.00 0.00 0.00 0.00 0.00 0.00 0.00 0.00 0.00 0.00 0.00 0.00 0.00 0.02 0.03 0.05 0.04 0.03 0.04 0.05 0.08 0.12 0.19 0.28 0.24 0.19 0.23 0.27 0.30 0.33 0.29 0.21 0.19 0.15 0.16 0.17 0.22 0.24 0.23 0.19 0.15 0.14 0.19
0.00 0.00 0.00 0.00 0.00 0.00 0.00 0.00 0.00 0.00 0.00 0.00 0.00 0.00 0.00 0.01 0.01 0.02 0.02 0.04 0.10 0.21 0.36 0.54 0.71 0.53 0.36 0.40 0.43 0.36 0.29 0.25 0.16 0.10 0.07 0.06 0.07 0.10 0.11 0.12 0.13 0.11 0.14 0.18
0.00 0.00 0.00 0.00 0.00 0.00 0.00 0.00 0.00 0.00 0.00 0.00 0.00 0.00 0.00 0.00 0.01 0.02 0.04 0.07 0.16 0.33 0.59 0.83 0.99 0.89 0.76 0.86 0.78 0.56 0.37 0.29 0.15 0.08 0.04 0.04 0.04 0.04 0.05 0.05 0.06 0.07 0.11 0.15
0.00 0.00 0.00 0.00 0.00 0.00 0.00 0.00 0.00 0.00 0.00 0.00 0.00 0.00 0.00 0.01 0.02 0.04 0.07 0.13 0.20 0.25 0.40 0.59 0.74 0.80 0.86 0.90 0.75 0.53 0.34 0.24 0.16 0.11 0.09 0.09 0.06 0.04 0.03 0.04 0.05 0.06 0.08 0.08
0.00 0.00 0.00 0.00 0.00 0.00 0.00 0.00 0.00 0.00 0.00 0.00 0.00 0.00 0.01 0.02 0.05 0.10 0.13 0.18 0.20 0.17 0.24 0.33 0.38 0.44 0.51 0.52 0.45 0.33 0.31 0.29 0.23 0.19 0.18 0.14 0.07 0.03 0.02 0.03 0.05 0.06 0.05 0.05
0.00 0.00 0.00 0.00 0.00 0.00 0.00 0.00 0.00 0.00 0.01 0.02 0.03 0.03 0.03 0.04 0.06 0.09 0.11 0.13 0.14 0.17 0.23 0.28 0.26 0.23 0.21 0.19 0.18 0.16 0.20 0.24 0.21 0.20 0.20 0.17 0.13 0.09 0.06 0.06 0.08 0.07 0.06 0.05
0.02 0.01 0.01 0.01 0.00 0.00 0.00 0.00 0.00 0.01 0.05 0.09 0.12 0.06 0.05 0.03 0.03 0.04 0.05 0.07 0.11 0.14 0.17 0.21 0.21 0.17 0.14 0.12 0.09 0.07 0.08 0.14 0.16 0.16 0.18 0.17 0.16 0.14 0.12 0.11 0.10 0.10 0.08 0.08
0.02 0.03 0.01 0.00 0.00 0.00 0.00 0.00 0.00 0.00 0.01 0.01 0.02 0.03 0.05 0.04 0.03 0.02 0.02 0.03 0.06 0.07 0.08 0.11 0.11 0.10 0.09 0.07 0.06 0.05 0.04 0.05 0.07 0.09 0.13 0.14 0.15 0.14 0.14 0.21 0.19 0.15 0.11 0.10
0.00 0.01 0.00 0.00 0.00 0.00 0.00 0.00 0.00 0.00 0.00 0.00 0.01 0.03 0.05 0.06 0.05 0.02 0.01 0.01 0.03 0.04 0.05 0.05 0.05 0.05 0.04 0.04 0.04 0.04 0.03 0.04 0.04 0.05 0.07 0.09 0.11 0.14 0.19 0.24 0.21 0.16 0.14 0.09
0.00 0.00 0.00 0.00 0.00 0.00 0.00 0.00 0.00 0.00 0.00 0.00 0.00 0.07 0.14 0.17 0.17 0.06 0.01 0.01 0.01 0.02 0.02 0.02 0.03 0.03 0.02 0.02 0.02 0.02 0.02 0.03 0.03 0.03 0.03 0.05 0.10 0.17 0.24 0.28 0.24 0.20 0.16 0.13
0.00 0.00 0.00 0.00 0.00 0.00 0.00 0.00 0.00 0.00 0.00 0.00 0.01 0.07 0.09 0.13 0.09 0.04 0.01 0.01 0.01 0.01 0.01 0.01 0.01 0.01 0.01 0.01 0.01 0.02 0.02 0.02 0.02 0.02 0.03 0.07 0.16 0.20 0.27 0.42 0.40 0.24 0.17 0.15
0.00 0.00 0.00 0.00 0.01 0.00 0.00 0.00 0.00 0.00 0.00 0.00 0.02 0.08 0.05 0.06 0.05 0.03 0.02 0.01 0.00 0.01 0.00 0.00 0.00 0.00 0.01 0.01 0.01 0.01 0.01 0.02 0.02 0.02 0.02 0.05 0.14 0.19 0.23 0.30 0.33 0.25 0.19 0.16
0.00 0.00 0.00 0.01 0.01 0.01 0.00 0.00 0.00 0.00 0.00 0.01 0.08 0.14 0.07 0.04 0.02 0.02 0.01 0.00 0.00 0.00 0.00 0.00 0.00 0.00 0.01 0.01 0.01 0.01 0.01 0.01 0.01 0.02 0.02 0.04 0.06 0.07 0.08 0.10 0.14 0.19 0.21 0.21
0.00 0.00 0.00 0.01 0.00 0.00 0.00 0.00 0.00 0.00 0.03 0.05 0.09 0.15 0.06 0.02 0.00 0.00 0.00 0.00 0.00 0.00 0.00 0.00 0.00 0.00 0.00 0.00 0.00 0.01 0.01 0.01 0.01 0.02 0.03 0.03 0.03 0.03 0.03 0.06 0.10 0.16 0.18 0.19
0.00 0.00 0.00 0.00 0.00 0.00 0.00 0.00 0.00 0.01 0.04 0.09 0.08 0.07 0.03 0.01 0.01 0.00 0.00 0.00 0.00 0.00 0.01 0.01 0.01 0.01 0.01 0.01 0.01 0.01 0.01 0.01 0.02 0.03 0.08 0.08 0.06 0.05 0.04 0.06 0.08 0.10 0.10 0.10
0.00 0.00 0.00 0.00 0.01 0.00 0.01 0.01 0.01 0.01 0.01 0.02 0.02 0.02 0.01 0.02 0.02 0.02 0.02 0.02 0.02 0.02 0.02 0.02 0.02 0.02 0.01 0.01 0.01 0.01 0.01 0.01 0.03 0.07 0.12 0.15 0.12 0.06 0.03 0.03 0.04 0.05 0.05 0.06
0.00 0.00 0.00 0.01 0.01 0.01 0.05 0.03 0.01 0.01 0.02 0.03 0.04 0.05 0.04 0.05 0.05 0.07 0.07 0.06 0.05 0.04 0.03 0.02 0.01 0.01 0.01 0.01 0.01 0.02 0.02 0.02 0.08 0.11 0.10 0.16 0.16 0.06 0.02 0.02 0.03 0.05 0.04 0.06
0.00 0.00 0.00 0.01 0.01 0.04 0.06 0.01 0.01 0.01 0.02 0.03 0.05 0.06 0.08 0.09 0.09 0.09 0.10 0.08 0.04 0.02 0.01 0.00 0.00 0.00 0.00 0.00 0.00 0.02 0.04 0.04 0.11 0.14 0.10 0.16 0.16 0.07 0.06 0.06 0.06 0.06 0.06 0.09
0.00 0.00 0.00 0.00 0.01 0.04 0.02 0.02 0.03 0.04 0.05 0.06 0.08 0.11 0.11 0.09 0.06 0.04 0.03 0.02 0.01 0.00 0.00 0.00 0.00 0.00 0.00 0.00 0.01 0.02 0.07 0.09 0.10 0.11 0.10 0.15 0.19 0.13 0.12 0.11 0.12 0.12 0.13 0.16
0.00 0.00 0.00 0.01 0.01 0.04 0.04 0.04 0.06 0.07 0.14 0.12 0.09 0.07 0.04 0.02 0.03 0.01 0.00 0.00 0.00 0.00 0.00 0.00 0.00 0.00 0.01 0.01 0.02 0.04 0.05 0.09 0.11 0.10 0.11 0.15 0.25 0.25 0.21 0.20 0.20 0.19 0.23 0.25
0.00 0.01 0.01 0.02 0.04 0.05 0.02 0.04 0.05 0.12 0.15 0.05 0.02 0.02 0.02 0.02 0.03 0.01 0.00 0.01 0.01 0.00 0.00 0.01 0.01 0.01 0.02 0.03 0.05 0.08 0.09 0.10 0.12 0.13 0.16 0.20 0.28 0.37 0.35 0.33 0.30 0.28 0.28 0.34
0.00 0.01 0.01 0.03 0.07 0.11 0.02 0.02 0.05 0.06 0.04 0.02 0.02 0.02 0.02 0.02 0.01 0.01 0.01 0.01 0.01 0.01 0.01 0.02 0.03 0.04 0.05 0.08 0.13 0.16 0.16 0.17 0.19 0.20 0.22 0.27 0.36 0.38 0.39 0.41 0.43 0.45 0.44 0.47
0.00 0.01 0.02 0.04 0.07 0.03 0.00 0.01 0.02 0.02 0.02 0.02 0.02 0.02 0.02 0.02 0.02 0.02 0.03 0.02 0.02 0.01 0.02 0.03 0.05 0.07 0.10 0.14 0.23 0.28 0.29 0.31 0.30 0.28 0.29 0.32 0.38 0.46 0.55 0.55 0.52 0.55 0.58 0.61
0.00 0.00 0.01 0.03 0.02 0.01 0.01 0.01 0.02 0.01 0.02 0.02 0.01 0.01 0.01 0.03 0.04 0.05 0.05 0.04 0.03 0.03 0.03 0.04 0.06 0.10 0.15 0.23 0.33 0.40 0.41 0.41 0.39 0.34 0.32 0.35 0.40 0.46 0.55 0.66 0.67 0.70 0.71 0.74
0.00 0.00 0.01 0.02 0.01 0.00 0.01 0.01 0.01 0.01 0.01 0.01 0.00 0.01 0.02 0.04 0.05 0.06 0.06 0.06 0.05 0.04 0.03 0.05 0.09 0.14 0.17 0.27 0.40 0.47 0.49 0.49 0.46 0.40 0.35 0.34 0.38 0.43 0.50 0.59 0.66 0.72 0.75 0.75
0.00 0.00 0.00 0.01 0.00 0.00 0.01 0.00 0.00 0.00 0.01 0.01 0.01 0.01 0.02 0.03 0.04 0.04 0.05 0.04 0.04 0.04 0.06 0.09 0.13 0.18 0.21 0.27 0.37 0.45 0.57 0.66 0.65 0.55 0.45 0.39 0.37 0.41 0.47 0.53 0.53 0.51 0.58 0.60

GEFSCGP_prec_meanprecacc_036.txt.gz
Total_Precipitation_Accumulation
0.00 0.00 0.00 0.00 0.00 0.00 0.00 0.00 0.00 0.00 0.00 0.00 0.00 0.00 0.02 0.03 0.05 0.05 0.04 0.06 0.10 0.18 0.33 0.51 0.80 1.09 1.41 1.79 2.24 2.43 2.34 1.87 1.39 1.10 0.87 0.68 0.49 0.40 0.36 0.31 0.25 0.18 0.14 0.19
0.00 0.00 0.00 0.00 0.00 0.00 0.00 0.00 0.00 0.00 0.00 0.00 0.00 0.00 0.01 0.02 0.02 0.03 0.03 0.07 0.15 0.30 0.53 0.88 1.30 1.53 1.52 1.79 2.28 2.33 1.87 1.40 1.05 0.82 0.64 0.48 0.37 0.33 0.31 0.24 0.19 0.14 0.15 0.19
0.00 0.00 0.00 0.00 0.00 0.00 0.00 0.00 0.00 0.00 0.00 0.00 0.00 0.00 0.01 0.02 0.03 0.04 0.06 0.12 0.22 0.43 0.74 1.07 1.41 1.52 1.42 1.64 1.68 1.41 1.12 0.86 0.66 0.54 0.45 0.41 0.32 0.28 0.22 0.16 0.13 0.13 0.15 0.17
0.00 0.00 0.00 0.00 0.00 0.00 0.00 0.00 0.00 0.00 0.00 0.00 0.00 0.00 0.02 0.04 0.06 0.09 0.12 0.19 0.26 0.32 0.47 0.70 0.90 1.04 1.12 1.13 0.98 0.80 0.69 0.57 0.50 0.48 0.37 0.38 0.31 0.23 0.16 0.11 0.11 0.13 0.13 0.11
0.00 0.00 0.00 0.00 0.00 0.00 0.00 0.00 0.00 0.00 0.00 0.00 0.00 0.01 0.03 0.06 0.12 0.21 0.27 0.29 0.26 0.21 0.27 0.39 0.44 0.52 0.59 0.61 0.56 0.46 0.52 0.57 0.51 0.46 0.38 0.30 0.22 0.15 0.11 0.12 0.15 0.16 0.12 0.10
0.01 0.01 0.01 0.00 0.00 0.00 0.00 0.00 0.00 0.00 0.01 0.04 0.06 0.07 0.10 0.15 0.22 0.34 0.34 0.27 0.21 0.20 0.25 0.30 0.28 0.25 0.25 0.26 0.25 0.24 0.31 0.38 0.37 0.36 0.34 0.30 0.25 0.21 0.18 0.17 0.17 0.16 0.15 0.13
0.06 0.04 0.02 0.01 0.01 0.00 0.00 0.00 0.00 0.02 0.06 0.12 0.15 0.11 0.18 0.28 0.38 0.46 0.34 0.21 0.16 0.16 0.18 0.21 0.21 0.18 0.15 0.14 0.13 0.12 0.13 0.21 0.25 0.26 0.29 0.28 0.28 0.26 0.24 0.20 0.19 0.18 0.17 0.18
0.04 0.05 0.02 0.01 0.01 0.01 0.01 0.01 0.01 0.01 0.01 0.02 0.05 0.11 0.25 0.32 0.39 0.32 0.17 0.09 0.08 0.08 0.09 0.11 0.11 0.10 0.09 0.08 0.07 0.06 0.05 0.07 0.09 0.12 0.17 0.18 0.21 0.22 0.23 0.29 0.27 0.22 0.20 0.22
0.01 0.01 0.01 0.01 0.02 0.03 0.02 0.01 0.01 0.00 0.00 0.01 0.05 0.15 0.20 0.24 0.28 0.18 0.09 0.04 0.04 0.04 0.05 0.05 0.05 0.05 0.04 0.04 0.04 0.04 0.04 0.04 0.05 0.05 0.07 0.09 0.13 0.17 0.23 0.29 0.28 0.23 0.22 0.20
0.00 0.00 0.00 0.01 0.01 0.02 0.02 0.02 0.01 0.01 0.01 0.01 0.03 0.17 0.28 0.32 0.29 0.16 0.07 0.03 0.02 0.02 0.02 0.02 0.03 0.03 0.02 0.02 0.02 0.02 0.02 0.03 0.03 0.03 0.03 0.05 0.10 0.18 0.25 0.29 0.26 0.22 0.20 0.19
0.00 0.00 0.00 0.00 0.02 0.03 0.04 0.03 0.03 0.02 0.02 0.02 0.04 0.14 0.18 0.23 0.19 0.11 0.05 0.03 0.01 0.01 0.01 0.01 0.01 0.01 0.01 0.01 0.01 0.02 0.02 0.02 0.02 0.02 0.03 0.07 0.16 0.20 0.27 0.42 0.40 0.24 0.18 0.16
0.00 0.00 0.00 0.01 0.03 0.03 0.04 0.04 0.03 0.03 0.02 0.02 0.05 0.13 0.09 0.10 0.08 0.06 0.04 0.01 0.01 0.01 0.00 0.00 0.00 0.00 0.01 0.01 0.01 0.01 0.01 0.02 0.02 0.02 0.02 0.05 0.14 0.19 0.23 0.30 0.33 0.25 0.19 0.16
0.00 0.00 0.00 0.02 0.04 0.05 0.04 0.04 0.03 0.04 0.03 0.03 0.11 0.18 0.08 0.05 0.03 0.03 0.01 0.00 0.00 0.00 0.00 0.00 0.00 0.00 0.01 0.01 0.01 0.01 0.01 0.01 0.01 0.02 0.02 0.04 0.06 0.07 0.08 0.10 0.14 0.19 0.21 0.21
0.00 0.00 0.00 0.01 0.01 0.02 0.04 0.05 0.07 0.06 0.06 0.07 0.11 0.17 0.07 0.02 0.01 0.00 0.00 0.00 0.00 0.00 0.00 0.00 0.00 0.00 0.00 0.00 0.00 0.01 0.01 0.01 0.01 0.02 0.03 0.03 0.03 0.03 0.03 0.06 0.10 0.16 0.18 0.19
0.00 0.00 0.00 0.00 0.01 0.02 0.03 0.05 0.06 0.05 0.06 0.10 0.08 0.08 0.04 0.01 0.01 0.01 0.00 0.00 0.00 0.00 0.01 0.01 0.01 0.01 0.01 0.01 0.01 0.01 0.01 0.01 0.02 0.04 0.08 0.08 0.06 0.05 0.04 0.06 0.08 0.10 0.10 0.10
0.00 0.00 0.00 0.00 0.01 0.01 0.03 0.06 0.05 0.02 0.02 0.02 0.02 0.03 0.01 0.02 0.02 0.02 0.02 0.02 0.02 0.02 0.02 0.02 0.02 0.02 0.01 0.01 0.01 0.01 0.01 0.01 0.04 0.07 0.12 0.15 0.12 0.06 0.03 0.03 0.04 0.05 0.05 0.06
0.00 0.00 0.00 0.01 0.01 0.02 0.08 0.06 0.03 0.01 0.02 0.03 0.04 0.05 0.04 0.05 0.05 0.07 0.07 0.06 0.05 0.04 0.03 0.02 0.01 0.01 0.01 0.01 0.01 0.02 0.02 0.02 0.08 0.11 0.10 0.16 0.17 0.06 0.02 0.02 0.03 0.05 0.05 0.07
0.00 0.00 0.00 0.01 0.01 0.06 0.07 0.02 0.01 0.01 0.02 0.03 0.05 0.06 0.08 0.09 0.09 0.09 0.10 0.08 0.04 0.02 0.01 0.00 0.00 0.00 0.00 0.00 0.00 0.02 0.04 0.04 0.11 0.14 0.10 0.16 0.17 0.07 0.06 0.06 0.06 0.06 0.07 0.09
0.00 0.00 0.00 0.00 0.01 0.05 0.03 0.02 0.03 0.04 0.05 0.06 0.08 0.11 0.11 0.09 0.06 0.04 0.03 0.02 0.01 0.00 0.00 0.00 0.00 0.00 0.00 0.01 0.01 0.02 0.07 0.10 0.10 0.12 0.11 0.16 0.20 0.14 0.12 0.12 0.13 0.13 0.14 0.16
0.00 0.00 0.00 0.01 0.01 0.04 0.04 0.04 0.06 0.07 0.14 0.12 0.09 0.07 0.04 0.02 0.03 0.01 0.00 0.00 0.00 0.00 0.00 0.00 0.00 0.00 0.01 0.01 0.03 0.04 0.06 0.11 0.12 0.12 0.13 0.17 0.27 0.27 0.23 0.21 0.21 0.19 0.23 0.26
0.00 0.01 0.01 0.02 0.04 0.06 0.02 0.04 0.05 0.12 0.15 0.05 0.02 0.02 0.02 0.02 0.03 0.01 0.00 0.01 0.01 0.00 0.00 0.01 0.01 0.01 0.02 0.03 0.06 0.10 0.11 0.12 0.14 0.16 0.18 0.22 0.31 0.40 0.38 0.35 0.31 0.28 0.29 0.34
0.00 0.01 0.01 0.03 0.07 0.11 0.02 0.02 0.05 0.06 0.04 0.02 0.02 0.02 0.02 0.02 0.01 0.01 0.01 0.01 0.01 0.01 0.01 0.02 0.03 0.04 0.05 0.08 0.14 0.19 0.19 0.19 0.22 0.23 0.25 0.29 0.39 0.40 0.42 0.44 0.45 0.47 0.46 0.48
0.00 0.01 0.02 0.04 0.07 0.03 0.00 0.01 0.02 0.02 0.02 0.02 0.02 0.02 0.02 0.02 0.02 0.02 0.03 0.02 0.02 0.01 0.02 0.03 0.05 0.08 0.11 0.15 0.24 0.31 0.32 0.33 0.34 0.32 0.32 0.35 0.41 0.49 0.58 0.59 0.55 0.58 0.60 0.63
0.00 0.00 0.01 0.03 0.02 0.01 0.01 0.01 0.02 0.01 0.02 0.02 0.01 0.01 0.01 0.03 0.04 0.05 0.05 0.04 0.03 0.03 0.03 0.04 0.07 0.11 0.16 0.24 0.35 0.42 0.44 0.45 0.43 0.38 0.36 0.38 0.45 0.50 0.59 0.71 0.71 0.73 0.73 0.76
0.00 0.00 0.01 0.02 0.01 0.00 0.01 0.01 0.01 0.01 0.01 0.01 0.00 0.01 0.02 0.04 0.05 0.06 0.06 0.06 0.05 0.04 0.04 0.06 0.10 0.15 0.19 0.28 0.42 0.49 0.52 0.54 0.51 0.45 0.39 0.38 0.43 0.49 0.55 0.63 0.70 0.76 0.78 0.77
0.00 0.00 0.00 0.01 0.00 0.00 0.01 0.00 0.00 0.00 0.01 0.01 0.01 0.01 0.02 0.03 0.04 0.04 0.05 0.04 0.04 0.04 0.07 0.10 0.15 0.20 0.23 0.29 0.39 0.47 0.60 0.71 0.71 0.60 0.51 0.45 0.43 0.47 0.52 0.57 0.57 0.54 0.59 0.61

GEFSCGP_prec_meanprecacc_042.txt.gz
Total_Precipitation_Accumulation
0.00 0.00 0.00 0.00 0.00 0.00 0.00 0.00 0.00 0.00 0.00 0.00 0.00 0.01 0.02 0.04 0.05 0.06 0.07 0.11 0.16 0.25 0.42 0.64 0.96 1.26 1.58 1.95 2.42 2.61 2.56 2.12 1.67 1.49 1.30 1.18 1.03 0.93 0.89 0.81 0.70 0.60 0.49 0.47
0.00 0.00 0.00 0.00 0.00 0.00 0.00 0.00 0.00 0.00 0.00 0.00 0.00 0.01 0.01 0.02 0.03 0.04 0.06 0.11 0.21 0.38 0.63 1.01 1.44 1.65 1.62 1.87 2.35 2.41 1.96 1.50 1.22 1.08 0.96 0.83 0.79 0.73 0.66 0.57 0.48 0.43 0.41 0.41
0.00 0.00 0.00 0.00 0.00 0.00 0.00 0.00 0.00 0.00 0.00 0.00 0.00 0.00 0.01 0.02 0.03 0.05 0.09 0.15 0.27 0.50 0.82 1.15 1.49 1.58 1.48 1.68 1.73 1.44 1.15 0.89 0.70 0.60 0.55 0.56 0.53 0.50 0.42 0.35 0.31 0.32 0.35 0.33
0.00 0.00 0.00 0.00 0.00 0.00 0.00 0.00 0.00 0.00 0.00 0.00 0.00 0.01 0.02 0.04 0.07 0.10 0.15 0.23 0.30 0.37 0.52 0.75 0.94 1.06 1.14 1.15 1.00 0.81 0.70 0.58 0.53 0.52 0.45 0.51 0.45 0.39 0.34 0.28 0.27 0.29 0.30 0.27
0.01 0.01 0.00 0.00 0.00 0.00 0.00 0.00 0.00 0.00 0.00 0.00 0.01 0.02 0.04 0.07 0.14 0.23 0.30 0.32 0.29 0.25 0.29 0.41 0.46 0.53 0.60 0.61 0.56 0.46 0.53 0.59 0.54 0.50 0.44 0.40 0.34 0.29 0.26 0.28 0.30 0.33 0.33 0.30
0.02 0.02 0.01 0.00 0.00 0.00 0.00 0.00 0.00 0.00 0.01 0.04 0.07 0.08 0.10 0.16 0.23 0.36 0.36 0.29 0.23 0.21 0.26 0.30 0.28 0.25 0.25 0.26 0.25 0.25 0.32 0.39 0.39 0.39 0.38 0.35 0.32 0.30 0.27 0.27 0.28 0.29 0.31 0.32
0.07 0.05 0.03 0.01 0.01 0.01 0.01 0.01 0.01 0.02 0.06 0.12 0.15 0.12 0.19 0.29 0.39 0.47 0.35 0.22 0.17 0.16 0.18 0.21 0.21 0.18 0.15 0.14 0.13 0.12 0.14 0.22 0.25 0.27 0.31 0.30 0.30 0.29 0.28 0.25 0.24 0.25 0.25 0.28
0.05 0.06 0.02 0.01 0.03 0.03 0.03 0.02 0.02 0.02 0.02 0.03 0.06 0.13 0.27 0.33 0.40 0.33 0.18 0.10 0.08 0.09 0.09 0.11 0.11 0.10 0.09 0.08 0.07 0.06 0.06 0.07 0.09 0.12 0.17 0.18 0.22 0.23 0.24 0.31 0.29 0.25 0.24 0.27
0.01 0.01 0.01 0.02 0.03 0.04 0.03 0.02 0.02 0.02 0.02 0.03 0.07 0.16 0.22 0.25 0.29 0.19 0.10 0.05 0.04 0.05 0.05 0.05 0.05 0.05 0.04 0.04 0.04 0.04 0.04 0.04 0.05 0.05 0.07 0.10 0.13 0.17 0.24 0.30 0.28 0.24 0.24 0.22
0.00 0.00 0.00 0.01 0.02 0.03 0.03 0.03 0.02 0.02 0.03 0.02 0.06 0.20 0.31 0.33 0.30 0.17 0.08 0.04 0.03 0.03 0.03 0.03 0.03 0.03 0.03 0.02 0.02 0.02 0.03 0.03 0.03 0.03 0.03 0.05 0.10 0.18 0.25 0.29 0.26 0.22 0.21 0.19
0.00 0.00 0.00 0.01 0.02 0.03 0.04 0.04 0.03 0.04 0.05 0.05 0.06 0.17 0.21 0.24 0.20 0.11 0.06 0.04 0.01 0.01 0.01 0.01 0.01 0.01 0.01 0.01 0.01 0.02 0.02 0.02 0.02 0.02 0.03 0.07 0.16 0.20 0.27 0.42 0.40 0.24 0.18 0.16
0.00 0.00 0.00 0.01 0.03 0.04 0.05 0.05 0.04 0.05 0.05 0.04 0.06 0.13 0.10 0.11 0.09 0.06 0.04 0.02 0.01 0.01 0.00 0.00 0.00 0.01 0.01 0.01 0.01 0.01 0.01 0.02 0.02 0.02 0.02 0.05 0.14 0.19 0.23 0.30 0.33 0.25 0.19 0.16
0.00 0.00 0.01 0.02 0.04 0.06 0.05 0.04 0.04 0.05 0.04 0.03 0.11 0.18 0.08 0.05 0.04 0.03 0.02 0.01 0.00 0.00 0.00 0.00 0.00 0.00 0.01 0.01 0.01 0.01 0.01 0.01 0.01 0.02 0.02 0.04 0.06 0.07 0.08 0.10 0.14 0.19 0.21 0.21
0.00 0.01 0.00 0.01 0.01 0.02 0.04 0.05 0.08 0.06 0.06 0.07 0.11 0.17 0.07 0.03 0.01 0.01 0.00 0.00 0.00 0.00 0.00 0.00 0.00 0.00 0.00 0.00 0.00 0.01 0.01 0.01 0.01 0.02 0.03 0.03 0.03 0.03 0.03 0.06 0.10 0.16 0.18 0.19
0.00 0.00 0.00 0.00 0.01 0.02 0.03 0.05 0.06 0.05 0.06 0.10 0.08 0.08 0.04 0.01 0.01 0.01 0.00 0.00 0.00 0.00 0.01 0.01 0.01 0.01 0.01 0.01 0.01 0.01 0.01 0.01 0.02 0.04 0.08 0.08 0.06 0.05 0.04 0.06 0.08 0.10 0.10 0.10
0.00 0.00 0.00 0.00 0.01 0.01 0.03 0.06 0.05 0.02 0.02 0.02 0.02 0.03 0.01 0.02 0.02 0.02 0.02 0.02 0.02 0.02 0.02 0.02 0.02 0.02 0.01 0.01 0.01 0.01 0.01 0.01 0.04 0.07 0.12 0.16 0.12 0.06 0.04 0.04 0.04 0.05 0.05 0.06
0.00 0.00 0.00 0.01 0.01 0.02 0.08 0.06 0.03 0.01 0.02 0.03 0.04 0.05 0.04 0.05 0.05 0.07 0.07 0.06 0.05 0.04 0.03 0.02 0.01 0.01 0.01 0.01 0.01 0.02 0.02 0.02 0.08 0.12 0.10 0.17 0.17 0.07 0.03 0.03 0.04 0.06 0.05 0.07
0.00 0.00 0.00 0.01 0.01 0.06 0.07 0.02 0.01 0.01 0.02 0.03 0.05 0.06 0.08 0.09 0.09 0.09 0.10 0.08 0.04 0.02 0.01 0.00 0.00 0.00 0.00 0.00 0.00 0.02 0.04 0.04 0.11 0.14 0.11 0.16 0.18 0.09 0.08 0.08 0.09 0.08 0.08 0.10
0.00 0.00 0.00 0.00 0.01 0.05 0.03 0.02 0.03 0.04 0.05 0.06 0.08 0.11 0.11 0.09 0.06 0.04 0.03 0.02 0.01 0.00 0.00 0.00 0.00 0.00 0.00 0.01 0.01 0.02 0.07 0.10 0.11 0.13 0.12 0.17 0.23 0.17 0.16 0.16 0.18 0.18 0.19 0.20
0.00 0.00 0.00 0.01 0.01 0.04 0.04 0.04 0.06 0.07 0.14 0.12 0.09 0.07 0.04 0.02 0.03 0.01 0.00 0.00 0.00 0.00 0.00 0.00 0.00 0.00 0.01 0.01 0.03 0.04 0.06 0.11 0.13 0.13 0.15 0.20 0.31 0.33 0.29 0.27 0.27 0.26 0.31 0.33
0.00 0.01 0.01 0.02 0.04 0.06 0.02 0.04 0.05 0.12 0.15 0.05 0.02 0.02 0.02 0.02 0.03 0.01 0.00 0.01 0.01 0.00 0.00 0.01 0.01 0.01 0.02 0.03 0.06 0.10 0.11 0.13 0.15 0.18 0.21 0.26 0.36 0.47 0.45 0.42 0.38 0.36 0.37 0.42
0.00 0.01 0.01 0.03 0.07 0.11 0.02 0.02 0.05 0.06 0.04 0.02 0.02 0.02 0.02 0.02 0.01 0.01 0.01 0.01 0.01 0.01 0.01 0.02 0.03 0.04 0.05 0.08 0.14 0.20 0.20 0.20 0.23 0.25 0.28 0.33 0.43 0.46 0.49 0.51 0.53 0.56 0.55 0.57
0.00 0.01 0.02 0.04 0.07 0.03 0.00 0.01 0.02 0.02 0.02 0.02 0.02 0.02 0.02 0.02 0.02 0.02 0.03 0.02 0.02 0.01 0.02 0.03 0.05 0.08 0.11 0.15 0.25 0.32 0.33 0.35 0.35 0.34 0.34 0.38 0.45 0.54 0.64 0.65 0.62 0.65 0.69 0.71
0.00 0.00 0.01 0.03 0.02 0.01 0.01 0.01 0.02 0.01 0.02 0.02 0.01 0.01 0.01 0.03 0.04 0.05 0.05 0.04 0.03 0.03 0.03 0.04 0.07 0.12 0.16 0.24 0.35 0.43 0.46 0.47 0.46 0.41 0.38 0.42 0.49 0.56 0.66 0.78 0.79 0.81 0.81 0.83
0.00 0.00 0.01 0.02 0.01 0.00 0.01 0.01 0.01 0.01 0.01 0.01 0.00 0.01 0.02 0.04 0.05 0.06 0.06 0.06 0.05 0.04 0.04 0.06 0.10 0.16 0.19 0.29 0.43 0.50 0.53 0.56 0.54 0.48 0.42 0.43 0.48 0.53 0.60 0.71 0.79 0.84 0.85 0.84
0.00 0.00 0.00 0.01 0.00 0.00 0.01 0.00 0.00 0.00 0.01 0.01 0.01 0.01 0.02 0.03 0.04 0.04 0.05 0.04 0.04 0.04 0.07 0.11 0.15 0.21 0.24 0.30 0.40 0.49 0.62 0.73 0.74 0.64 0.55 0.49 0.47 0.50 0.56 0.63 0.64 0.60 0.65 0.65

GEFSCGP_prec_meanprecacc_048.txt.gz
Total_Precipitation_Accumulation
0.00 0.00 0.00 0.00 0.00 0.00 0.00 0.00 0.00 0.00 0.00 0.00 0.00 0.01 0.02 0.04 0.06 0.06 0.07 0.11 0.17 0.26 0.44 0.66 0.98 1.30 1.63 2.00 2.47 2.67 2.61 2.17 1.72 1.52 1.33 1.24 1.13 1.09 1.12 1.13 1.08 1.03 0.94 0.90
0.00 0.00 0.00 0.00 0.00 0.00 0.00 0.00 0.00 0.00 0.00 0.00 0.00 0.01 0.01 0.03 0.03 0.04 0.06 0.12 0.22 0.38 0.64 1.02 1.46 1.68 1.65 1.90 2.39 2.43 1.98 1.53 1.25 1.11 0.99 0.88 0.86 0.85 0.82 0.79 0.77 0.75 0.76 0.78
0.00 0.00 0.00 0.00 0.00 0.00 0.00 0.00 0.00 0.00 0.00 0.00 0.00 0.01 0.02 0.02 0.04 0.06 0.09 0.16 0.27 0.50 0.82 1.15 1.50 1.58 1.48 1.69 1.74 1.45 1.16 0.90 0.71 0.61 0.57 0.59 0.57 0.56 0.50 0.45 0.44 0.50 0.55 0.56
0.00 0.01 0.00 0.00 0.00 0.00 0.00 0.00 0.00 0.00 0.00 0.00 0.01 0.03 0.04 0.04 0.07 0.10 0.15 0.24 0.30 0.37 0.52 0.75 0.94 1.07 1.14 1.15 1.00 0.82 0.70 0.59 0.53 0.52 0.46 0.52 0.47 0.42 0.38 0.33 0.33 0.37 0.41 0.41
0.01 0.01 0.00 0.00 0.00 0.00 0.00 0.00 0.00 0.00 0.00 0.00 0.01 0.03 0.06 0.07 0.14 0.23 0.30 0.32 0.29 0.25 0.29 0.41 0.46 0.53 0.60 0.61 0.56 0.46 0.53 0.59 0.54 0.50 0.44 0.40 0.34 0.30 0.28 0.30 0.34 0.39 0.41 0.40
0.03 0.02 0.01 0.00 0.00 0.01 0.01 0.01 0.01 0.01 0.01 0.05 0.07 0.09 0.14 0.17 0.24 0.36 0.36 0.29 0.24 0.21 0.26 0.30 0.28 0.25 0.25 0.26 0.25 0.25 0.32 0.40 0.39 0.39 0.38 0.35 0.32 0.31 0.28 0.28 0.29 0.32 0.35 0.38
0.08 0.05 0.03 0.02 0.01 0.02 0.02 0.02 0.01 0.02 0.07 0.13 0.16 0.14 0.23 0.30 0.39 0.47 0.35 0.22 0.17 0.16 0.18 0.21 0.21 0.18 0.16 0.14 0.13 0.12 0.14 0.22 0.26 0.28 0.31 0.30 0.31 0.30 0.28 0.25 0.24 0.25 0.26 0.31
0.05 0.06 0.03 0.02 0.03 0.03 0.03 0.02 0.02 0.03 0.03 0.05 0.08 0.18 0.30 0.34 0.40 0.33 0.18 0.10 0.08 0.09 0.09 0.11 0.11 0.10 0.09 0.08 0.07 0.06 0.06 0.08 0.09 0.13 0.17 0.19 0.22 0.23 0.24 0.31 0.29 0.25 0.24 0.27
0.01 0.01 0.01 0.02 0.03 0.04 0.03 0.03 0.03 0.03 0.03 0.05 0.10 0.21 0.24 0.26 0.30 0.19 0.10 0.05 0.04 0.05 0.05 0.05 0.05 0.05 0.04 0.04 0.04 0.04 0.04 0.04 0.05 0.05 0.08 0.10 0.14 0.17 0.24 0.30 0.28 0.24 0.24 0.23
0.00 0.00 0.00 0.01 0.02 0.03 0.03 0.03 0.02 0.03 0.04 0.04 0.08 0.25 0.36 0.35 0.31 0.17 0.08 0.04 0.03 0.03 0.03 0.03 0.03 0.03 0.03 0.02 0.02 0.02 0.03 0.03 0.03 0.03 0.03 0.05 0.11 0.18 0.25 0.30 0.26 0.22 0.21 0.19
0.00 0.00 0.00 0.01 0.02 0.03 0.04 0.04 0.03 0.04 0.05 0.05 0.06 0.18 0.22 0.25 0.20 0.11 0.06 0.04 0.01 0.01 0.01 0.01 0.01 0.01 0.01 0.01 0.01 0.02 0.02 0.02 0.02 0.02 0.03 0.07 0.16 0.20 0.27 0.42 0.40 0.24 0.18 0.16
0.00 0.00 0.00 0.01 0.03 0.04 0.05 0.05 0.04 0.05 0.05 0.04 0.06 0.13 0.10 0.11 0.09 0.06 0.04 0.02 0.01 0.01 0.00 0.00 0.00 0.01 0.01 0.01 0.01 0.01 0.01 0.02 0.02 0.02 0.02 0.05 0.14 0.19 0.23 0.30 0.33 0.25 0.20 0.16
0.00 0.00 0.01 0.02 0.04 0.06 0.05 0.04 0.04 0.05 0.04 0.03 0.11 0.18 0.08 0.05 0.04 0.03 0.02 0.01 0.00 0.00 0.00 0.00 0.00 0.00 0.01 0.01 0.01 0.01 0.01 0.01 0.01 0.02 0.02 0.04 0.06 0.07 0.08 0.10 0.14 0.19 0.21 0.22
0.00 0.01 0.00 0.01 0.01 0.02 0.04 0.05 0.08 0.06 0.06 0.07 0.11 0.17 0.07 0.03 0.01 0.01 0.00 0.00 0.00 0.00 0.00 0.00 0.00 0.00 0.00 0.00 0.00 0.01 0.01 0.01 0.01 0.02 0.03 0.03 0.03 0.03 0.03 0.06 0.10 0.16 0.18 0.19
0.00 0.00 0.00 0.00 0.01 0.02 0.03 0.05 0.06 0.05 0.06 0.10 0.08 0.08 0.04 0.01 0.01 0.01 0.00 0.00 0.00 0.00 0.01 0.01 0.01 0.01 0.01 0.01 0.01 0.01 0.01 0.02 0.02 0.04 0.08 0.08 0.06 0.05 0.05 0.07 0.08 0.10 0.11 0.11
0.00 0.00 0.00 0.00 0.01 0.01 0.03 0.06 0.05 0.02 0.02 0.02 0.02 0.03 0.01 0.02 0.02 0.02 0.02 0.02 0.02 0.02 0.02 0.02 0.02 0.02 0.01 0.01 0.02 0.01 0.01 0.01 0.04 0.07 0.13 0.16 0.13 0.07 0.04 0.05 0.05 0.07 0.07 0.08
0.00 0.00 0.00 0.01 0.01 0.02 0.08 0.06 0.03 0.01 0.02 0.03 0.04 0.05 0.04 0.05 0.05 0.07 0.07 0.06 0.05 0.04 0.03 0.02 0.01 0.01 0.01 0.01 0.01 0.02 0.02 0.02 0.09 0.12 0.11 0.17 0.18 0.08 0.04 0.05 0.06 0.08 0.08 0.11
0.00 0.00 0.00 0.01 0.01 0.06 0.07 0.02 0.01 0.01 0.02 0.03 0.05 0.06 0.08 0.09 0.09 0.09 0.10 0.08 0.04 0.02 0.01 0.00 0.00 0.00 0.00 0.00 0.00 0.02 0.04 0.05 0.12 0.15 0.11 0.17 0.19 0.10 0.10 0.11 0.12 0.13 0.14 0.17
0.00 0.00 0.00 0.00 0.01 0.05 0.03 0.02 0.03 0.04 0.05 0.06 0.08 0.11 0.11 0.09 0.06 0.04 0.03 0.02 0.01 0.00 0.00 0.00 0.00 0.00 0.00 0.01 0.01 0.02 0.07 0.10 0.11 0.13 0.13 0.19 0.25 0.21 0.21 0.21 0.23 0.24 0.27 0.29
0.00 0.00 0.00 0.01 0.01 0.04 0.04 0.04 0.06 0.07 0.14 0.12 0.09 0.07 0.04 0.02 0.03 0.01 0.00 0.00 0.00 0.00 0.00 0.00 0.00 0.00 0.01 0.01 0.03 0.05 0.07 0.11 0.14 0.14 0.16 0.22 0.34 0.38 0.35 0.33 0.34 0.34 0.40 0.43
0.00 0.01 0.01 0.02 0.04 0.06 0.02 0.04 0.05 0.12 0.15 0.05 0.02 0.02 0.02 0.02 0.03 0.01 0.00 0.01 0.01 0.00 0.00 0.01 0.01 0.01 0.02 0.03 0.06 0.10 0.12 0.14 0.16 0.19 0.22 0.28 0.40 0.52 0.50 0.48 0.46 0.46 0.48 0.54
0.00 0.01 0.01 0.03 0.07 0.11 0.02 0.02 0.05 0.06 0.04 0.02 0.02 0.02 0.02 0.02 0.01 0.01 0.01 0.01 0.01 0.01 0.01 0.02 0.03 0.04 0.06 0.08 0.15 0.20 0.21 0.21 0.24 0.27 0.30 0.35 0.46 0.50 0.53 0.58 0.62 0.67 0.68 0.69
0.00 0.01 0.02 0.04 0.07 0.03 0.00 0.01 0.02 0.02 0.02 0.02 0.02 0.02 0.02 0.02 0.02 0.02 0.03 0.02 0.02 0.01 0.02 0.03 0.05 0.08 0.11 0.15 0.25 0.33 0.34 0.36 0.37 0.36 0.36 0.41 0.48 0.58 0.71 0.73 0.70 0.74 0.79 0.84
0.00 0.00 0.01 0.03 0.02 0.01 0.01 0.01 0.02 0.01 0.02 0.02 0.01 0.01 0.01 0.03 0.04 0.05 0.05 0.04 0.03 0.03 0.03 0.04 0.07 0.12 0.17 0.24 0.36 0.44 0.47 0.49 0.48 0.43 0.40 0.44 0.52 0.60 0.72 0.84 0.86 0.89 0.91 0.94
0.00 0.00 0.01 0.02 0.01 0.00 0.01 0.01 0.01 0.01 0.01 0.01 0.00 0.01 0.02 0.04 0.05 0.06 0.06 0.06 0.05 0.04 0.04 0.06 0.10 0.16 0.20 0.29 0.43 0.51 0.55 0.58 0.56 0.50 0.44 0.45 0.51 0.58 0.65 0.75 0.84 0.90 0.93 0.91
0.00 0.00 0.00 0.01 0.00 0.00 0.01 0.00 0.00 0.00 0.01 0.01 0.01 0.01 0.02 0.03 0.04 0.04 0.05 0.04 0.04 0.04 0.07 0.11 0.15 0.21 0.24 0.30 0.41 0.50 0.64 0.76 0.77 0.67 0.56 0.51 0.49 0.54 0.60 0.68 0.68 0.64 0.68 0.67

GEFSCGP_prec_meanprecacc_054.txt.gz
Total_Precipitation_Accumulation
0.00 0.00 0.01 0.01 0.00 0.01 0.02 0.02 0.06 0.07 0.04 0.02 0.01 0.01 0.03 0.04 0.06 0.06 0.07 0.11 0.17 0.26 0.44 0.66 0.99 1.32 1.65 2.02 2.49 2.69 2.63 2.20 1.74 1.56 1.37 1.28 1.18 1.14 1.18 1.19 1.15 1.10 1.00 0.99
0.01 0.02 0.02 0.00 0.00 0.00 0.01 0.02 0.05 0.06 0.02 0.00 0.00 0.01 0.02 0.03 0.03 0.04 0.06 0.12 0.22 0.38 0.64 1.03 1.47 1.69 1.65 1.91 2.39 2.44 1.99 1.54 1.26 1.11 1.00 0.89 0.87 0.87 0.85 0.82 0.80 0.78 0.79 0.84
0.02 0.03 0.01 0.00 0.00 0.01 0.02 0.03 0.05 0.06 0.02 0.01 0.01 0.08 0.11 0.05 0.04 0.06 0.09 0.16 0.28 0.50 0.82 1.16 1.50 1.59 1.49 1.70 1.74 1.45 1.16 0.90 0.71 0.61 0.57 0.60 0.57 0.56 0.51 0.46 0.46 0.52 0.57 0.58
0.01 0.01 0.00 0.00 0.01 0.01 0.03 0.02 0.01 0.01 0.01 0.04 0.07 0.21 0.32 0.25 0.12 0.11 0.15 0.24 0.30 0.37 0.52 0.75 0.94 1.07 1.14 1.15 1.00 0.82 0.70 0.59 0.53 0.53 0.47 0.53 0.47 0.42 0.38 0.33 0.34 0.38 0.41 0.41
0.02 0.01 0.01 0.01 0.00 0.00 0.01 0.01 0.00 0.01 0.02 0.06 0.15 0.29 0.41 0.48 0.35 0.27 0.31 0.32 0.29 0.25 0.29 0.41 0.46 0.53 0.60 0.61 0.56 0.46 0.53 0.60 0.55 0.52 0.46 0.42 0.36 0.31 0.28 0.31 0.34 0.39 0.41 0.41
0.03 0.02 0.01 0.00 0.00 0.01 0.01 0.01 0.02 0.06 0.10 0.24 0.29 0.31 0.48 0.52 0.47 0.42 0.37 0.29 0.24 0.21 0.26 0.30 0.28 0.25 0.25 0.26 0.25 0.25 0.32 0.41 0.41 0.41 0.40 0.37 0.34 0.32 0.29 0.28 0.30 0.32 0.36 0.38
0.10 0.06 0.03 0.02 0.02 0.02 0.02 0.03 0.10 0.29 0.40 0.46 0.32 0.28 0.42 0.45 0.50 0.53 0.36 0.23 0.17 0.16 0.18 0.21 0.21 0.18 0.16 0.14 0.13 0.12 0.14 0.23 0.27 0.29 0.32 0.32 0.32 0.31 0.29 0.25 0.25 0.26 0.26 0.31
0.09 0.09 0.03 0.02 0.03 0.04 0.03 0.03 0.05 0.07 0.11 0.15 0.16 0.32 0.40 0.37 0.42 0.34 0.18 0.10 0.08 0.09 0.09 0.11 0.11 0.10 0.09 0.08 0.07 0.06 0.06 0.08 0.09 0.13 0.17 0.19 0.22 0.23 0.25 0.31 0.29 0.25 0.24 0.27
0.02 0.02 0.01 0.02 0.03 0.04 0.03 0.03 0.03 0.03 0.03 0.07 0.16 0.32 0.30 0.27 0.30 0.19 0.10 0.05 0.04 0.05 0.05 0.05 0.05 0.05 0.04 0.04 0.04 0.04 0.04 0.04 0.05 0.05 0.08 0.10 0.14 0.18 0.24 0.30 0.28 0.24 0.24 0.23
0.00 0.00 0.01 0.01 0.02 0.03 0.03 0.03 0.02 0.03 0.04 0.05 0.11 0.32 0.43 0.36 0.31 0.17 0.08 0.04 0.03 0.03 0.03 0.03 0.03 0.03 0.03 0.02 0.02 0.02 0.03 0.03 0.03 0.03 0.03 0.05 0.11 0.19 0.26 0.30 0.26 0.23 0.21 0.20
0.00 0.00 0.01 0.01 0.02 0.03 0.04 0.04 0.03 0.04 0.05 0.05 0.07 0.20 0.22 0.25 0.20 0.11 0.06 0.04 0.01 0.01 0.01 0.01 0.01 0.01 0.01 0.01 0.01 0.02 0.02 0.02 0.02 0.02 0.03 0.07 0.16 0.21 0.27 0.42 0.40 0.25 0.19 0.17
0.00 0.00 0.01 0.02 0.04 0.04 0.05 0.05 0.04 0.05 0.05 0.04 0.06 0.14 0.10 0.11 0.09 0.06 0.04 0.02 0.01 0.01 0.00 0.00 0.00 0.01 0.01 0.01 0.01 0.01 0.02 0.02 0.02 0.02 0.02 0.05 0.15 0.20 0.23 0.30 0.33 0.26 0.21 0.17
0.00 0.00 0.01 0.07 0.10 0.07 0.05 0.04 0.04 0.05 0.04 0.03 0.11 0.18 0.08 0.05 0.04 0.03 0.02 0.01 0.00 0.00 0.00 0.00 0.00 0.00 0.01 0.01 0.01 0.01 0.01 0.01 0.01 0.02 0.03 0.05 0.07 0.08 0.10 0.12 0.15 0.20 0.22 0.23
0.00 0.01 0.01 0.03 0.03 0.03 0.04 0.05 0.08 0.06 0.06 0.07 0.11 0.17 0.07 0.03 0.01 0.01 0.00 0.00 0.00 0.00 0.00 0.00 0.00 0.00 0.00 0.00 0.00 0.01 0.01 0.01 0.01 0.02 0.03 0.04 0.04 0.04 0.05 0.07 0.12 0.17 0.20 0.22
0.00 0.00 0.00 0.00 0.01 0.02 0.03 0.05 0.06 0.05 0.06 0.10 0.08 0.08 0.04 0.01 0.01 0.01 0.00 0.00 0.00 0.00 0.01 0.01 0.01 0.01 0.01 0.01 0.01 0.01 0.01 0.02 0.02 0.04 0.09 0.09 0.07 0.06 0.06 0.08 0.10 0.12 0.13 0.13
0.00 0.00 0.00 0.00 0.02 0.01 0.03 0.06 0.05 0.02 0.02 0.02 0.02 0.03 0.01 0.02 0.02 0.02 0.02 0.02 0.02 0.02 0.02 0.02 0.02 0.02 0.01 0.01 0.02 0.01 0.02 0.02 0.04 0.08 0.14 0.17 0.14 0.08 0.06 0.06 0.07 0.10 0.10 0.12
0.00 0.00 0.00 0.01 0.02 0.02 0.08 0.07 0.03 0.01 0.02 0.03 0.04 0.05 0.04 0.05 0.05 0.07 0.07 0.06 0.05 0.04 0.03 0.02 0.01 0.01 0.01 0.01 0.01 0.02 0.02 0.03 0.10 0.13 0.11 0.18 0.20 0.10 0.06 0.07 0.09 0.12 0.13 0.17
0.00 0.00 0.00 0.01 0.01 0.07 0.08 0.02 0.01 0.01 0.02 0.03 0.05 0.06 0.08 0.09 0.09 0.09 0.10 0.08 0.04 0.02 0.01 0.00 0.00 0.00 0.00 0.00 0.01 0.02 0.05 0.05 0.13 0.16 0.12 0.19 0.21 0.13 0.13 0.15 0.17 0.19 0.22 0.26
0.00 0.00 0.00 0.00 0.01 0.05 0.04 0.02 0.03 0.04 0.05 0.06 0.08 0.11 0.11 0.09 0.06 0.04 0.03 0.02 0.01 0.00 0.00 0.00 0.00 0.00 0.00 0.01 0.01 0.03 0.08 0.11 0.12 0.15 0.14 0.21 0.27 0.24 0.24 0.25 0.28 0.32 0.36 0.38
0.00 0.00 0.00 0.01 0.01 0.04 0.05 0.04 0.06 0.07 0.14 0.12 0.09 0.07 0.04 0.02 0.03 0.01 0.00 0.00 0.00 0.00 0.00 0.00 0.00 0.00 0.01 0.02 0.04 0.05 0.08 0.13 0.15 0.16 0.18 0.24 0.37 0.42 0.39 0.39 0.41 0.43 0.50 0.53
0.00 0.01 0.01 0.02 0.04 0.06 0.03 0.04 0.05 0.12 0.15 0.05 0.02 0.02 0.02 0.02 0.03 0.01 0.00 0.01 0.01 0.00 0.00 0.01 0.01 0.01 0.03 0.05 0.08 0.12 0.13 0.16 0.18 0.20 0.24 0.30 0.43 0.57 0.56 0.55 0.55 0.57 0.59 0.65
0.00 0.01 0.01 0.03 0.08 0.12 0.02 0.02 0.05 0.06 0.04 0.02 0.02 0.02 0.02 0.02 0.01 0.01 0.01 0.01 0.01 0.01 0.01 0.02 0.03 0.05 0.06 0.10 0.17 0.22 0.23 0.23 0.26 0.28 0.31 0.37 0.50 0.55 0.58 0.66 0.71 0.79 0.81 0.82
0.00 0.01 0.02 0.04 0.07 0.03 0.00 0.01 0.02 0.02 0.02 0.02 0.02 0.02 0.02 0.02 0.02 0.02 0.03 0.02 0.02 0.01 0.02 0.03 0.05 0.08 0.12 0.17 0.27 0.36 0.37 0.38 0.39 0.38 0.39 0.44 0.52 0.65 0.79 0.84 0.81 0.86 0.94 0.98
0.00 0.00 0.01 0.03 0.02 0.01 0.01 0.01 0.02 0.01 0.02 0.02 0.01 0.01 0.01 0.03 0.04 0.05 0.05 0.04 0.03 0.03 0.03 0.04 0.07 0.12 0.17 0.25 0.37 0.46 0.49 0.51 0.50 0.45 0.43 0.47 0.57 0.67 0.80 0.95 0.98 1.03 1.05 1.06
0.00 0.00 0.01 0.02 0.01 0.00 0.01 0.01 0.01 0.01 0.01 0.01 0.00 0.01 0.02 0.04 0.05 0.06 0.06 0.06 0.05 0.04 0.04 0.06 0.11 0.16 0.20 0.30 0.45 0.53 0.57 0.60 0.58 0.52 0.47 0.48 0.55 0.64 0.73 0.86 0.96 1.00 1.02 0.96
0.00 0.00 0.00 0.01 0.00 0.00 0.01 0.00 0.00 0.00 0.01 0.01 0.01 0.01 0.02 0.03 0.04 0.04 0.05 0.04 0.04 0.04 0.07 0.11 0.15 0.21 0.25 0.31 0.42 0.51 0.65 0.77 0.79 0.70 0.60 0.54 0.53 0.61 0.68 0.78 0.81 0.73 0.72 0.70

GEFSCGP_prec_meanprecacc_060.txt.gz
Total_Precipitation_Accumulation
0.00 0.00 0.01 0.01 0.01 0.02 0.04 0.04 0.09 0.11 0.08 0.08 0.17 0.22 0.23 0.22 0.26 0.25 0.23 0.20 0.19 0.29 0.46 0.68 1.00 1.33 1.67 2.03 2.51 2.70 2.64 2.21 1.75 1.56 1.37 1.29 1.19 1.15 1.20 1.21 1.17 1.12 1.02 1.00
0.01 0.03 0.02 0.01 0.01 0.02 0.06 0.06 0.12 0.13 0.07 0.07 0.18 0.38 0.46 0.46 0.32 0.26 0.22 0.23 0.26 0.41 0.65 1.03 1.48 1.70 1.66 1.91 2.40 2.44 1.99 1.54 1.26 1.11 1.00 0.90 0.88 0.87 0.85 0.83 0.81 0.80 0.81 0.86
0.03 0.05 0.02 0.02 0.03 0.08 0.08 0.09 0.12 0.11 0.09 0.13 0.24 0.44 0.66 0.60 0.36 0.24 0.20 0.22 0.32 0.52 0.82 1.16 1.50 1.59 1.49 1.70 1.74 1.45 1.16 0.90 0.71 0.61 0.57 0.60 0.57 0.57 0.51 0.46 0.46 0.52 0.58 0.59
0.02 0.02 0.02 0.02 0.04 0.05 0.05 0.04 0.04 0.04 0.06 0.15 0.28 0.56 0.84 0.72 0.46 0.33 0.26 0.29 0.33 0.38 0.52 0.75 0.94 1.07 1.14 1.15 1.00 0.82 0.71 0.59 0.53 0.53 0.47 0.53 0.47 0.43 0.38 0.34 0.34 0.39 0.42 0.42
0.03 0.02 0.02 0.02 0.02 0.02 0.02 0.02 0.02 0.03 0.04 0.11 0.27 0.53 0.80 0.85 0.72 0.53 0.41 0.37 0.31 0.26 0.30 0.41 0.46 0.53 0.60 0.61 0.57 0.47 0.54 0.60 0.56 0.52 0.46 0.42 0.36 0.31 0.28 0.31 0.34 0.39 0.41 0.41
0.04 0.04 0.02 0.02 0.01 0.02 0.02 0.03 0.05 0.10 0.14 0.31 0.35 0.43 0.69 0.71 0.69 0.63 0.47 0.33 0.25 0.22 0.26 0.30 0.28 0.25 0.25 0.26 0.26 0.25 0.32 0.42 0.42 0.42 0.40 0.37 0.34 0.32 0.29 0.28 0.30 0.32 0.36 0.38
0.12 0.08 0.05 0.03 0.03 0.03 0.03 0.04 0.12 0.32 0.46 0.55 0.37 0.43 0.65 0.59 0.65 0.67 0.44 0.25 0.18 0.16 0.18 0.21 0.22 0.18 0.16 0.14 0.13 0.12 0.14 0.23 0.27 0.29 0.32 0.32 0.32 0.31 0.29 0.25 0.25 0.26 0.26 0.31
0.13 0.13 0.04 0.02 0.04 0.04 0.04 0.03 0.06 0.09 0.15 0.25 0.32 0.72 0.74 0.47 0.49 0.40 0.21 0.11 0.09 0.09 0.09 0.11 0.11 0.10 0.09 0.08 0.07 0.06 0.06 0.08 0.09 0.13 0.17 0.19 0.22 0.23 0.25 0.31 0.29 0.25 0.24 0.27
0.04 0.03 0.02 0.02 0.03 0.04 0.04 0.03 0.03 0.03 0.05 0.14 0.35 0.64 0.52 0.31 0.32 0.20 0.11 0.05 0.04 0.05 0.05 0.05 0.05 0.05 0.04 0.04 0.04 0.04 0.04 0.04 0.05 0.05 0.08 0.10 0.14 0.18 0.24 0.30 0.28 0.24 0.24 0.23
0.01 0.01 0.01 0.02 0.02 0.03 0.03 0.03 0.03 0.03 0.04 0.07 0.22 0.49 0.52 0.38 0.31 0.17 0.08 0.04 0.03 0.03 0.03 0.03 0.03 0.03 0.03 0.02 0.02 0.02 0.03 0.03 0.03 0.03 0.03 0.05 0.11 0.19 0.26 0.30 0.26 0.23 0.21 0.20
0.00 0.00 0.01 0.02 0.03 0.03 0.04 0.04 0.04 0.04 0.05 0.06 0.11 0.25 0.24 0.25 0.20 0.11 0.06 0.04 0.01 0.01 0.01 0.01 0.01 0.01 0.01 0.01 0.01 0.02 0.02 0.02 0.02 0.02 0.03 0.07 0.16 0.21 0.27 0.42 0.40 0.25 0.19 0.17
0.00 0.00 0.02 0.03 0.05 0.04 0.05 0.05 0.04 0.05 0.05 0.04 0.06 0.14 0.10 0.11 0.09 0.06 0.04 0.02 0.01 0.01 0.00 0.00 0.00 0.01 0.01 0.01 0.01 0.01 0.02 0.02 0.02 0.02 0.02 0.05 0.15 0.20 0.23 0.30 0.33 0.26 0.21 0.18
0.00 0.00 0.02 0.08 0.11 0.07 0.05 0.04 0.04 0.05 0.04 0.03 0.11 0.18 0.08 0.05 0.04 0.03 0.02 0.01 0.00 0.00 0.00 0.00 0.00 0.00 0.01 0.01 0.01 0.01 0.01 0.01 0.01 0.02 0.03 0.05 0.07 0.08 0.10 0.12 0.16 0.20 0.22 0.24
0.00 0.01 0.01 0.04 0.04 0.04 0.04 0.05 0.08 0.06 0.06 0.07 0.11 0.17 0.07 0.03 0.01 0.01 0.00 0.00 0.00 0.00 0.00 0.00 0.00 0.00 0.00 0.00 0.00 0.01 0.01 0.01 0.01 0.02 0.03 0.04 0.05 0.04 0.05 0.07 0.12 0.17 0.21 0.22
0.00 0.00 0.00 0.01 0.02 0.04 0.05 0.06 0.07 0.05 0.06 0.10 0.08 0.08 0.04 0.01 0.01 0.01 0.00 0.00 0.00 0.00 0.01 0.01 0.01 0.01 0.01 0.01 0.01 0.01 0.01 0.02 0.02 0.04 0.09 0.09 0.07 0.06 0.06 0.08 0.10 0.12 0.13 0.13
0.00 0.00 0.00 0.00 0.03 0.03 0.05 0.08 0.06 0.03 0.02 0.03 0.03 0.03 0.01 0.02 0.02 0.02 0.02 0.02 0.02 0.02 0.02 0.02 0.02 0.02 0.01 0.01 0.02 0.01 0.02 0.02 0.04 0.08 0.14 0.17 0.14 0.08 0.06 0.06 0.08 0.10 0.11 0.13
0.00 0.00 0.00 0.01 0.02 0.03 0.11 0.09 0.04 0.02 0.02 0.03 0.04 0.05 0.04 0.05 0.05 0.07 0.07 0.06 0.05 0.04 0.03 0.02 0.01 0.01 0.01 0.01 0.01 0.02 0.02 0.03 0.10 0.13 0.11 0.18 0.20 0.10 0.06 0.07 0.09 0.12 0.14 0.17
0.00 0.00 0.00 0.01 0.01 0.09 0.09 0.04 0.02 0.02 0.03 0.04 0.05 0.06 0.08 0.09 0.09 0.09 0.10 0.08 0.04 0.02 0.01 0.00 0.00 0.00 0.00 0.00 0.01 0.02 0.05 0.05 0.13 0.16 0.13 0.19 0.21 0.13 0.13 0.15 0.17 0.19 0.23 0.26
0.00 0.00 0.01 0.01 0.01 0.06 0.05 0.04 0.03 0.05 0.05 0.06 0.08 0.11 0.11 0.09 0.06 0.04 0.03 0.02 0.01 0.00 0.00 0.00 0.00 0.00 0.00 0.01 0.01 0.03 0.08 0.11 0.12 0.15 0.14 0.21 0.28 0.24 0.24 0.26 0.29 0.33 0.37 0.38
0.00 0.00 0.01 0.01 0.03 0.07 0.06 0.05 0.07 0.08 0.14 0.12 0.09 0.07 0.04 0.02 0.03 0.01 0.00 0.00 0.00 0.00 0.00 0.00 0.00 0.00 0.01 0.02 0.04 0.05 0.08 0.13 0.15 0.16 0.18 0.24 0.37 0.42 0.40 0.39 0.42 0.44 0.51 0.54
0.00 0.01 0.01 0.03 0.05 0.08 0.05 0.04 0.06 0.12 0.15 0.05 0.02 0.02 0.02 0.02 0.03 0.01 0.00 0.01 0.01 0.00 0.00 0.01 0.01 0.01 0.03 0.05 0.08 0.12 0.14 0.16 0.18 0.20 0.24 0.30 0.44 0.58 0.56 0.56 0.56 0.58 0.60 0.67
0.00 0.01 0.01 0.03 0.09 0.13 0.03 0.02 0.05 0.06 0.04 0.02 0.02 0.02 0.02 0.02 0.01 0.01 0.01 0.01 0.01 0.01 0.01 0.02 0.03 0.05 0.06 0.10 0.17 0.22 0.23 0.23 0.26 0.28 0.32 0.37 0.51 0.55 0.59 0.67 0.72 0.80 0.83 0.84
0.00 0.01 0.02 0.04 0.07 0.03 0.00 0.01 0.02 0.02 0.02 0.02 0.02 0.02 0.02 0.02 0.02 0.02 0.03 0.02 0.02 0.01 0.02 0.03 0.05 0.08 0.12 0.17 0.27 0.36 0.37 0.38 0.39 0.38 0.39 0.44 0.52 0.65 0.80 0.85 0.82 0.87 0.96 1.00
0.00 0.00 0.01 0.03 0.02 0.01 0.01 0.01 0.02 0.01 0.02 0.02 0.01 0.01 0.01 0.03 0.04 0.05 0.05 0.04 0.03 0.03 0.03 0.04 0.07 0.12 0.17 0.25 0.37 0.47 0.49 0.51 0.50 0.45 0.43 0.48 0.57 0.67 0.81 0.96 0.99 1.04 1.07 1.07
0.00 0.00 0.01 0.02 0.01 0.00 0.01 0.01 0.01 0.01 0.01 0.01 0.00 0.01 0.02 0.04 0.05 0.06 0.06 0.06 0.05 0.04 0.04 0.06 0.11 0.16 0.20 0.30 0.45 0.53 0.57 0.60 0.58 0.52 0.47 0.48 0.55 0.65 0.74 0.86 0.98 1.01 1.03 0.97
0.00 0.00 0.00 0.01 0.00 0.00 0.01 0.00 0.00 0.00 0.01 0.01 0.01 0.01 0.02 0.03 0.04 0.04 0.05 0.04 0.04 0.04 0.07 0.11 0.15 0.21 0.25 0.31 0.42 0.52 0.65 0.77 0.79 0.70 0.60 0.54 0.54 0.62 0.69 0.79 0.82 0.74 0.73 0.70

GEFSCGP_prec_meanprecacc_066.txt.gz
Total_Precipitation_Accumulation
0.00 0.00 0.01 0.01 0.01 0.02 0.04 0.05 0.10 0.12 0.09 0.09 0.19 0.27 0.30 0.31 0.35 0.33 0.31 0.29 0.26 0.34 0.51 0.72 1.03 1.37 1.71 2.07 2.54 2.73 2.68 2.24 1.78 1.58 1.39 1.30 1.20 1.16 1.21 1.22 1.18 1.13 1.03 1.01
0.02 0.03 0.02 0.02 0.02 0.03 0.07 0.07 0.12 0.14 0.09 0.09 0.20 0.42 0.51 0.53 0.40 0.33 0.27 0.32 0.33 0.45 0.69 1.06 1.50 1.72 1.68 1.93 2.42 2.46 2.01 1.56 1.27 1.12 1.00 0.90 0.88 0.87 0.85 0.83 0.81 0.80 0.81 0.86
0.04 0.05 0.02 0.02 0.04 0.09 0.10 0.10 0.13 0.13 0.10 0.14 0.25 0.47 0.69 0.63 0.41 0.29 0.24 0.25 0.34 0.54 0.84 1.17 1.51 1.61 1.50 1.71 1.75 1.46 1.16 0.90 0.71 0.61 0.57 0.60 0.57 0.57 0.51 0.46 0.46 0.52 0.58 0.59
0.03 0.03 0.02 0.03 0.04 0.05 0.06 0.05 0.05 0.05 0.07 0.16 0.29 0.57 0.86 0.74 0.50 0.37 0.30 0.33 0.36 0.39 0.53 0.75 0.95 1.07 1.14 1.15 1.00 0.82 0.71 0.59 0.53 0.53 0.47 0.53 0.47 0.43 0.38 0.34 0.34 0.39 0.42 0.42
0.03 0.02 0.02 0.03 0.03 0.03 0.04 0.03 0.03 0.05 0.06 0.11 0.28 0.53 0.81 0.86 0.73 0.55 0.43 0.40 0.33 0.26 0.30 0.41 0.46 0.53 0.60 0.62 0.57 0.47 0.54 0.60 0.56 0.52 0.46 0.42 0.36 0.31 0.28 0.31 0.34 0.39 0.41 0.41
0.05 0.04 0.03 0.02 0.02 0.03 0.03 0.04 0.07 0.12 0.15 0.32 0.35 0.43 0.69 0.72 0.70 0.63 0.48 0.34 0.25 0.22 0.26 0.30 0.28 0.25 0.25 0.26 0.26 0.26 0.33 0.42 0.42 0.42 0.40 0.37 0.34 0.32 0.29 0.28 0.30 0.32 0.36 0.38
0.12 0.09 0.06 0.03 0.03 0.03 0.04 0.05 0.13 0.33 0.46 0.55 0.37 0.43 0.65 0.59 0.65 0.68 0.45 0.25 0.18 0.17 0.18 0.21 0.22 0.18 0.16 0.14 0.13 0.12 0.14 0.23 0.27 0.29 0.32 0.32 0.32 0.31 0.29 0.25 0.25 0.26 0.26 0.31
0.13 0.13 0.05 0.03 0.04 0.04 0.04 0.04 0.06 0.09 0.15 0.25 0.33 0.72 0.75 0.47 0.49 0.40 0.21 0.11 0.09 0.09 0.09 0.11 0.11 0.10 0.09 0.08 0.07 0.06 0.06 0.08 0.09 0.13 0.17 0.19 0.22 0.23 0.25 0.31 0.29 0.25 0.24 0.27
0.04 0.03 0.02 0.03 0.04 0.05 0.04 0.03 0.03 0.04 0.05 0.14 0.35 0.64 0.52 0.31 0.32 0.20 0.11 0.05 0.04 0.05 0.05 0.05 0.05 0.05 0.04 0.04 0.04 0.04 0.04 0.04 0.05 0.05 0.08 0.10 0.14 0.18 0.24 0.30 0.28 0.24 0.24 0.23
0.01 0.01 0.01 0.02 0.03 0.04 0.04 0.03 0.03 0.03 0.04 0.07 0.22 0.49 0.52 0.38 0.31 0.17 0.08 0.04 0.03 0.03 0.03 0.03 0.03 0.03 0.03 0.02 0.02 0.02 0.03 0.03 0.03 0.03 0.03 0.05 0.11 0.19 0.26 0.30 0.26 0.23 0.21 0.20
0.01 0.01 0.01 0.02 0.03 0.04 0.04 0.04 0.04 0.04 0.05 0.06 0.11 0.25 0.24 0.25 0.20 0.11 0.06 0.04 0.01 0.01 0.01 0.01 0.01 0.01 0.01 0.01 0.01 0.02 0.02 0.02 0.02 0.02 0.03 0.07 0.16 0.21 0.27 0.42 0.40 0.25 0.19 0.17
0.00 0.00 0.02 0.04 0.05 0.05 0.05 0.05 0.04 0.05 0.05 0.04 0.06 0.14 0.10 0.11 0.09 0.06 0.04 0.02 0.01 0.01 0.00 0.00 0.00 0.01 0.01 0.01 0.01 0.01 0.02 0.02 0.02 0.02 0.02 0.05 0.15 0.20 0.23 0.30 0.33 0.26 0.21 0.18
0.00 0.00 0.02 0.08 0.12 0.07 0.05 0.04 0.04 0.05 0.04 0.03 0.11 0.18 0.08 0.05 0.04 0.03 0.02 0.01 0.00 0.00 0.00 0.00 0.00 0.00 0.01 0.01 0.01 0.01 0.01 0.01 0.01 0.02 0.03 0.05 0.07 0.08 0.10 0.12 0.16 0.20 0.22 0.24
0.01 0.01 0.01 0.04 0.05 0.04 0.05 0.05 0.08 0.06 0.06 0.07 0.11 0.17 0.07 0.03 0.01 0.01 0.00 0.00 0.00 0.00 0.00 0.00 0.00 0.00 0.00 0.00 0.00 0.01 0.01 0.01 0.01 0.02 0.03 0.04 0.05 0.04 0.05 0.07 0.12 0.17 0.21 0.22
0.01 0.00 0.00 0.01 0.03 0.04 0.05 0.06 0.07 0.05 0.06 0.10 0.08 0.08 0.04 0.01 0.01 0.01 0.00 0.00 0.00 0.00 0.01 0.01 0.01 0.01 0.01 0.01 0.01 0.01 0.01 0.02 0.02 0.04 0.09 0.09 0.07 0.06 0.06 0.08 0.10 0.12 0.13 0.13
0.01 0.00 0.00 0.00 0.03 0.03 0.05 0.08 0.06 0.03 0.02 0.03 0.03 0.03 0.01 0.02 0.02 0.02 0.02 0.02 0.02 0.02 0.02 0.02 0.02 0.02 0.01 0.01 0.02 0.01 0.02 0.02 0.04 0.08 0.14 0.17 0.14 0.08 0.06 0.06 0.08 0.10 0.11 0.13
0.00 0.00 0.01 0.01 0.02 0.03 0.12 0.10 0.04 0.02 0.02 0.03 0.04 0.05 0.04 0.05 0.05 0.07 0.07 0.06 0.05 0.04 0.03 0.02 0.01 0.01 0.01 0.01 0.01 0.02 0.02 0.03 0.10 0.13 0.11 0.18 0.20 0.10 0.06 0.07 0.09 0.12 0.14 0.17
0.01 0.01 0.01 0.01 0.02 0.09 0.10 0.04 0.02 0.02 0.03 0.04 0.05 0.06 0.08 0.09 0.09 0.09 0.10 0.08 0.04 0.02 0.01 0.00 0.00 0.00 0.00 0.00 0.01 0.02 0.05 0.05 0.13 0.16 0.13 0.19 0.21 0.13 0.13 0.15 0.17 0.19 0.23 0.26
0.02 0.01 0.01 0.01 0.01 0.06 0.05 0.04 0.04 0.05 0.05 0.06 0.08 0.11 0.11 0.09 0.06 0.04 0.03 0.02 0.01 0.00 0.00 0.00 0.00 0.00 0.00 0.01 0.01 0.03 0.08 0.11 0.12 0.15 0.14 0.21 0.28 0.24 0.24 0.26 0.29 0.33 0.37 0.38
0.02 0.02 0.02 0.01 0.04 0.07 0.06 0.06 0.07 0.08 0.14 0.12 0.09 0.07 0.04 0.02 0.03 0.01 0.00 0.00 0.00 0.00 0.00 0.00 0.00 0.00 0.01 0.02 0.04 0.05 0.08 0.13 0.15 0.16 0.18 0.24 0.37 0.42 0.40 0.39 0.42 0.44 0.51 0.54
0.01 0.01 0.02 0.03 0.06 0.08 0.06 0.05 0.06 0.12 0.15 0.05 0.02 0.02 0.02 0.02 0.03 0.01 0.00 0.01 0.01 0.00 0.00 0.01 0.01 0.01 0.03 0.05 0.08 0.12 0.14 0.16 0.18 0.20 0.24 0.30 0.44 0.58 0.56 0.56 0.56 0.58 0.60 0.67
0.01 0.01 0.01 0.04 0.10 0.13 0.03 0.02 0.05 0.06 0.04 0.02 0.02 0.02 0.02 0.02 0.01 0.01 0.01 0.01 0.01 0.01 0.01 0.02 0.03 0.05 0.06 0.10 0.17 0.22 0.23 0.23 0.26 0.28 0.32 0.37 0.51 0.55 0.59 0.67 0.72 0.80 0.83 0.84
0.00 0.01 0.02 0.04 0.07 0.03 0.00 0.01 0.02 0.02 0.02 0.02 0.02 0.02 0.02 0.02 0.02 0.02 0.03 0.02 0.02 0.01 0.02 0.03 0.05 0.08 0.12 0.17 0.27 0.36 0.37 0.38 0.39 0.38 0.39 0.44 0.52 0.65 0.80 0.85 0.82 0.88 0.96 1.00
0.00 0.00 0.01 0.04 0.02 0.01 0.01 0.01 0.02 0.01 0.02 0.02 0.01 0.01 0.01 0.03 0.04 0.05 0.05 0.04 0.03 0.03 0.03 0.04 0.07 0.12 0.17 0.25 0.37 0.47 0.49 0.51 0.50 0.45 0.43 0.48 0.57 0.67 0.81 0.96 0.99 1.04 1.07 1.07
0.00 0.00 0.01 0.03 0.01 0.00 0.01 0.01 0.01 0.01 0.01 0.01 0.00 0.01 0.02 0.04 0.05 0.06 0.06 0.06 0.05 0.04 0.04 0.06 0.11 0.16 0.20 0.30 0.45 0.53 0.57 0.60 0.58 0.52 0.47 0.48 0.55 0.65 0.74 0.87 0.98 1.01 1.03 0.97
0.00 0.00 0.01 0.01 0.00 0.00 0.01 0.00 0.00 0.00 0.01 0.01 0.01 0.01 0.02 0.03 0.04 0.04 0.05 0.04 0.04 0.04 0.07 0.11 0.15 0.21 0.25 0.31 0.42 0.52 0.65 0.77 0.79 0.70 0.60 0.54 0.54 0.62 0.69 0.79 0.82 0.74 0.73 0.71

GEFSCGP_prec_meanprecacc_072.txt.gz
Total_Precipitation_Accumulation
0.00 0.00 0.01 0.01 0.01 0.03 0.04 0.05 0.10 0.12 0.09 0.10 0.22 0.32 0.36 0.35 0.41 0.38 0.34 0.32 0.30 0.38 0.55 0.76 1.06 1.39 1.73 2.11 2.58 2.78 2.73 2.27 1.79 1.60 1.41 1.31 1.20 1.17 1.22 1.23 1.18 1.13 1.04 1.03
0.02 0.03 0.02 0.02 0.02 0.04 0.07 0.08 0.13 0.15 0.09 0.09 0.22 0.45 0.56 0.58 0.46 0.40 0.33 0.36 0.36 0.49 0.73 1.10 1.52 1.74 1.70 1.97 2.46 2.50 2.04 1.57 1.28 1.13 1.01 0.90 0.88 0.87 0.86 0.83 0.81 0.80 0.82 0.86
0.04 0.05 0.02 0.02 0.04 0.09 0.10 0.10 0.13 0.13 0.11 0.15 0.27 0.51 0.73 0.67 0.43 0.32 0.28 0.29 0.36 0.56 0.86 1.19 1.54 1.62 1.51 1.73 1.77 1.47 1.17 0.91 0.72 0.62 0.57 0.60 0.58 0.57 0.52 0.46 0.46 0.52 0.58 0.59
0.03 0.03 0.02 0.03 0.05 0.06 0.06 0.06 0.06 0.05 0.08 0.17 0.31 0.60 0.88 0.77 0.52 0.39 0.33 0.35 0.37 0.40 0.53 0.77 0.96 1.08 1.15 1.16 1.00 0.82 0.71 0.60 0.54 0.54 0.48 0.53 0.48 0.43 0.39 0.34 0.34 0.39 0.42 0.42
0.03 0.03 0.02 0.03 0.03 0.04 0.04 0.03 0.04 0.05 0.06 0.12 0.28 0.54 0.82 0.87 0.75 0.57 0.45 0.42 0.34 0.27 0.31 0.42 0.47 0.53 0.60 0.62 0.57 0.47 0.55 0.61 0.56 0.53 0.47 0.43 0.37 0.32 0.29 0.31 0.34 0.39 0.42 0.41
0.05 0.04 0.03 0.02 0.02 0.03 0.03 0.04 0.07 0.12 0.15 0.33 0.36 0.44 0.70 0.72 0.71 0.64 0.49 0.35 0.25 0.22 0.26 0.30 0.29 0.25 0.25 0.27 0.27 0.27 0.34 0.44 0.43 0.42 0.41 0.38 0.35 0.33 0.30 0.29 0.30 0.32 0.36 0.38
0.12 0.09 0.06 0.03 0.03 0.04 0.04 0.05 0.14 0.33 0.47 0.56 0.37 0.43 0.66 0.59 0.65 0.68 0.45 0.25 0.18 0.17 0.18 0.21 0.22 0.18 0.16 0.15 0.14 0.13 0.15 0.25 0.28 0.29 0.33 0.32 0.32 0.31 0.29 0.26 0.25 0.26 0.26 0.31
0.13 0.13 0.05 0.03 0.04 0.04 0.04 0.04 0.07 0.10 0.15 0.26 0.33 0.72 0.75 0.47 0.49 0.40 0.21 0.11 0.09 0.09 0.09 0.11 0.11 0.11 0.09 0.08 0.07 0.06 0.06 0.08 0.10 0.13 0.18 0.19 0.22 0.24 0.25 0.31 0.29 0.25 0.24 0.27
0.04 0.03 0.02 0.03 0.04 0.05 0.04 0.03 0.03 0.04 0.05 0.14 0.35 0.64 0.52 0.31 0.32 0.20 0.11 0.05 0.04 0.05 0.05 0.05 0.05 0.05 0.04 0.04 0.04 0.04 0.04 0.04 0.05 0.05 0.08 0.10 0.14 0.18 0.24 0.30 0.28 0.24 0.24 0.23
0.01 0.01 0.01 0.03 0.03 0.04 0.04 0.03 0.03 0.03 0.04 0.07 0.22 0.49 0.52 0.38 0.31 0.17 0.08 0.04 0.03 0.03 0.03 0.03 0.03 0.03 0.03 0.02 0.02 0.02 0.03 0.03 0.03 0.03 0.03 0.05 0.11 0.19 0.26 0.30 0.26 0.23 0.21 0.20
0.01 0.01 0.01 0.02 0.03 0.04 0.05 0.04 0.04 0.04 0.05 0.06 0.11 0.25 0.24 0.25 0.20 0.11 0.06 0.04 0.01 0.01 0.01 0.01 0.01 0.01 0.01 0.01 0.01 0.02 0.02 0.02 0.02 0.02 0.03 0.07 0.16 0.21 0.27 0.42 0.40 0.25 0.19 0.17
0.00 0.01 0.02 0.04 0.05 0.05 0.05 0.05 0.04 0.05 0.05 0.04 0.06 0.14 0.10 0.11 0.09 0.06 0.04 0.02 0.01 0.01 0.00 0.00 0.00 0.01 0.01 0.01 0.01 0.01 0.02 0.02 0.02 0.02 0.02 0.05 0.15 0.20 0.23 0.30 0.33 0.26 0.21 0.18
0.00 0.00 0.02 0.08 0.12 0.07 0.05 0.04 0.04 0.05 0.04 0.03 0.11 0.18 0.08 0.05 0.04 0.03 0.02 0.01 0.00 0.00 0.00 0.00 0.00 0.00 0.01 0.01 0.01 0.01 0.01 0.01 0.01 0.02 0.03 0.05 0.07 0.08 0.10 0.12 0.16 0.20 0.22 0.24
0.01 0.01 0.01 0.04 0.05 0.04 0.05 0.06 0.08 0.06 0.06 0.07 0.11 0.17 0.07 0.03 0.01 0.01 0.00 0.00 0.00 0.00 0.00 0.00 0.00 0.00 0.00 0.00 0.00 0.01 0.01 0.01 0.01 0.02 0.03 0.04 0.05 0.04 0.05 0.07 0.12 0.17 0.21 0.22
0.01 0.00 0.00 0.01 0.03 0.04 0.05 0.06 0.07 0.05 0.06 0.10 0.08 0.08 0.04 0.01 0.01 0.01 0.00 0.00 0.00 0.00 0.01 0.01 0.01 0.01 0.01 0.01 0.01 0.01 0.01 0.02 0.02 0.04 0.09 0.09 0.07 0.06 0.06 0.08 0.10 0.12 0.13 0.13
0.01 0.00 0.00 0.00 0.03 0.03 0.05 0.08 0.06 0.03 0.02 0.03 0.03 0.03 0.01 0.02 0.02 0.02 0.02 0.02 0.02 0.02 0.02 0.02 0.02 0.02 0.01 0.01 0.02 0.01 0.02 0.02 0.04 0.08 0.14 0.17 0.14 0.08 0.06 0.06 0.08 0.10 0.11 0.13
0.00 0.00 0.01 0.01 0.03 0.03 0.12 0.10 0.04 0.02 0.02 0.03 0.04 0.05 0.04 0.05 0.05 0.07 0.07 0.06 0.05 0.04 0.03 0.02 0.01 0.01 0.01 0.01 0.01 0.02 0.02 0.03 0.10 0.13 0.11 0.18 0.20 0.10 0.06 0.07 0.09 0.12 0.14 0.17
0.01 0.01 0.01 0.01 0.02 0.09 0.10 0.04 0.02 0.02 0.03 0.04 0.05 0.06 0.08 0.09 0.09 0.09 0.10 0.08 0.04 0.02 0.01 0.00 0.00 0.00 0.00 0.00 0.01 0.02 0.05 0.05 0.13 0.16 0.13 0.19 0.21 0.13 0.13 0.15 0.17 0.19 0.23 0.27
0.03 0.02 0.02 0.01 0.02 0.06 0.05 0.04 0.04 0.05 0.05 0.06 0.08 0.11 0.11 0.09 0.06 0.04 0.03 0.02 0.01 0.00 0.00 0.00 0.00 0.00 0.00 0.01 0.01 0.03 0.08 0.11 0.12 0.15 0.14 0.21 0.28 0.24 0.24 0.26 0.29 0.33 0.37 0.39
0.03 0.03 0.03 0.02 0.05 0.08 0.07 0.06 0.07 0.08 0.14 0.12 0.09 0.07 0.04 0.02 0.03 0.01 0.00 0.00 0.00 0.00 0.00 0.00 0.00 0.00 0.01 0.02 0.04 0.05 0.08 0.13 0.15 0.16 0.18 0.24 0.37 0.42 0.40 0.39 0.42 0.44 0.52 0.54
0.02 0.02 0.03 0.04 0.07 0.08 0.06 0.05 0.06 0.12 0.15 0.05 0.02 0.02 0.02 0.02 0.03 0.01 0.00 0.01 0.01 0.00 0.00 0.01 0.01 0.01 0.03 0.05 0.08 0.12 0.14 0.16 0.18 0.20 0.24 0.30 0.44 0.58 0.56 0.56 0.56 0.58 0.61 0.67
0.01 0.02 0.02 0.05 0.12 0.13 0.04 0.03 0.05 0.06 0.04 0.02 0.02 0.02 0.02 0.02 0.01 0.01 0.01 0.01 0.01 0.01 0.01 0.02 0.03 0.05 0.06 0.10 0.17 0.22 0.23 0.23 0.26 0.28 0.32 0.37 0.51 0.55 0.59 0.67 0.72 0.80 0.83 0.85
0.01 0.01 0.03 0.05 0.08 0.03 0.01 0.01 0.02 0.02 0.02 0.02 0.02 0.02 0.02 0.02 0.02 0.02 0.03 0.02 0.02 0.01 0.02 0.03 0.05 0.08 0.12 0.17 0.27 0.36 0.37 0.38 0.39 0.38 0.39 0.44 0.52 0.65 0.80 0.85 0.82 0.88 0.96 1.01
0.00 0.01 0.01 0.04 0.02 0.01 0.01 0.02 0.02 0.02 0.02 0.02 0.01 0.01 0.01 0.03 0.04 0.05 0.05 0.04 0.03 0.03 0.03 0.04 0.07 0.12 0.17 0.25 0.37 0.47 0.49 0.51 0.50 0.45 0.43 0.48 0.57 0.67 0.81 0.96 0.99 1.04 1.07 1.08
0.00 0.00 0.01 0.03 0.01 0.01 0.01 0.02 0.02 0.01 0.01 0.01 0.01 0.01 0.02 0.04 0.06 0.06 0.06 0.06 0.05 0.04 0.04 0.06 0.11 0.16 0.20 0.30 0.45 0.53 0.57 0.60 0.58 0.52 0.47 0.48 0.55 0.65 0.74 0.87 0.99 1.02 1.04 0.98
0.00 0.00 0.01 0.01 0.01 0.00 0.01 0.01 0.01 0.01 0.01 0.01 0.01 0.01 0.02 0.04 0.05 0.05 0.05 0.05 0.04 0.04 0.07 0.11 0.15 0.21 0.25 0.31 0.42 0.52 0.65 0.77 0.79 0.70 0.60 0.54 0.54 0.62 0.69 0.79 0.83 0.74 0.73 0.71

GEFSCGP_prec_meanprecacc_078.txt.gz
Total_Precipitation_Accumulation
0.00 0.01 0.01 0.02 0.01 0.03 0.04 0.06 0.13 0.17 0.12 0.11 0.25 0.42 0.50 0.46 0.50 0.48 0.47 0.40 0.35 0.45 0.61 0.82 1.11 1.43 1.79 2.16 2.62 2.81 2.76 2.29 1.81 1.62 1.44 1.34 1.22 1.18 1.24 1.24 1.19 1.15 1.05 1.04
0.02 0.04 0.03 0.02 0.02 0.04 0.08 0.09 0.16 0.17 0.10 0.10 0.24 0.50 0.63 0.64 0.52 0.47 0.44 0.47 0.43 0.57 0.82 1.16 1.56 1.76 1.72 1.99 2.49 2.53 2.05 1.58 1.30 1.15 1.03 0.92 0.89 0.88 0.87 0.84 0.82 0.81 0.82 0.87
0.04 0.05 0.02 0.02 0.04 0.09 0.11 0.12 0.15 0.13 0.11 0.16 0.30 0.60 0.81 0.72 0.47 0.36 0.33 0.34 0.44 0.65 0.94 1.23 1.56 1.66 1.54 1.76 1.79 1.48 1.18 0.92 0.73 0.63 0.59 0.62 0.59 0.58 0.53 0.48 0.47 0.53 0.58 0.59
0.03 0.03 0.02 0.03 0.05 0.06 0.07 0.06 0.06 0.05 0.10 0.22 0.34 0.77 1.03 0.84 0.57 0.43 0.36 0.38 0.41 0.45 0.56 0.78 0.98 1.09 1.16 1.17 1.01 0.83 0.72 0.60 0.55 0.55 0.50 0.55 0.50 0.45 0.41 0.35 0.36 0.40 0.42 0.42
0.03 0.03 0.02 0.03 0.04 0.04 0.04 0.03 0.04 0.06 0.08 0.16 0.33 0.60 0.90 0.93 0.80 0.61 0.48 0.44 0.35 0.29 0.32 0.43 0.48 0.54 0.61 0.62 0.57 0.48 0.56 0.63 0.58 0.55 0.49 0.45 0.38 0.33 0.29 0.32 0.36 0.41 0.42 0.41
0.05 0.04 0.03 0.02 0.02 0.03 0.03 0.04 0.10 0.19 0.25 0.43 0.40 0.47 0.76 0.77 0.74 0.67 0.50 0.36 0.26 0.22 0.26 0.31 0.29 0.26 0.26 0.27 0.27 0.27 0.37 0.47 0.45 0.44 0.42 0.40 0.37 0.35 0.31 0.30 0.31 0.33 0.36 0.38
0.13 0.10 0.06 0.03 0.03 0.04 0.04 0.07 0.25 0.52 0.68 0.68 0.40 0.44 0.68 0.61 0.66 0.68 0.45 0.25 0.18 0.17 0.18 0.22 0.22 0.18 0.16 0.15 0.14 0.13 0.18 0.27 0.29 0.31 0.34 0.34 0.34 0.32 0.30 0.26 0.25 0.26 0.26 0.31
0.13 0.15 0.07 0.03 0.04 0.04 0.05 0.05 0.12 0.17 0.24 0.31 0.34 0.72 0.75 0.47 0.49 0.40 0.21 0.11 0.09 0.09 0.09 0.11 0.11 0.11 0.09 0.08 0.07 0.06 0.06 0.09 0.10 0.13 0.18 0.19 0.23 0.24 0.25 0.32 0.30 0.25 0.24 0.27
0.05 0.05 0.03 0.03 0.04 0.05 0.04 0.03 0.03 0.04 0.06 0.17 0.37 0.64 0.53 0.31 0.32 0.20 0.11 0.05 0.04 0.05 0.05 0.05 0.05 0.05 0.04 0.04 0.04 0.04 0.04 0.05 0.05 0.05 0.08 0.10 0.14 0.18 0.24 0.30 0.29 0.25 0.24 0.23
0.01 0.01 0.02 0.03 0.03 0.04 0.04 0.03 0.03 0.03 0.05 0.09 0.25 0.51 0.53 0.38 0.31 0.17 0.08 0.04 0.03 0.03 0.03 0.03 0.03 0.03 0.03 0.02 0.02 0.03 0.03 0.03 0.03 0.03 0.03 0.06 0.11 0.19 0.26 0.30 0.26 0.23 0.21 0.20
0.01 0.01 0.02 0.02 0.04 0.04 0.05 0.04 0.04 0.04 0.05 0.06 0.16 0.30 0.25 0.25 0.20 0.11 0.06 0.04 0.01 0.01 0.01 0.01 0.01 0.01 0.01 0.01 0.02 0.02 0.02 0.02 0.02 0.02 0.03 0.07 0.17 0.21 0.27 0.42 0.40 0.25 0.19 0.18
0.00 0.01 0.02 0.04 0.06 0.05 0.05 0.05 0.04 0.05 0.05 0.04 0.07 0.16 0.11 0.11 0.09 0.06 0.04 0.02 0.01 0.01 0.00 0.00 0.00 0.01 0.01 0.01 0.01 0.01 0.02 0.02 0.02 0.02 0.02 0.05 0.15 0.20 0.23 0.31 0.34 0.26 0.21 0.18
0.00 0.00 0.02 0.13 0.20 0.12 0.06 0.04 0.04 0.05 0.04 0.03 0.12 0.19 0.09 0.05 0.04 0.03 0.02 0.01 0.00 0.00 0.00 0.00 0.00 0.00 0.01 0.01 0.01 0.01 0.01 0.01 0.01 0.02 0.03 0.05 0.07 0.08 0.10 0.12 0.16 0.20 0.23 0.24
0.01 0.01 0.01 0.09 0.14 0.11 0.07 0.06 0.08 0.06 0.06 0.08 0.12 0.18 0.07 0.03 0.01 0.01 0.00 0.00 0.00 0.00 0.00 0.00 0.00 0.00 0.00 0.00 0.00 0.01 0.01 0.01 0.01 0.02 0.03 0.04 0.05 0.04 0.05 0.08 0.12 0.18 0.21 0.23
0.01 0.00 0.00 0.01 0.03 0.05 0.06 0.07 0.07 0.05 0.06 0.10 0.09 0.09 0.04 0.01 0.01 0.01 0.00 0.00 0.00 0.00 0.01 0.01 0.01 0.01 0.01 0.01 0.01 0.01 0.01 0.02 0.02 0.04 0.09 0.09 0.07 0.06 0.06 0.08 0.10 0.13 0.14 0.14
0.01 0.00 0.00 0.00 0.03 0.03 0.05 0.08 0.06 0.03 0.02 0.03 0.03 0.03 0.01 0.02 0.02 0.02 0.02 0.02 0.02 0.02 0.02 0.02 0.02 0.02 0.01 0.01 0.02 0.01 0.02 0.02 0.04 0.08 0.14 0.17 0.14 0.08 0.06 0.06 0.08 0.10 0.11 0.14
0.03 0.03 0.02 0.02 0.03 0.03 0.12 0.10 0.04 0.02 0.02 0.03 0.04 0.05 0.04 0.05 0.05 0.07 0.07 0.06 0.05 0.04 0.03 0.02 0.01 0.01 0.01 0.01 0.01 0.02 0.02 0.03 0.10 0.13 0.11 0.18 0.20 0.10 0.06 0.07 0.09 0.13 0.14 0.18
0.02 0.02 0.02 0.02 0.02 0.09 0.10 0.04 0.02 0.02 0.03 0.04 0.05 0.06 0.08 0.09 0.09 0.09 0.10 0.08 0.04 0.02 0.01 0.00 0.00 0.00 0.00 0.00 0.01 0.02 0.05 0.05 0.13 0.16 0.13 0.19 0.21 0.13 0.13 0.15 0.17 0.20 0.24 0.28
0.03 0.03 0.02 0.01 0.02 0.07 0.06 0.05 0.04 0.05 0.05 0.06 0.08 0.11 0.11 0.09 0.06 0.04 0.03 0.02 0.01 0.00 0.00 0.00 0.00 0.00 0.00 0.01 0.01 0.03 0.08 0.11 0.12 0.15 0.14 0.21 0.28 0.24 0.24 0.26 0.29 0.34 0.38 0.39
0.04 0.04 0.03 0.03 0.06 0.09 0.08 0.08 0.09 0.09 0.15 0.12 0.09 0.07 0.04 0.03 0.03 0.01 0.00 0.00 0.00 0.00 0.00 0.00 0.00 0.00 0.01 0.02 0.04 0.05 0.08 0.13 0.15 0.16 0.18 0.24 0.37 0.42 0.40 0.39 0.42 0.44 0.52 0.55
0.05 0.04 0.03 0.05 0.09 0.10 0.08 0.08 0.09 0.16 0.21 0.09 0.03 0.02 0.02 0.03 0.04 0.02 0.01 0.01 0.01 0.00 0.00 0.01 0.01 0.01 0.03 0.05 0.08 0.12 0.14 0.16 0.18 0.20 0.24 0.30 0.44 0.58 0.57 0.56 0.56 0.58 0.62 0.68
0.06 0.06 0.05 0.08 0.18 0.21 0.11 0.10 0.15 0.19 0.12 0.06 0.03 0.02 0.02 0.02 0.02 0.01 0.01 0.01 0.01 0.01 0.01 0.02 0.03 0.05 0.06 0.10 0.17 0.22 0.23 0.23 0.26 0.28 0.32 0.37 0.51 0.55 0.59 0.67 0.73 0.81 0.85 0.86
0.03 0.03 0.04 0.08 0.17 0.15 0.13 0.15 0.16 0.13 0.10 0.06 0.05 0.03 0.03 0.03 0.03 0.03 0.03 0.02 0.02 0.01 0.02 0.03 0.05 0.08 0.12 0.17 0.27 0.36 0.37 0.38 0.39 0.38 0.39 0.44 0.52 0.65 0.80 0.85 0.83 0.89 0.98 1.02
0.02 0.02 0.02 0.06 0.10 0.11 0.10 0.10 0.09 0.07 0.05 0.03 0.02 0.01 0.02 0.03 0.04 0.05 0.05 0.04 0.03 0.03 0.03 0.04 0.07 0.12 0.17 0.25 0.37 0.47 0.49 0.51 0.50 0.46 0.44 0.48 0.57 0.67 0.82 0.97 0.99 1.05 1.08 1.09
0.01 0.01 0.02 0.07 0.09 0.07 0.07 0.06 0.04 0.02 0.02 0.01 0.01 0.01 0.02 0.04 0.06 0.06 0.06 0.06 0.05 0.04 0.04 0.06 0.11 0.16 0.20 0.30 0.45 0.53 0.57 0.60 0.59 0.53 0.47 0.48 0.56 0.66 0.74 0.87 0.99 1.02 1.04 0.98
0.00 0.01 0.02 0.05 0.05 0.04 0.04 0.02 0.01 0.01 0.01 0.01 0.01 0.02 0.02 0.04 0.05 0.05 0.05 0.05 0.04 0.05 0.07 0.11 0.16 0.21 0.25 0.31 0.42 0.52 0.65 0.78 0.80 0.71 0.60 0.54 0.54 0.62 0.70 0.79 0.83 0.75 0.73 0.71

GEFSCGP_prec_meanprecacc_084.txt.gz
Total_Precipitation_Accumulation
0.00 0.01 0.01 0.02 0.01 0.03 0.05 0.08 0.16 0.20 0.14 0.15 0.29 0.46 0.57 0.62 0.80 0.86 0.78 0.69 0.64 0.78 0.90 1.03 1.28 1.53 1.86 2.21 2.66 2.85 2.80 2.32 1.83 1.63 1.44 1.34 1.22 1.18 1.24 1.24 1.19 1.15 1.05 1.04
0.02 0.04 0.03 0.02 0.03 0.04 0.08 0.11 0.18 0.19 0.12 0.14 0.30 0.55 0.69 0.72 0.68 0.72 0.65 0.65 0.63 0.87 1.08 1.34 1.74 1.88 1.78 2.03 2.51 2.54 2.06 1.59 1.30 1.15 1.04 0.92 0.89 0.88 0.87 0.84 0.82 0.81 0.82 0.87
0.04 0.05 0.03 0.03 0.05 0.10 0.11 0.13 0.16 0.15 0.13 0.19 0.35 0.65 0.86 0.79 0.55 0.48 0.50 0.50 0.58 0.84 1.15 1.36 1.67 1.71 1.57 1.77 1.79 1.48 1.18 0.92 0.73 0.63 0.59 0.62 0.59 0.59 0.53 0.48 0.48 0.53 0.58 0.59
0.03 0.03 0.03 0.03 0.06 0.06 0.08 0.07 0.06 0.06 0.12 0.25 0.38 0.83 1.10 0.91 0.64 0.52 0.49 0.52 0.54 0.55 0.66 0.86 1.03 1.12 1.18 1.18 1.01 0.83 0.73 0.61 0.55 0.55 0.50 0.56 0.50 0.45 0.41 0.35 0.36 0.40 0.42 0.42
0.03 0.03 0.03 0.04 0.04 0.04 0.04 0.04 0.04 0.07 0.11 0.23 0.39 0.66 0.96 0.98 0.85 0.70 0.58 0.53 0.45 0.37 0.36 0.45 0.51 0.56 0.62 0.63 0.58 0.49 0.56 0.63 0.59 0.55 0.49 0.45 0.38 0.33 0.30 0.32 0.36 0.41 0.42 0.41
0.05 0.05 0.04 0.03 0.03 0.04 0.04 0.05 0.11 0.22 0.31 0.51 0.46 0.52 0.81 0.80 0.77 0.73 0.57 0.42 0.32 0.27 0.29 0.32 0.31 0.27 0.26 0.27 0.27 0.28 0.37 0.48 0.45 0.44 0.42 0.40 0.37 0.35 0.31 0.30 0.31 0.33 0.36 0.38
0.14 0.12 0.09 0.04 0.04 0.05 0.05 0.08 0.28 0.58 0.76 0.78 0.45 0.48 0.70 0.62 0.66 0.70 0.49 0.28 0.22 0.21 0.21 0.23 0.24 0.20 0.17 0.15 0.14 0.14 0.18 0.28 0.30 0.31 0.35 0.34 0.34 0.32 0.30 0.26 0.25 0.26 0.26 0.31
0.15 0.18 0.10 0.04 0.05 0.05 0.05 0.06 0.14 0.21 0.30 0.40 0.43 0.82 0.79 0.47 0.49 0.41 0.22 0.12 0.11 0.19 0.16 0.13 0.13 0.12 0.10 0.08 0.07 0.06 0.07 0.09 0.11 0.14 0.18 0.20 0.23 0.24 0.25 0.32 0.30 0.25 0.24 0.27
0.06 0.06 0.04 0.03 0.04 0.05 0.04 0.04 0.04 0.06 0.10 0.27 0.51 0.77 0.56 0.32 0.32 0.20 0.11 0.05 0.05 0.06 0.08 0.06 0.06 0.05 0.05 0.04 0.04 0.04 0.04 0.05 0.06 0.06 0.08 0.10 0.14 0.18 0.24 0.30 0.29 0.25 0.24 0.23
0.03 0.02 0.02 0.03 0.04 0.05 0.04 0.04 0.03 0.04 0.07 0.17 0.36 0.62 0.58 0.38 0.31 0.17 0.08 0.04 0.03 0.03 0.03 0.03 0.03 0.03 0.03 0.02 0.02 0.03 0.03 0.03 0.03 0.03 0.03 0.06 0.11 0.19 0.26 0.30 0.26 0.23 0.21 0.20
0.02 0.01 0.02 0.03 0.05 0.06 0.06 0.06 0.05 0.05 0.07 0.09 0.22 0.36 0.28 0.26 0.20 0.12 0.06 0.04 0.02 0.01 0.01 0.01 0.01 0.01 0.01 0.01 0.02 0.02 0.02 0.02 0.02 0.02 0.03 0.07 0.17 0.21 0.27 0.42 0.40 0.25 0.19 0.18
0.02 0.01 0.03 0.06 0.08 0.07 0.07 0.06 0.05 0.06 0.07 0.06 0.10 0.18 0.12 0.14 0.10 0.07 0.05 0.02 0.01 0.01 0.00 0.00 0.00 0.01 0.01 0.01 0.01 0.01 0.02 0.02 0.02 0.02 0.02 0.05 0.15 0.20 0.23 0.31 0.34 0.26 0.21 0.18
0.01 0.01 0.03 0.14 0.23 0.14 0.07 0.05 0.05 0.06 0.05 0.05 0.15 0.22 0.11 0.07 0.05 0.03 0.02 0.01 0.00 0.00 0.00 0.00 0.00 0.01 0.01 0.01 0.01 0.01 0.01 0.01 0.01 0.02 0.03 0.05 0.07 0.08 0.10 0.12 0.16 0.20 0.23 0.24
0.02 0.01 0.02 0.10 0.16 0.13 0.08 0.07 0.09 0.07 0.07 0.09 0.14 0.20 0.09 0.04 0.02 0.01 0.00 0.00 0.00 0.00 0.00 0.00 0.00 0.00 0.00 0.00 0.01 0.01 0.01 0.01 0.01 0.02 0.03 0.04 0.05 0.04 0.05 0.08 0.12 0.18 0.21 0.23
0.02 0.01 0.00 0.01 0.04 0.07 0.08 0.08 0.08 0.06 0.07 0.11 0.11 0.11 0.06 0.02 0.02 0.01 0.01 0.00 0.00 0.00 0.01 0.01 0.01 0.01 0.01 0.01 0.01 0.01 0.01 0.02 0.02 0.04 0.09 0.09 0.07 0.06 0.06 0.08 0.10 0.13 0.14 0.14
0.03 0.01 0.00 0.01 0.03 0.04 0.07 0.10 0.08 0.04 0.03 0.03 0.03 0.04 0.03 0.02 0.03 0.03 0.03 0.02 0.02 0.02 0.02 0.02 0.02 0.02 0.01 0.01 0.02 0.01 0.02 0.02 0.04 0.08 0.14 0.17 0.14 0.08 0.06 0.06 0.08 0.10 0.11 0.14
0.06 0.05 0.03 0.02 0.04 0.04 0.13 0.12 0.07 0.04 0.03 0.04 0.05 0.06 0.05 0.06 0.06 0.07 0.08 0.06 0.05 0.04 0.03 0.02 0.01 0.01 0.01 0.01 0.01 0.02 0.02 0.03 0.10 0.13 0.11 0.18 0.20 0.10 0.06 0.07 0.09 0.13 0.14 0.18
0.05 0.05 0.05 0.04 0.04 0.11 0.10 0.05 0.05 0.05 0.05 0.06 0.07 0.08 0.09 0.11 0.10 0.10 0.11 0.08 0.04 0.02 0.01 0.01 0.00 0.00 0.00 0.00 0.01 0.02 0.05 0.05 0.13 0.16 0.13 0.19 0.21 0.13 0.13 0.15 0.17 0.20 0.24 0.28
0.06 0.06 0.05 0.04 0.04 0.09 0.07 0.08 0.08 0.10 0.10 0.09 0.11 0.13 0.13 0.11 0.07 0.05 0.04 0.02 0.01 0.01 0.00 0.00 0.00 0.00 0.00 0.01 0.01 0.03 0.08 0.11 0.12 0.15 0.14 0.21 0.28 0.24 0.24 0.26 0.29 0.34 0.38 0.39
0.07 0.07 0.07 0.07 0.11 0.13 0.12 0.13 0.14 0.13 0.20 0.17 0.15 0.12 0.08 0.06 0.05 0.03 0.02 0.01 0.01 0.01 0.00 0.00 0.00 0.00 0.01 0.02 0.04 0.05 0.08 0.13 0.15 0.16 0.18 0.24 0.37 0.42 0.40 0.39 0.42 0.44 0.52 0.55
0.11 0.11 0.12 0.14 0.17 0.17 0.15 0.16 0.16 0.26 0.34 0.26 0.23 0.18 0.16 0.14 0.12 0.07 0.05 0.04 0.02 0.01 0.01 0.01 0.01 0.02 0.03 0.05 0.08 0.12 0.14 0.16 0.18 0.20 0.24 0.30 0.44 0.58 0.57 0.56 0.56 0.58 0.62 0.68
0.14 0.15 0.16 0.23 0.35 0.35 0.21 0.19 0.28 0.39 0.35 0.30 0.26 0.21 0.18 0.16 0.11 0.08 0.06 0.05 0.03 0.03 0.03 0.03 0.04 0.05 0.07 0.10 0.17 0.22 0.23 0.23 0.26 0.28 0.32 0.38 0.51 0.55 0.59 0.67 0.73 0.81 0.85 0.86
0.12 0.13 0.17 0.27 0.37 0.32 0.28 0.27 0.28 0.31 0.31 0.26 0.20 0.18 0.17 0.15 0.13 0.12 0.10 0.07 0.06 0.05 0.04 0.05 0.06 0.09 0.13 0.18 0.28 0.37 0.38 0.39 0.40 0.39 0.40 0.45 0.53 0.66 0.81 0.86 0.83 0.89 0.98 1.02
0.07 0.08 0.12 0.22 0.27 0.29 0.25 0.21 0.18 0.13 0.11 0.10 0.09 0.09 0.09 0.11 0.10 0.10 0.10 0.08 0.08 0.07 0.06 0.06 0.08 0.13 0.19 0.26 0.39 0.48 0.51 0.53 0.51 0.46 0.44 0.48 0.58 0.68 0.82 0.97 1.00 1.05 1.08 1.10
0.04 0.06 0.12 0.21 0.22 0.25 0.25 0.19 0.14 0.08 0.05 0.03 0.03 0.03 0.05 0.08 0.09 0.10 0.11 0.11 0.08 0.07 0.07 0.09 0.13 0.19 0.23 0.32 0.47 0.54 0.59 0.62 0.60 0.53 0.48 0.48 0.56 0.66 0.74 0.87 0.99 1.02 1.04 0.99
0.04 0.06 0.12 0.16 0.15 0.15 0.14 0.09 0.05 0.03 0.03 0.02 0.02 0.02 0.03 0.05 0.06 0.06 0.07 0.07 0.06 0.07 0.10 0.14 0.19 0.25 0.28 0.34 0.45 0.54 0.67 0.80 0.82 0.72 0.62 0.55 0.54 0.62 0.70 0.80 0.83 0.75 0.74 0.72

GEFSCGP_prec_meanprecacc_090.txt.gz
Total_Precipitation_Accumulation
0.00 0.01 0.01 0.02 0.01 0.03 0.06 0.08 0.16 0.21 0.14 0.15 0.29 0.47 0.58 0.65 0.85 0.94 0.89 0.82 0.78 0.94 1.11 1.29 1.52 1.74 2.05 2.37 2.80 2.97 2.90 2.40 1.88 1.66 1.46 1.35 1.23 1.19 1.24 1.25 1.19 1.15 1.05 1.04
0.02 0.04 0.03 0.02 0.03 0.05 0.09 0.11 0.19 0.19 0.12 0.14 0.30 0.55 0.69 0.74 0.70 0.77 0.72 0.74 0.74 1.00 1.24 1.56 1.95 2.03 1.92 2.15 2.62 2.64 2.15 1.65 1.33 1.17 1.05 0.93 0.90 0.89 0.87 0.84 0.82 0.81 0.82 0.87
0.04 0.05 0.03 0.03 0.05 0.10 0.12 0.13 0.16 0.15 0.13 0.19 0.35 0.65 0.87 0.80 0.57 0.53 0.56 0.58 0.67 0.95 1.27 1.54 1.85 1.86 1.68 1.87 1.88 1.55 1.23 0.95 0.74 0.64 0.60 0.63 0.60 0.59 0.53 0.48 0.48 0.53 0.58 0.59
0.03 0.03 0.03 0.03 0.06 0.06 0.08 0.07 0.07 0.06 0.12 0.26 0.38 0.83 1.10 0.91 0.65 0.54 0.52 0.58 0.62 0.64 0.76 0.98 1.14 1.21 1.26 1.25 1.08 0.88 0.76 0.63 0.56 0.56 0.51 0.56 0.50 0.45 0.41 0.35 0.36 0.40 0.42 0.42
0.03 0.03 0.03 0.04 0.04 0.04 0.05 0.04 0.04 0.08 0.11 0.23 0.39 0.66 0.97 0.98 0.86 0.71 0.59 0.58 0.51 0.42 0.42 0.51 0.56 0.60 0.67 0.68 0.62 0.51 0.58 0.64 0.59 0.56 0.49 0.45 0.38 0.33 0.30 0.32 0.36 0.41 0.42 0.41
0.05 0.05 0.04 0.03 0.03 0.04 0.04 0.05 0.12 0.23 0.31 0.51 0.46 0.52 0.81 0.80 0.77 0.74 0.59 0.45 0.34 0.29 0.32 0.35 0.34 0.30 0.29 0.30 0.30 0.30 0.39 0.49 0.46 0.44 0.42 0.40 0.37 0.35 0.31 0.30 0.31 0.33 0.36 0.38
0.14 0.12 0.09 0.05 0.05 0.05 0.05 0.08 0.29 0.58 0.76 0.79 0.45 0.48 0.70 0.62 0.67 0.71 0.50 0.29 0.22 0.23 0.22 0.25 0.25 0.21 0.18 0.17 0.16 0.15 0.19 0.29 0.30 0.31 0.35 0.34 0.34 0.33 0.30 0.26 0.25 0.26 0.26 0.31
0.15 0.18 0.10 0.04 0.05 0.05 0.06 0.06 0.14 0.21 0.30 0.40 0.43 0.82 0.79 0.47 0.49 0.41 0.22 0.12 0.12 0.19 0.17 0.14 0.14 0.13 0.11 0.09 0.08 0.07 0.07 0.09 0.11 0.14 0.18 0.20 0.23 0.24 0.25 0.32 0.30 0.25 0.24 0.27
0.07 0.06 0.04 0.04 0.05 0.06 0.05 0.04 0.04 0.06 0.11 0.27 0.51 0.77 0.56 0.32 0.32 0.20 0.11 0.06 0.05 0.07 0.08 0.06 0.06 0.06 0.05 0.04 0.04 0.04 0.04 0.05 0.06 0.06 0.08 0.10 0.14 0.18 0.24 0.30 0.29 0.25 0.24 0.23
0.03 0.02 0.03 0.04 0.05 0.06 0.04 0.04 0.03 0.04 0.07 0.17 0.36 0.62 0.58 0.38 0.31 0.17 0.09 0.04 0.03 0.03 0.03 0.03 0.03 0.03 0.03 0.02 0.02 0.03 0.03 0.04 0.03 0.03 0.04 0.06 0.11 0.19 0.26 0.30 0.26 0.23 0.21 0.20
0.03 0.02 0.03 0.04 0.06 0.06 0.06 0.06 0.06 0.06 0.07 0.10 0.22 0.36 0.28 0.26 0.20 0.12 0.06 0.04 0.02 0.01 0.01 0.01 0.01 0.01 0.01 0.01 0.02 0.02 0.02 0.03 0.02 0.02 0.03 0.07 0.17 0.21 0.27 0.42 0.40 0.25 0.19 0.18
0.03 0.02 0.03 0.06 0.09 0.08 0.07 0.07 0.06 0.07 0.07 0.07 0.10 0.18 0.13 0.14 0.10 0.07 0.05 0.02 0.01 0.01 0.01 0.00 0.00 0.01 0.01 0.01 0.01 0.01 0.02 0.02 0.02 0.02 0.02 0.05 0.15 0.20 0.23 0.31 0.34 0.26 0.21 0.18
0.02 0.02 0.04 0.15 0.23 0.15 0.08 0.06 0.06 0.07 0.05 0.05 0.15 0.22 0.11 0.07 0.05 0.04 0.02 0.01 0.00 0.00 0.00 0.00 0.00 0.01 0.01 0.01 0.01 0.01 0.01 0.01 0.01 0.02 0.03 0.05 0.07 0.08 0.10 0.12 0.16 0.20 0.23 0.24
0.03 0.02 0.02 0.11 0.16 0.14 0.08 0.07 0.09 0.07 0.07 0.09 0.14 0.20 0.09 0.04 0.02 0.01 0.01 0.00 0.00 0.00 0.00 0.00 0.00 0.00 0.01 0.01 0.01 0.01 0.01 0.01 0.01 0.02 0.03 0.04 0.05 0.04 0.05 0.08 0.12 0.18 0.21 0.23
0.03 0.01 0.01 0.02 0.05 0.08 0.08 0.09 0.09 0.06 0.07 0.11 0.11 0.11 0.06 0.03 0.02 0.01 0.01 0.01 0.01 0.01 0.01 0.01 0.01 0.01 0.01 0.01 0.01 0.01 0.02 0.02 0.03 0.04 0.09 0.09 0.07 0.06 0.06 0.08 0.10 0.13 0.14 0.14
0.04 0.02 0.01 0.01 0.04 0.05 0.07 0.11 0.09 0.05 0.03 0.04 0.04 0.04 0.03 0.03 0.03 0.03 0.03 0.03 0.03 0.02 0.02 0.02 0.02 0.02 0.02 0.02 0.02 0.02 0.03 0.03 0.05 0.08 0.14 0.17 0.14 0.08 0.06 0.06 0.08 0.10 0.11 0.14
0.06 0.05 0.03 0.02 0.04 0.05 0.13 0.12 0.08 0.04 0.04 0.05 0.06 0.06 0.06 0.06 0.07 0.08 0.08 0.07 0.06 0.04 0.03 0.03 0.02 0.02 0.01 0.01 0.02 0.04 0.03 0.03 0.10 0.13 0.12 0.18 0.20 0.10 0.06 0.07 0.09 0.13 0.14 0.18
0.06 0.06 0.05 0.04 0.04 0.11 0.11 0.06 0.06 0.06 0.07 0.07 0.07 0.08 0.10 0.12 0.11 0.11 0.12 0.09 0.05 0.02 0.02 0.01 0.01 0.01 0.01 0.01 0.02 0.03 0.05 0.05 0.13 0.16 0.13 0.19 0.22 0.13 0.13 0.15 0.17 0.20 0.24 0.28
0.07 0.06 0.06 0.04 0.05 0.09 0.09 0.09 0.09 0.12 0.12 0.11 0.12 0.14 0.14 0.12 0.09 0.06 0.05 0.03 0.02 0.01 0.01 0.01 0.01 0.01 0.01 0.02 0.02 0.03 0.08 0.12 0.13 0.15 0.15 0.21 0.28 0.24 0.24 0.26 0.29 0.34 0.38 0.39
0.08 0.08 0.09 0.08 0.12 0.14 0.13 0.14 0.16 0.15 0.22 0.19 0.16 0.13 0.10 0.07 0.07 0.06 0.06 0.04 0.03 0.03 0.02 0.02 0.02 0.01 0.02 0.03 0.04 0.06 0.09 0.13 0.16 0.16 0.18 0.24 0.37 0.43 0.40 0.40 0.43 0.45 0.52 0.55
0.11 0.12 0.13 0.15 0.18 0.18 0.16 0.17 0.18 0.28 0.36 0.28 0.25 0.20 0.19 0.17 0.15 0.12 0.09 0.08 0.06 0.04 0.03 0.03 0.03 0.03 0.04 0.06 0.09 0.13 0.15 0.17 0.19 0.22 0.25 0.31 0.45 0.59 0.58 0.57 0.57 0.59 0.62 0.69
0.15 0.16 0.18 0.25 0.36 0.36 0.22 0.20 0.31 0.42 0.37 0.33 0.29 0.23 0.21 0.19 0.15 0.12 0.10 0.09 0.08 0.07 0.06 0.07 0.08 0.09 0.10 0.13 0.20 0.25 0.26 0.26 0.29 0.31 0.34 0.40 0.53 0.57 0.61 0.69 0.74 0.82 0.86 0.87
0.12 0.14 0.19 0.28 0.39 0.34 0.30 0.29 0.30 0.33 0.34 0.29 0.23 0.20 0.19 0.19 0.17 0.16 0.15 0.13 0.11 0.09 0.09 0.10 0.12 0.15 0.18 0.22 0.32 0.40 0.41 0.44 0.44 0.42 0.43 0.47 0.55 0.68 0.82 0.87 0.84 0.90 0.99 1.03
0.08 0.09 0.13 0.23 0.28 0.31 0.27 0.22 0.20 0.15 0.13 0.12 0.11 0.11 0.11 0.13 0.14 0.13 0.13 0.12 0.12 0.12 0.11 0.12 0.14 0.19 0.24 0.30 0.42 0.51 0.55 0.56 0.54 0.49 0.46 0.50 0.60 0.69 0.83 0.98 1.00 1.06 1.09 1.10
0.05 0.07 0.13 0.22 0.24 0.27 0.27 0.21 0.17 0.11 0.07 0.05 0.05 0.05 0.06 0.09 0.10 0.11 0.13 0.12 0.11 0.10 0.10 0.13 0.17 0.24 0.27 0.36 0.50 0.58 0.62 0.65 0.62 0.56 0.50 0.51 0.58 0.68 0.77 0.90 1.01 1.04 1.06 1.01
0.05 0.07 0.15 0.19 0.18 0.17 0.16 0.11 0.08 0.07 0.06 0.06 0.04 0.04 0.04 0.05 0.06 0.07 0.08 0.08 0.07 0.08 0.11 0.16 0.21 0.28 0.31 0.37 0.48 0.58 0.71 0.83 0.86 0.76 0.66 0.60 0.59 0.66 0.73 0.83 0.86 0.77 0.76 0.74

GEFSCGP_prec_meanprecacc_096.txt.gz
Total_Precipitation_Accumulation
0.00 0.01 0.01 0.02 0.01 0.03 0.06 0.08 0.16 0.21 0.14 0.15 0.29 0.47 0.58 0.66 0.86 0.97 0.93 0.86 0.84 1.02 1.25 1.41 1.61 1.84 2.16 2.48 2.90 3.06 3.00 2.49 1.98 1.73 1.53 1.43 1.30 1.23 1.28 1.28 1.21 1.16 1.07 1.05
0.02 0.04 0.03 0.02 0.03 0.05 0.09 0.11 0.19 0.19 0.12 0.14 0.30 0.55 0.69 0.74 0.71 0.78 0.75 0.78 0.78 1.07 1.35 1.67 2.02 2.13 2.03 2.26 2.72 2.73 2.26 1.75 1.42 1.24 1.11 1.00 0.98 0.94 0.91 0.86 0.83 0.81 0.83 0.87
0.04 0.05 0.03 0.03 0.05 0.10 0.12 0.13 0.16 0.15 0.13 0.19 0.35 0.65 0.87 0.80 0.57 0.53 0.56 0.60 0.71 0.99 1.34 1.64 1.94 1.93 1.77 1.97 1.97 1.63 1.32 1.04 0.82 0.70 0.65 0.67 0.65 0.62 0.55 0.49 0.48 0.53 0.58 0.60
0.03 0.03 0.03 0.03 0.06 0.07 0.08 0.07 0.07 0.06 0.12 0.26 0.38 0.83 1.10 0.91 0.65 0.55 0.53 0.60 0.65 0.68 0.82 1.05 1.21 1.28 1.33 1.34 1.17 0.97 0.83 0.69 0.61 0.59 0.54 0.59 0.53 0.47 0.42 0.36 0.37 0.41 0.43 0.42
0.03 0.03 0.03 0.04 0.05 0.05 0.05 0.04 0.04 0.08 0.11 0.23 0.39 0.66 0.97 0.98 0.86 0.72 0.61 0.60 0.53 0.45 0.47 0.56 0.61 0.67 0.73 0.75 0.70 0.58 0.63 0.68 0.62 0.58 0.51 0.48 0.41 0.35 0.31 0.33 0.37 0.42 0.43 0.42
0.05 0.05 0.04 0.03 0.04 0.04 0.04 0.05 0.12 0.23 0.31 0.52 0.46 0.52 0.81 0.80 0.77 0.75 0.61 0.47 0.36 0.31 0.34 0.38 0.37 0.35 0.34 0.34 0.35 0.35 0.42 0.50 0.47 0.46 0.43 0.42 0.39 0.36 0.32 0.31 0.33 0.34 0.37 0.39
0.14 0.12 0.09 0.05 0.05 0.05 0.05 0.08 0.29 0.58 0.76 0.79 0.45 0.48 0.70 0.62 0.67 0.71 0.51 0.30 0.23 0.24 0.23 0.26 0.27 0.24 0.21 0.19 0.18 0.17 0.21 0.30 0.31 0.32 0.36 0.35 0.35 0.34 0.31 0.27 0.26 0.27 0.27 0.31
0.15 0.18 0.10 0.04 0.05 0.06 0.06 0.06 0.15 0.22 0.30 0.41 0.43 0.82 0.79 0.47 0.49 0.41 0.22 0.12 0.12 0.19 0.17 0.14 0.14 0.15 0.12 0.10 0.09 0.08 0.08 0.10 0.12 0.15 0.19 0.21 0.24 0.24 0.25 0.33 0.30 0.26 0.24 0.28
0.07 0.06 0.04 0.04 0.05 0.06 0.05 0.04 0.04 0.06 0.11 0.27 0.51 0.77 0.56 0.32 0.32 0.20 0.11 0.06 0.05 0.07 0.08 0.06 0.06 0.06 0.06 0.05 0.04 0.04 0.05 0.06 0.06 0.06 0.09 0.11 0.15 0.19 0.25 0.31 0.29 0.25 0.24 0.23
0.04 0.02 0.03 0.04 0.05 0.06 0.05 0.04 0.04 0.04 0.08 0.18 0.36 0.62 0.58 0.38 0.31 0.17 0.09 0.04 0.03 0.03 0.03 0.03 0.03 0.03 0.03 0.02 0.02 0.03 0.03 0.04 0.04 0.03 0.04 0.06 0.11 0.19 0.27 0.30 0.26 0.23 0.21 0.20
0.03 0.02 0.03 0.04 0.06 0.07 0.07 0.06 0.06 0.06 0.07 0.10 0.22 0.36 0.28 0.26 0.20 0.12 0.06 0.04 0.02 0.01 0.01 0.01 0.01 0.01 0.01 0.01 0.02 0.02 0.02 0.03 0.03 0.03 0.03 0.08 0.17 0.21 0.28 0.42 0.40 0.25 0.19 0.18
0.03 0.03 0.04 0.07 0.10 0.09 0.08 0.07 0.06 0.07 0.08 0.07 0.11 0.18 0.13 0.14 0.10 0.07 0.05 0.02 0.01 0.01 0.01 0.00 0.00 0.01 0.01 0.01 0.01 0.01 0.02 0.02 0.02 0.02 0.02 0.06 0.15 0.20 0.23 0.31 0.34 0.26 0.21 0.18
0.02 0.02 0.04 0.16 0.24 0.16 0.08 0.06 0.06 0.07 0.06 0.05 0.15 0.22 0.11 0.07 0.05 0.04 0.02 0.01 0.01 0.00 0.00 0.00 0.00 0.01 0.01 0.01 0.01 0.01 0.01 0.01 0.01 0.02 0.03 0.05 0.07 0.08 0.10 0.12 0.16 0.21 0.23 0.24
0.03 0.03 0.03 0.12 0.17 0.14 0.08 0.07 0.10 0.08 0.08 0.09 0.14 0.20 0.09 0.04 0.02 0.01 0.01 0.00 0.00 0.00 0.00 0.00 0.00 0.01 0.01 0.01 0.01 0.01 0.01 0.01 0.01 0.02 0.04 0.04 0.05 0.05 0.05 0.08 0.12 0.18 0.21 0.23
0.04 0.01 0.01 0.02 0.05 0.08 0.08 0.09 0.09 0.07 0.07 0.11 0.11 0.11 0.06 0.03 0.02 0.01 0.01 0.01 0.01 0.01 0.01 0.01 0.01 0.01 0.02 0.01 0.01 0.01 0.02 0.03 0.03 0.05 0.09 0.09 0.07 0.06 0.06 0.08 0.10 0.13 0.14 0.14
0.04 0.02 0.01 0.02 0.04 0.05 0.07 0.11 0.09 0.05 0.03 0.04 0.04 0.04 0.04 0.03 0.03 0.04 0.04 0.03 0.03 0.03 0.03 0.03 0.02 0.02 0.02 0.02 0.02 0.03 0.04 0.05 0.07 0.10 0.15 0.17 0.14 0.08 0.06 0.06 0.08 0.10 0.11 0.14
0.08 0.06 0.04 0.03 0.04 0.05 0.14 0.12 0.08 0.05 0.04 0.05 0.07 0.07 0.06 0.07 0.07 0.08 0.09 0.07 0.06 0.05 0.04 0.03 0.03 0.02 0.01 0.01 0.02 0.04 0.05 0.06 0.13 0.16 0.14 0.20 0.21 0.10 0.07 0.07 0.10 0.13 0.14 0.18
0.08 0.08 0.06 0.04 0.05 0.12 0.11 0.06 0.06 0.07 0.07 0.07 0.08 0.08 0.10 0.12 0.12 0.11 0.12 0.10 0.05 0.03 0.02 0.02 0.01 0.01 0.01 0.02 0.02 0.04 0.06 0.07 0.15 0.18 0.16 0.22 0.24 0.15 0.14 0.16 0.18 0.20 0.24 0.28
0.08 0.08 0.07 0.06 0.06 0.10 0.09 0.09 0.10 0.12 0.13 0.11 0.12 0.14 0.14 0.12 0.09 0.07 0.06 0.04 0.03 0.02 0.02 0.02 0.02 0.03 0.03 0.03 0.03 0.04 0.09 0.13 0.14 0.17 0.17 0.23 0.30 0.25 0.26 0.27 0.30 0.34 0.38 0.40
0.09 0.10 0.10 0.11 0.14 0.16 0.14 0.15 0.16 0.17 0.25 0.19 0.17 0.14 0.10 0.08 0.08 0.07 0.07 0.06 0.05 0.04 0.04 0.04 0.04 0.03 0.03 0.04 0.05 0.07 0.10 0.14 0.17 0.18 0.20 0.26 0.39 0.44 0.41 0.41 0.44 0.46 0.53 0.56
0.13 0.14 0.15 0.18 0.21 0.19 0.17 0.18 0.20 0.34 0.41 0.29 0.25 0.21 0.19 0.17 0.16 0.14 0.11 0.10 0.08 0.05 0.05 0.05 0.05 0.05 0.05 0.07 0.10 0.14 0.16 0.19 0.21 0.24 0.27 0.32 0.46 0.60 0.58 0.58 0.58 0.60 0.63 0.70
0.16 0.19 0.20 0.28 0.40 0.38 0.23 0.21 0.33 0.46 0.39 0.34 0.29 0.24 0.22 0.20 0.16 0.13 0.12 0.11 0.10 0.09 0.08 0.09 0.09 0.10 0.12 0.15 0.21 0.26 0.28 0.28 0.31 0.34 0.37 0.42 0.55 0.59 0.62 0.70 0.75 0.83 0.87 0.88
0.13 0.15 0.19 0.29 0.40 0.34 0.30 0.30 0.31 0.34 0.35 0.30 0.23 0.21 0.20 0.19 0.18 0.17 0.16 0.14 0.13 0.11 0.11 0.12 0.13 0.16 0.19 0.24 0.33 0.42 0.44 0.46 0.46 0.44 0.45 0.50 0.57 0.70 0.84 0.88 0.85 0.91 1.00 1.04
0.08 0.09 0.14 0.23 0.28 0.31 0.27 0.23 0.21 0.16 0.15 0.14 0.13 0.12 0.12 0.14 0.14 0.14 0.14 0.13 0.13 0.13 0.13 0.14 0.16 0.21 0.26 0.33 0.44 0.54 0.57 0.59 0.56 0.51 0.48 0.52 0.62 0.71 0.85 1.00 1.02 1.07 1.10 1.12
0.05 0.08 0.14 0.24 0.25 0.28 0.28 0.23 0.18 0.13 0.10 0.09 0.09 0.09 0.09 0.11 0.12 0.12 0.13 0.13 0.11 0.11 0.11 0.14 0.18 0.25 0.29 0.38 0.52 0.61 0.65 0.68 0.66 0.59 0.53 0.53 0.61 0.71 0.79 0.92 1.03 1.06 1.08 1.03
0.05 0.09 0.17 0.21 0.19 0.19 0.18 0.13 0.10 0.10 0.09 0.09 0.08 0.07 0.06 0.07 0.07 0.07 0.08 0.08 0.07 0.08 0.11 0.17 0.23 0.30 0.33 0.40 0.51 0.60 0.73 0.86 0.89 0.80 0.71 0.65 0.64 0.71 0.78 0.86 0.89 0.80 0.78 0.76

GEFSCGP_prec_meanprecacc_102.txt.gz
Total_Precipitation_Accumulation
0.00 0.01 0.01 0.02 0.01 0.03 0.06 0.09 0.17 0.22 0.15 0.15 0.30 0.47 0.58 0.66 0.87 0.98 0.95 0.90 0.88 1.10 1.35 1.52 1.73 1.94 2.26 2.66 3.08 3.21 3.16 2.65 2.16 1.92 1.69 1.57 1.43 1.34 1.36 1.33 1.24 1.18 1.08 1.06
0.02 0.04 0.03 0.02 0.03 0.05 0.09 0.11 0.19 0.20 0.13 0.14 0.30 0.55 0.70 0.75 0.71 0.78 0.77 0.81 0.82 1.13 1.45 1.79 2.16 2.23 2.12 2.37 2.89 2.87 2.41 1.90 1.57 1.40 1.26 1.14 1.09 1.01 0.96 0.89 0.86 0.82 0.83 0.88
0.04 0.05 0.03 0.03 0.05 0.10 0.12 0.14 0.17 0.15 0.14 0.20 0.36 0.66 0.90 0.82 0.58 0.54 0.57 0.61 0.75 1.05 1.42 1.74 2.06 2.04 1.85 2.05 2.08 1.75 1.45 1.17 0.94 0.82 0.77 0.77 0.74 0.68 0.60 0.53 0.52 0.55 0.59 0.60
0.03 0.03 0.03 0.03 0.06 0.07 0.08 0.07 0.07 0.06 0.12 0.26 0.40 0.86 1.15 0.96 0.68 0.55 0.53 0.61 0.68 0.74 0.90 1.13 1.27 1.35 1.39 1.40 1.26 1.09 0.96 0.81 0.71 0.70 0.64 0.67 0.59 0.53 0.47 0.40 0.40 0.42 0.44 0.43
0.03 0.03 0.03 0.04 0.05 0.05 0.05 0.04 0.04 0.08 0.11 0.24 0.43 0.71 1.00 1.02 0.89 0.73 0.62 0.61 0.54 0.49 0.53 0.62 0.66 0.72 0.78 0.80 0.78 0.68 0.73 0.78 0.70 0.66 0.61 0.57 0.48 0.40 0.35 0.36 0.40 0.44 0.44 0.42
0.05 0.05 0.04 0.03 0.04 0.04 0.04 0.05 0.12 0.23 0.34 0.60 0.56 0.57 0.85 0.83 0.78 0.75 0.62 0.47 0.37 0.33 0.37 0.42 0.41 0.39 0.39 0.38 0.42 0.43 0.51 0.59 0.54 0.52 0.50 0.48 0.45 0.42 0.37 0.35 0.35 0.35 0.38 0.39
0.14 0.12 0.09 0.05 0.05 0.05 0.05 0.08 0.31 0.65 0.92 0.96 0.54 0.52 0.71 0.62 0.67 0.71 0.51 0.30 0.24 0.25 0.25 0.28 0.29 0.27 0.24 0.23 0.24 0.25 0.29 0.37 0.36 0.36 0.41 0.41 0.41 0.39 0.35 0.30 0.28 0.28 0.28 0.32
0.15 0.18 0.10 0.04 0.05 0.06 0.06 0.06 0.17 0.29 0.41 0.50 0.49 0.84 0.80 0.48 0.49 0.41 0.22 0.12 0.12 0.20 0.18 0.16 0.16 0.17 0.15 0.13 0.13 0.14 0.14 0.16 0.16 0.19 0.24 0.25 0.28 0.27 0.27 0.35 0.31 0.26 0.25 0.28
0.07 0.06 0.05 0.04 0.05 0.06 0.05 0.04 0.05 0.07 0.12 0.30 0.55 0.80 0.58 0.33 0.33 0.20 0.11 0.06 0.05 0.07 0.09 0.08 0.08 0.08 0.08 0.07 0.07 0.08 0.10 0.12 0.12 0.11 0.13 0.14 0.18 0.21 0.27 0.33 0.30 0.25 0.25 0.23
0.04 0.02 0.04 0.04 0.05 0.06 0.05 0.04 0.04 0.04 0.10 0.21 0.41 0.69 0.66 0.44 0.34 0.18 0.09 0.04 0.03 0.03 0.03 0.03 0.04 0.04 0.04 0.04 0.05 0.05 0.08 0.09 0.08 0.07 0.07 0.08 0.13 0.21 0.29 0.32 0.27 0.23 0.21 0.20
0.03 0.02 0.03 0.04 0.06 0.07 0.07 0.07 0.06 0.06 0.08 0.12 0.29 0.46 0.38 0.35 0.23 0.12 0.06 0.04 0.02 0.01 0.01 0.01 0.01 0.02 0.03 0.03 0.03 0.04 0.06 0.07 0.05 0.05 0.06 0.11 0.19 0.22 0.29 0.43 0.41 0.25 0.20 0.18
0.04 0.03 0.04 0.07 0.10 0.09 0.08 0.07 0.07 0.10 0.10 0.08 0.14 0.26 0.22 0.21 0.13 0.08 0.05 0.02 0.01 0.01 0.01 0.00 0.00 0.01 0.01 0.02 0.02 0.02 0.03 0.04 0.03 0.03 0.05 0.08 0.17 0.21 0.25 0.32 0.34 0.27 0.21 0.18
0.05 0.03 0.05 0.19 0.28 0.18 0.10 0.07 0.06 0.08 0.08 0.08 0.17 0.27 0.21 0.19 0.10 0.05 0.02 0.01 0.01 0.01 0.00 0.00 0.01 0.01 0.01 0.01 0.01 0.01 0.02 0.02 0.02 0.04 0.06 0.07 0.08 0.09 0.11 0.13 0.17 0.21 0.24 0.25
0.05 0.04 0.04 0.16 0.24 0.25 0.17 0.11 0.11 0.09 0.09 0.12 0.16 0.26 0.18 0.18 0.13 0.04 0.02 0.01 0.01 0.00 0.01 0.02 0.02 0.03 0.04 0.01 0.01 0.01 0.01 0.02 0.03 0.06 0.07 0.08 0.07 0.07 0.07 0.10 0.14 0.19 0.23 0.24
0.05 0.03 0.02 0.03 0.09 0.13 0.13 0.13 0.12 0.08 0.07 0.12 0.13 0.17 0.16 0.12 0.17 0.08 0.03 0.01 0.01 0.01 0.01 0.02 0.02 0.03 0.05 0.06 0.04 0.02 0.03 0.05 0.08 0.13 0.15 0.15 0.13 0.12 0.11 0.13 0.15 0.17 0.18 0.17
0.07 0.04 0.03 0.03 0.06 0.07 0.09 0.12 0.10 0.05 0.04 0.04 0.05 0.10 0.10 0.12 0.14 0.09 0.05 0.04 0.03 0.03 0.03 0.03 0.03 0.02 0.03 0.04 0.04 0.04 0.06 0.07 0.11 0.18 0.24 0.24 0.21 0.14 0.10 0.11 0.13 0.17 0.17 0.18
0.14 0.09 0.06 0.05 0.05 0.07 0.15 0.13 0.09 0.06 0.05 0.06 0.10 0.12 0.15 0.15 0.11 0.10 0.10 0.08 0.06 0.05 0.04 0.03 0.03 0.03 0.03 0.03 0.04 0.05 0.06 0.08 0.16 0.21 0.21 0.28 0.31 0.20 0.14 0.13 0.14 0.17 0.19 0.22
0.21 0.17 0.11 0.07 0.09 0.18 0.13 0.07 0.07 0.08 0.10 0.11 0.11 0.12 0.18 0.21 0.14 0.12 0.12 0.10 0.05 0.03 0.02 0.02 0.03 0.03 0.03 0.03 0.04 0.05 0.07 0.09 0.19 0.23 0.21 0.28 0.33 0.26 0.24 0.25 0.25 0.26 0.30 0.33
0.25 0.24 0.19 0.13 0.15 0.18 0.14 0.12 0.12 0.15 0.17 0.14 0.17 0.19 0.18 0.15 0.11 0.09 0.07 0.04 0.03 0.02 0.02 0.02 0.03 0.04 0.04 0.04 0.05 0.06 0.12 0.17 0.20 0.25 0.25 0.29 0.37 0.34 0.36 0.37 0.39 0.44 0.48 0.49
0.20 0.23 0.21 0.18 0.24 0.29 0.26 0.22 0.19 0.22 0.36 0.24 0.20 0.18 0.13 0.12 0.17 0.16 0.09 0.06 0.05 0.04 0.04 0.04 0.04 0.04 0.04 0.05 0.07 0.10 0.14 0.20 0.24 0.26 0.28 0.34 0.47 0.54 0.51 0.52 0.56 0.58 0.65 0.66
0.23 0.22 0.21 0.24 0.30 0.30 0.26 0.27 0.25 0.45 0.57 0.33 0.28 0.26 0.25 0.23 0.23 0.18 0.12 0.11 0.09 0.06 0.05 0.07 0.08 0.07 0.07 0.09 0.13 0.19 0.23 0.28 0.29 0.31 0.35 0.43 0.61 0.79 0.77 0.73 0.72 0.74 0.76 0.81
0.27 0.28 0.29 0.35 0.51 0.54 0.32 0.26 0.41 0.57 0.45 0.39 0.31 0.25 0.24 0.21 0.17 0.14 0.12 0.12 0.10 0.10 0.09 0.11 0.12 0.14 0.16 0.20 0.26 0.32 0.34 0.34 0.37 0.39 0.42 0.49 0.65 0.73 0.78 0.87 0.90 0.96 0.98 0.98
0.30 0.32 0.33 0.41 0.53 0.45 0.38 0.35 0.35 0.38 0.39 0.34 0.25 0.21 0.21 0.21 0.20 0.19 0.17 0.15 0.14 0.12 0.12 0.14 0.15 0.19 0.23 0.29 0.40 0.51 0.52 0.53 0.54 0.53 0.53 0.56 0.64 0.77 0.93 0.97 0.94 0.99 1.07 1.09
0.33 0.29 0.32 0.42 0.43 0.41 0.33 0.25 0.21 0.18 0.17 0.15 0.13 0.12 0.12 0.16 0.17 0.16 0.15 0.15 0.15 0.15 0.14 0.15 0.17 0.24 0.28 0.34 0.46 0.57 0.62 0.63 0.63 0.60 0.59 0.61 0.68 0.77 0.91 1.05 1.06 1.12 1.15 1.17
0.30 0.26 0.32 0.44 0.43 0.41 0.35 0.25 0.19 0.14 0.11 0.09 0.10 0.10 0.11 0.13 0.14 0.14 0.15 0.14 0.12 0.11 0.12 0.15 0.20 0.28 0.32 0.40 0.54 0.63 0.67 0.71 0.71 0.68 0.62 0.62 0.67 0.77 0.84 0.97 1.08 1.11 1.14 1.09
0.17 0.24 0.33 0.37 0.33 0.30 0.26 0.14 0.10 0.10 0.11 0.10 0.10 0.08 0.07 0.07 0.07 0.08 0.10 0.10 0.09 0.09 0.13 0.18 0.24 0.31 0.34 0.41 0.52 0.61 0.74 0.88 0.92 0.84 0.74 0.68 0.67 0.74 0.81 0.90 0.93 0.84 0.82 0.79

GEFSCGP_prec_meanprecacc_108.txt.gz
Total_Precipitation_Accumulation
0.00 0.01 0.01 0.02 0.02 0.03 0.06 0.09 0.17 0.23 0.16 0.16 0.32 0.50 0.62 0.71 0.91 1.02 0.99 0.95 0.95 1.22 1.55 1.69 1.91 2.10 2.57 3.00 3.43 3.59 3.55 2.89 2.27 2.00 1.77 1.66 1.50 1.37 1.38 1.34 1.25 1.18 1.08 1.06
0.02 0.04 0.03 0.02 0.03 0.05 0.09 0.12 0.20 0.21 0.14 0.15 0.32 0.59 0.76 0.82 0.78 0.82 0.79 0.85 0.88 1.23 1.62 1.96 2.40 2.54 2.37 2.60 3.05 3.07 2.63 2.09 1.67 1.46 1.32 1.21 1.16 1.05 0.97 0.90 0.87 0.83 0.83 0.88
0.04 0.05 0.03 0.03 0.05 0.10 0.12 0.14 0.18 0.16 0.14 0.20 0.39 0.72 0.98 0.90 0.66 0.58 0.59 0.64 0.78 1.09 1.49 1.86 2.26 2.45 2.23 2.29 2.23 1.86 1.55 1.28 1.02 0.88 0.83 0.84 0.81 0.71 0.61 0.54 0.52 0.55 0.59 0.60
0.03 0.03 0.03 0.04 0.06 0.07 0.08 0.07 0.07 0.06 0.12 0.27 0.41 0.91 1.24 1.04 0.74 0.58 0.55 0.64 0.71 0.77 0.95 1.22 1.43 1.72 1.81 1.61 1.39 1.17 1.02 0.88 0.77 0.75 0.70 0.74 0.63 0.54 0.48 0.40 0.40 0.42 0.44 0.43
0.03 0.03 0.03 0.04 0.05 0.05 0.05 0.04 0.04 0.08 0.12 0.26 0.46 0.77 1.11 1.08 0.94 0.76 0.64 0.63 0.57 0.51 0.57 0.71 0.80 0.93 1.04 0.98 0.88 0.75 0.80 0.85 0.77 0.71 0.65 0.62 0.51 0.42 0.36 0.37 0.41 0.44 0.44 0.42
0.05 0.05 0.04 0.03 0.04 0.04 0.04 0.05 0.12 0.25 0.36 0.65 0.64 0.66 0.95 0.90 0.83 0.78 0.63 0.48 0.38 0.35 0.40 0.49 0.49 0.49 0.50 0.51 0.52 0.51 0.58 0.67 0.62 0.59 0.56 0.53 0.48 0.43 0.38 0.35 0.36 0.35 0.38 0.39
0.14 0.12 0.09 0.05 0.05 0.05 0.05 0.08 0.31 0.67 0.96 1.05 0.62 0.61 0.80 0.70 0.71 0.74 0.52 0.31 0.25 0.27 0.28 0.33 0.34 0.32 0.30 0.31 0.30 0.31 0.34 0.42 0.45 0.48 0.50 0.46 0.44 0.40 0.36 0.31 0.28 0.28 0.28 0.32
0.15 0.18 0.10 0.05 0.05 0.06 0.06 0.07 0.19 0.32 0.44 0.58 0.61 0.98 0.92 0.54 0.53 0.43 0.24 0.14 0.14 0.22 0.20 0.19 0.20 0.21 0.19 0.17 0.17 0.20 0.19 0.19 0.23 0.32 0.36 0.31 0.31 0.28 0.28 0.35 0.32 0.26 0.25 0.28
0.07 0.06 0.05 0.05 0.05 0.07 0.05 0.04 0.06 0.09 0.14 0.37 0.70 0.99 0.73 0.38 0.36 0.23 0.13 0.07 0.07 0.09 0.11 0.10 0.10 0.11 0.12 0.11 0.10 0.13 0.16 0.18 0.17 0.15 0.17 0.18 0.20 0.22 0.28 0.33 0.30 0.25 0.25 0.23
0.04 0.02 0.04 0.05 0.05 0.06 0.06 0.05 0.06 0.06 0.12 0.28 0.55 0.84 0.79 0.53 0.41 0.22 0.12 0.07 0.06 0.05 0.05 0.05 0.05 0.07 0.09 0.08 0.08 0.10 0.13 0.13 0.12 0.10 0.09 0.09 0.15 0.22 0.30 0.33 0.27 0.24 0.21 0.20
0.04 0.02 0.03 0.04 0.06 0.07 0.08 0.08 0.08 0.09 0.11 0.18 0.40 0.58 0.46 0.42 0.30 0.19 0.14 0.12 0.06 0.03 0.03 0.03 0.03 0.05 0.08 0.10 0.09 0.08 0.10 0.11 0.09 0.08 0.07 0.11 0.20 0.23 0.30 0.44 0.41 0.26 0.20 0.18
0.04 0.03 0.04 0.08 0.11 0.10 0.09 0.09 0.10 0.13 0.14 0.14 0.21 0.35 0.28 0.26 0.18 0.16 0.13 0.11 0.06 0.04 0.03 0.04 0.03 0.04 0.06 0.10 0.09 0.07 0.08 0.10 0.11 0.10 0.09 0.11 0.18 0.23 0.26 0.32 0.35 0.28 0.22 0.19
0.05 0.05 0.06 0.20 0.29 0.20 0.13 0.09 0.10 0.12 0.12 0.13 0.25 0.37 0.29 0.26 0.21 0.15 0.09 0.08 0.06 0.04 0.04 0.04 0.05 0.09 0.07 0.06 0.08 0.08 0.08 0.10 0.11 0.16 0.19 0.16 0.13 0.12 0.13 0.16 0.19 0.23 0.25 0.26
0.07 0.06 0.07 0.19 0.28 0.29 0.21 0.14 0.14 0.12 0.12 0.15 0.21 0.34 0.27 0.27 0.26 0.15 0.12 0.12 0.10 0.04 0.03 0.04 0.05 0.07 0.13 0.10 0.09 0.09 0.11 0.13 0.18 0.19 0.19 0.18 0.16 0.15 0.16 0.17 0.19 0.23 0.26 0.27
0.08 0.06 0.04 0.08 0.14 0.16 0.17 0.16 0.15 0.11 0.10 0.15 0.17 0.23 0.23 0.21 0.30 0.21 0.19 0.18 0.14 0.08 0.05 0.04 0.04 0.07 0.14 0.19 0.15 0.12 0.14 0.17 0.23 0.29 0.29 0.23 0.18 0.17 0.18 0.19 0.20 0.22 0.23 0.22
0.14 0.10 0.09 0.09 0.11 0.12 0.13 0.15 0.12 0.08 0.06 0.06 0.10 0.16 0.17 0.22 0.27 0.23 0.20 0.18 0.20 0.13 0.08 0.07 0.07 0.08 0.09 0.14 0.16 0.16 0.16 0.16 0.20 0.28 0.35 0.37 0.32 0.27 0.24 0.26 0.25 0.26 0.26 0.27
0.25 0.18 0.17 0.18 0.14 0.14 0.20 0.17 0.12 0.09 0.08 0.10 0.15 0.19 0.24 0.27 0.26 0.24 0.26 0.20 0.16 0.11 0.08 0.08 0.08 0.09 0.08 0.10 0.12 0.13 0.12 0.16 0.28 0.33 0.33 0.42 0.49 0.43 0.43 0.44 0.39 0.37 0.35 0.36
0.32 0.31 0.24 0.22 0.25 0.31 0.22 0.15 0.13 0.14 0.17 0.17 0.18 0.23 0.32 0.36 0.27 0.24 0.27 0.26 0.19 0.10 0.10 0.10 0.08 0.07 0.07 0.07 0.08 0.10 0.13 0.17 0.29 0.34 0.32 0.42 0.51 0.47 0.47 0.48 0.46 0.50 0.55 0.57
0.33 0.37 0.35 0.31 0.34 0.35 0.26 0.21 0.21 0.25 0.29 0.25 0.30 0.35 0.36 0.30 0.25 0.25 0.19 0.12 0.09 0.07 0.08 0.07 0.08 0.09 0.09 0.10 0.11 0.12 0.20 0.27 0.34 0.41 0.45 0.52 0.61 0.63 0.64 0.61 0.62 0.68 0.75 0.78
0.26 0.34 0.39 0.39 0.45 0.51 0.40 0.32 0.29 0.35 0.54 0.43 0.37 0.34 0.26 0.25 0.32 0.32 0.19 0.13 0.10 0.08 0.09 0.10 0.11 0.11 0.12 0.14 0.17 0.22 0.30 0.40 0.48 0.51 0.54 0.63 0.77 0.85 0.85 0.83 0.85 0.88 0.95 0.98
0.34 0.35 0.38 0.43 0.50 0.47 0.40 0.36 0.33 0.60 0.76 0.53 0.46 0.48 0.46 0.40 0.35 0.28 0.21 0.17 0.14 0.10 0.10 0.14 0.17 0.20 0.22 0.25 0.31 0.37 0.43 0.48 0.48 0.50 0.55 0.63 0.83 1.04 1.04 1.06 1.07 1.06 1.06 1.10
0.49 0.45 0.44 0.51 0.69 0.71 0.48 0.40 0.57 0.76 0.63 0.61 0.53 0.49 0.52 0.43 0.31 0.25 0.20 0.17 0.14 0.12 0.11 0.14 0.18 0.21 0.28 0.35 0.43 0.51 0.51 0.52 0.56 0.60 0.65 0.73 0.90 0.98 1.04 1.16 1.19 1.21 1.19 1.17
0.50 0.55 0.53 0.63 0.78 0.69 0.60 0.58 0.56 0.59 0.57 0.52 0.42 0.38 0.40 0.40 0.32 0.27 0.23 0.18 0.15 0.13 0.12 0.14 0.17 0.22 0.28 0.38 0.52 0.66 0.68 0.68 0.67 0.68 0.72 0.82 0.92 1.01 1.12 1.18 1.14 1.17 1.24 1.26
0.51 0.47 0.57 0.79 0.77 0.67 0.56 0.48 0.43 0.33 0.28 0.26 0.25 0.21 0.19 0.21 0.22 0.19 0.16 0.15 0.15 0.15 0.14 0.16 0.18 0.25 0.31 0.37 0.51 0.62 0.67 0.70 0.68 0.65 0.65 0.74 0.90 0.95 1.03 1.15 1.16 1.23 1.28 1.31
0.51 0.48 0.56 0.77 0.77 0.68 0.62 0.51 0.46 0.31 0.24 0.17 0.16 0.14 0.13 0.14 0.15 0.15 0.16 0.15 0.12 0.11 0.12 0.15 0.20 0.28 0.32 0.41 0.55 0.65 0.71 0.75 0.76 0.73 0.68 0.70 0.78 0.88 0.94 1.06 1.16 1.18 1.19 1.15
0.31 0.44 0.56 0.64 0.63 0.62 0.61 0.44 0.35 0.30 0.25 0.20 0.16 0.12 0.09 0.08 0.08 0.08 0.10 0.10 0.09 0.10 0.13 0.18 0.24 0.31 0.35 0.41 0.52 0.61 0.75 0.90 0.93 0.87 0.78 0.74 0.74 0.81 0.87 0.96 0.97 0.88 0.86 0.83

GEFSCGP_prec_meanprecacc_114.txt.gz
Total_Precipitation_Accumulation
0.00 0.01 0.01 0.02 0.02 0.03 0.06 0.09 0.18 0.23 0.16 0.17 0.32 0.50 0.63 0.72 0.93 1.04 1.01 0.98 1.00 1.28 1.62 1.79 2.04 2.30 2.89 3.38 3.86 3.96 3.83 3.12 2.46 2.15 1.91 1.79 1.61 1.45 1.44 1.38 1.27 1.20 1.10 1.08
0.02 0.04 0.03 0.02 0.03 0.05 0.09 0.12 0.20 0.22 0.14 0.16 0.33 0.59 0.77 0.83 0.79 0.84 0.81 0.86 0.91 1.27 1.67 2.03 2.50 2.73 2.65 2.97 3.46 3.42 2.92 2.35 1.90 1.64 1.49 1.36 1.29 1.16 1.06 0.96 0.91 0.86 0.86 0.89
0.04 0.05 0.03 0.03 0.05 0.10 0.12 0.14 0.18 0.16 0.14 0.21 0.39 0.73 0.99 0.91 0.66 0.59 0.61 0.65 0.80 1.11 1.53 1.90 2.31 2.57 2.45 2.64 2.64 2.20 1.81 1.49 1.25 1.10 1.01 1.00 0.94 0.82 0.67 0.58 0.55 0.58 0.62 0.62
0.03 0.03 0.03 0.04 0.06 0.07 0.08 0.08 0.07 0.07 0.12 0.28 0.42 0.91 1.24 1.04 0.74 0.59 0.57 0.65 0.72 0.79 0.98 1.25 1.46 1.78 1.95 1.89 1.71 1.49 1.28 1.06 0.95 0.92 0.84 0.84 0.71 0.61 0.52 0.43 0.43 0.44 0.45 0.44
0.03 0.03 0.03 0.04 0.05 0.05 0.05 0.04 0.05 0.08 0.12 0.26 0.47 0.77 1.11 1.08 0.94 0.76 0.64 0.64 0.58 0.52 0.59 0.74 0.83 0.98 1.17 1.24 1.17 1.02 1.06 1.04 0.93 0.85 0.77 0.73 0.59 0.48 0.41 0.42 0.45 0.46 0.45 0.43
0.05 0.05 0.04 0.03 0.04 0.04 0.04 0.05 0.12 0.25 0.37 0.65 0.64 0.66 0.95 0.90 0.83 0.78 0.63 0.49 0.39 0.35 0.42 0.51 0.52 0.56 0.64 0.71 0.75 0.75 0.79 0.86 0.77 0.73 0.70 0.65 0.57 0.50 0.43 0.40 0.39 0.38 0.39 0.39
0.14 0.12 0.09 0.05 0.05 0.05 0.05 0.09 0.31 0.67 0.96 1.05 0.62 0.61 0.80 0.70 0.71 0.74 0.52 0.31 0.25 0.27 0.29 0.35 0.36 0.37 0.41 0.42 0.45 0.47 0.51 0.56 0.55 0.58 0.61 0.58 0.54 0.48 0.41 0.34 0.31 0.30 0.29 0.32
0.15 0.18 0.10 0.05 0.05 0.06 0.06 0.07 0.19 0.32 0.44 0.58 0.62 0.98 0.92 0.54 0.53 0.43 0.24 0.14 0.14 0.22 0.21 0.21 0.22 0.23 0.24 0.21 0.25 0.28 0.28 0.30 0.32 0.42 0.48 0.42 0.39 0.34 0.31 0.38 0.35 0.29 0.26 0.29
0.07 0.06 0.05 0.05 0.05 0.07 0.05 0.05 0.06 0.09 0.14 0.37 0.70 0.99 0.73 0.38 0.36 0.23 0.13 0.07 0.07 0.09 0.12 0.12 0.12 0.13 0.15 0.15 0.15 0.17 0.21 0.25 0.25 0.24 0.28 0.30 0.28 0.27 0.30 0.35 0.32 0.27 0.26 0.24
0.04 0.02 0.04 0.05 0.05 0.07 0.06 0.06 0.06 0.07 0.13 0.28 0.56 0.85 0.79 0.53 0.41 0.23 0.12 0.07 0.06 0.05 0.06 0.07 0.07 0.09 0.12 0.13 0.14 0.17 0.20 0.20 0.19 0.17 0.15 0.14 0.20 0.26 0.33 0.35 0.28 0.25 0.23 0.21
0.04 0.02 0.03 0.04 0.06 0.08 0.08 0.08 0.09 0.10 0.12 0.19 0.41 0.58 0.46 0.42 0.30 0.19 0.14 0.13 0.07 0.04 0.03 0.04 0.04 0.06 0.10 0.13 0.14 0.15 0.17 0.18 0.16 0.15 0.14 0.16 0.23 0.26 0.33 0.46 0.43 0.27 0.21 0.20
0.04 0.03 0.04 0.08 0.11 0.10 0.09 0.10 0.11 0.14 0.15 0.15 0.22 0.35 0.28 0.26 0.19 0.17 0.13 0.12 0.07 0.04 0.04 0.04 0.04 0.06 0.09 0.13 0.14 0.13 0.16 0.17 0.17 0.18 0.15 0.16 0.23 0.26 0.28 0.34 0.37 0.29 0.24 0.22
0.06 0.05 0.07 0.20 0.30 0.21 0.13 0.10 0.11 0.12 0.12 0.14 0.26 0.37 0.29 0.26 0.21 0.15 0.09 0.09 0.07 0.05 0.05 0.05 0.07 0.11 0.09 0.12 0.14 0.14 0.16 0.17 0.18 0.23 0.26 0.21 0.17 0.15 0.15 0.18 0.22 0.25 0.28 0.29
0.07 0.06 0.07 0.19 0.28 0.30 0.21 0.15 0.15 0.12 0.13 0.15 0.22 0.34 0.27 0.28 0.26 0.15 0.12 0.13 0.11 0.06 0.05 0.06 0.07 0.09 0.15 0.14 0.15 0.16 0.18 0.20 0.27 0.27 0.25 0.22 0.20 0.19 0.20 0.21 0.22 0.26 0.28 0.29
0.08 0.06 0.05 0.08 0.14 0.17 0.17 0.17 0.16 0.12 0.11 0.15 0.17 0.23 0.23 0.21 0.30 0.22 0.20 0.20 0.17 0.10 0.07 0.06 0.06 0.09 0.18 0.22 0.20 0.18 0.19 0.23 0.30 0.36 0.34 0.27 0.22 0.22 0.24 0.24 0.24 0.26 0.27 0.27
0.14 0.11 0.10 0.09 0.12 0.12 0.14 0.16 0.14 0.09 0.07 0.07 0.10 0.17 0.18 0.23 0.28 0.24 0.22 0.20 0.26 0.20 0.13 0.11 0.09 0.11 0.14 0.18 0.21 0.19 0.19 0.21 0.27 0.34 0.40 0.43 0.38 0.32 0.31 0.33 0.30 0.32 0.31 0.33
0.25 0.19 0.18 0.19 0.15 0.15 0.21 0.18 0.14 0.11 0.09 0.10 0.16 0.20 0.25 0.29 0.28 0.27 0.29 0.24 0.20 0.16 0.12 0.12 0.12 0.12 0.13 0.15 0.16 0.17 0.16 0.21 0.35 0.42 0.42 0.52 0.57 0.50 0.51 0.53 0.46 0.44 0.43 0.44
0.33 0.32 0.25 0.24 0.27 0.33 0.23 0.17 0.15 0.18 0.19 0.18 0.19 0.24 0.35 0.39 0.31 0.29 0.33 0.31 0.23 0.13 0.13 0.13 0.11 0.10 0.11 0.12 0.12 0.14 0.18 0.23 0.35 0.41 0.41 0.51 0.62 0.57 0.57 0.58 0.56 0.60 0.65 0.67
0.34 0.39 0.38 0.35 0.36 0.38 0.28 0.25 0.26 0.30 0.33 0.28 0.32 0.39 0.40 0.33 0.29 0.31 0.29 0.22 0.16 0.12 0.11 0.11 0.12 0.12 0.12 0.14 0.15 0.17 0.26 0.34 0.43 0.50 0.55 0.62 0.73 0.76 0.78 0.75 0.76 0.82 0.90 0.93
0.29 0.37 0.43 0.45 0.49 0.55 0.44 0.36 0.34 0.41 0.61 0.48 0.42 0.41 0.33 0.31 0.37 0.37 0.26 0.21 0.16 0.12 0.13 0.15 0.17 0.17 0.18 0.20 0.24 0.29 0.38 0.50 0.60 0.62 0.65 0.73 0.89 0.97 0.96 0.94 0.96 1.01 1.10 1.12
0.37 0.38 0.42 0.49 0.55 0.51 0.46 0.42 0.40 0.68 0.86 0.60 0.53 0.55 0.55 0.49 0.43 0.34 0.25 0.22 0.20 0.14 0.13 0.17 0.21 0.25 0.29 0.32 0.38 0.46 0.54 0.61 0.61 0.64 0.72 0.78 0.96 1.16 1.15 1.18 1.18 1.18 1.21 1.26
0.53 0.53 0.50 0.56 0.74 0.76 0.53 0.49 0.68 0.86 0.74 0.71 0.62 0.59 0.62 0.52 0.40 0.33 0.25 0.21 0.18 0.15 0.14 0.18 0.21 0.24 0.32 0.40 0.51 0.60 0.62 0.63 0.67 0.72 0.78 0.88 1.08 1.17 1.20 1.30 1.32 1.35 1.35 1.32
0.56 0.64 0.63 0.70 0.85 0.78 0.68 0.70 0.70 0.72 0.70 0.64 0.53 0.49 0.50 0.48 0.41 0.35 0.28 0.23 0.18 0.15 0.15 0.17 0.20 0.24 0.31 0.42 0.56 0.70 0.73 0.74 0.73 0.73 0.78 0.88 0.98 1.06 1.17 1.23 1.21 1.26 1.34 1.35
0.59 0.57 0.70 0.93 0.92 0.82 0.73 0.66 0.60 0.47 0.41 0.38 0.36 0.30 0.28 0.29 0.28 0.25 0.22 0.20 0.19 0.17 0.15 0.17 0.19 0.26 0.32 0.39 0.52 0.64 0.70 0.73 0.72 0.68 0.69 0.78 0.94 0.99 1.07 1.19 1.20 1.26 1.32 1.36
0.60 0.59 0.74 0.99 0.98 0.87 0.81 0.72 0.66 0.45 0.34 0.27 0.28 0.26 0.23 0.22 0.20 0.19 0.18 0.16 0.14 0.12 0.13 0.15 0.21 0.28 0.33 0.42 0.56 0.66 0.72 0.76 0.79 0.76 0.72 0.74 0.83 0.93 0.99 1.11 1.21 1.22 1.22 1.18
0.40 0.57 0.76 0.84 0.80 0.77 0.76 0.61 0.55 0.48 0.37 0.30 0.27 0.24 0.19 0.15 0.13 0.11 0.11 0.11 0.09 0.10 0.13 0.18 0.24 0.31 0.35 0.41 0.52 0.61 0.75 0.90 0.94 0.88 0.80 0.76 0.77 0.85 0.91 1.00 1.02 0.92 0.90 0.86

GEFSCGP_prec_meanprecacc_120.txt.gz
Total_Precipitation_Accumulation
0.00 0.01 0.01 0.02 0.02 0.03 0.06 0.09 0.18 0.23 0.16 0.17 0.32 0.50 0.63 0.72 0.93 1.04 1.02 0.99 1.02 1.30 1.64 1.82 2.07 2.34 2.94 3.46 3.98 4.08 3.99 3.26 2.60 2.28 2.03 1.90 1.71 1.52 1.51 1.45 1.32 1.26 1.15 1.12
0.02 0.04 0.03 0.02 0.03 0.05 0.09 0.12 0.20 0.22 0.14 0.16 0.33 0.59 0.77 0.83 0.79 0.84 0.82 0.87 0.92 1.28 1.68 2.05 2.53 2.76 2.69 3.04 3.56 3.53 3.05 2.48 2.04 1.74 1.59 1.47 1.39 1.25 1.14 1.02 0.96 0.92 0.92 0.95
0.04 0.05 0.03 0.03 0.05 0.10 0.12 0.14 0.18 0.16 0.14 0.21 0.39 0.73 0.99 0.91 0.66 0.59 0.61 0.65 0.80 1.12 1.53 1.92 2.33 2.60 2.49 2.70 2.73 2.30 1.93 1.63 1.38 1.21 1.13 1.12 1.05 0.93 0.75 0.63 0.59 0.63 0.67 0.68
0.03 0.03 0.03 0.04 0.06 0.07 0.08 0.08 0.07 0.07 0.12 0.28 0.42 0.91 1.24 1.04 0.74 0.59 0.57 0.65 0.73 0.80 0.98 1.26 1.48 1.81 1.99 1.95 1.81 1.63 1.42 1.21 1.08 1.04 0.96 0.96 0.82 0.70 0.59 0.49 0.49 0.50 0.51 0.49
0.03 0.03 0.03 0.04 0.05 0.05 0.05 0.04 0.05 0.08 0.12 0.26 0.47 0.77 1.11 1.08 0.94 0.76 0.64 0.64 0.58 0.53 0.60 0.75 0.83 1.00 1.20 1.29 1.26 1.15 1.23 1.21 1.07 0.98 0.90 0.86 0.73 0.60 0.50 0.49 0.53 0.52 0.50 0.47
0.05 0.05 0.04 0.03 0.04 0.04 0.04 0.05 0.12 0.25 0.37 0.65 0.64 0.66 0.96 0.90 0.83 0.78 0.63 0.49 0.39 0.35 0.42 0.51 0.53 0.57 0.66 0.75 0.82 0.86 0.94 1.01 0.92 0.84 0.80 0.78 0.70 0.61 0.51 0.47 0.47 0.44 0.44 0.44
0.14 0.12 0.09 0.05 0.05 0.05 0.05 0.09 0.31 0.67 0.96 1.05 0.62 0.61 0.81 0.70 0.71 0.74 0.52 0.31 0.25 0.27 0.29 0.36 0.37 0.39 0.45 0.48 0.55 0.59 0.64 0.70 0.69 0.69 0.70 0.69 0.65 0.58 0.50 0.42 0.38 0.36 0.33 0.35
0.15 0.18 0.10 0.05 0.05 0.06 0.06 0.07 0.19 0.32 0.44 0.58 0.62 0.98 0.92 0.54 0.53 0.43 0.24 0.14 0.14 0.22 0.21 0.21 0.23 0.27 0.31 0.29 0.34 0.38 0.38 0.41 0.43 0.53 0.58 0.52 0.49 0.42 0.39 0.44 0.41 0.35 0.30 0.32
0.07 0.06 0.05 0.05 0.05 0.07 0.05 0.05 0.06 0.09 0.14 0.37 0.70 0.99 0.73 0.38 0.36 0.23 0.13 0.07 0.07 0.09 0.12 0.12 0.12 0.13 0.18 0.19 0.20 0.22 0.27 0.33 0.33 0.35 0.41 0.40 0.38 0.35 0.37 0.42 0.39 0.32 0.30 0.27
0.04 0.02 0.04 0.05 0.05 0.07 0.06 0.06 0.06 0.07 0.13 0.28 0.56 0.85 0.79 0.53 0.41 0.23 0.12 0.07 0.06 0.05 0.06 0.07 0.07 0.09 0.13 0.15 0.17 0.20 0.26 0.27 0.27 0.27 0.25 0.23 0.29 0.34 0.40 0.41 0.34 0.29 0.27 0.24
0.04 0.02 0.03 0.04 0.06 0.08 0.08 0.08 0.09 0.10 0.12 0.19 0.41 0.59 0.46 0.42 0.30 0.19 0.14 0.13 0.07 0.04 0.04 0.04 0.04 0.07 0.11 0.13 0.16 0.19 0.23 0.25 0.24 0.23 0.23 0.26 0.32 0.33 0.38 0.51 0.48 0.33 0.27 0.24
0.04 0.03 0.04 0.08 0.11 0.10 0.09 0.10 0.11 0.14 0.15 0.15 0.23 0.36 0.28 0.26 0.19 0.17 0.13 0.13 0.07 0.04 0.04 0.04 0.05 0.06 0.09 0.14 0.15 0.16 0.21 0.25 0.27 0.27 0.23 0.25 0.31 0.32 0.32 0.37 0.41 0.35 0.29 0.25
0.06 0.05 0.07 0.20 0.30 0.21 0.13 0.10 0.11 0.12 0.13 0.14 0.26 0.37 0.30 0.26 0.21 0.15 0.09 0.09 0.07 0.05 0.05 0.06 0.07 0.11 0.10 0.13 0.16 0.18 0.21 0.25 0.28 0.35 0.32 0.27 0.24 0.21 0.19 0.23 0.27 0.29 0.32 0.34
0.07 0.06 0.07 0.20 0.28 0.30 0.21 0.15 0.15 0.12 0.13 0.16 0.22 0.35 0.27 0.28 0.26 0.16 0.13 0.13 0.11 0.06 0.05 0.06 0.07 0.10 0.16 0.16 0.18 0.20 0.22 0.25 0.32 0.32 0.30 0.27 0.25 0.25 0.26 0.26 0.27 0.30 0.32 0.34
0.08 0.06 0.05 0.08 0.14 0.17 0.17 0.17 0.16 0.12 0.11 0.16 0.17 0.24 0.23 0.21 0.30 0.22 0.21 0.20 0.17 0.11 0.07 0.06 0.07 0.10 0.19 0.24 0.23 0.23 0.23 0.26 0.33 0.39 0.38 0.32 0.27 0.27 0.29 0.29 0.28 0.29 0.30 0.30
0.14 0.11 0.10 0.09 0.12 0.12 0.14 0.16 0.14 0.09 0.08 0.07 0.11 0.17 0.18 0.23 0.28 0.25 0.22 0.20 0.27 0.21 0.13 0.11 0.10 0.12 0.16 0.20 0.23 0.21 0.22 0.24 0.30 0.37 0.44 0.47 0.42 0.37 0.36 0.37 0.35 0.36 0.35 0.36
0.26 0.20 0.19 0.19 0.15 0.15 0.21 0.18 0.14 0.11 0.09 0.10 0.16 0.20 0.25 0.29 0.28 0.27 0.30 0.24 0.22 0.17 0.13 0.13 0.13 0.14 0.15 0.17 0.18 0.19 0.18 0.23 0.37 0.44 0.45 0.54 0.60 0.53 0.55 0.57 0.51 0.49 0.47 0.48
0.33 0.33 0.26 0.25 0.28 0.34 0.23 0.17 0.16 0.18 0.19 0.18 0.19 0.25 0.36 0.40 0.33 0.31 0.34 0.32 0.25 0.15 0.14 0.15 0.12 0.11 0.12 0.13 0.14 0.15 0.19 0.24 0.37 0.44 0.43 0.54 0.66 0.61 0.63 0.64 0.61 0.64 0.70 0.71
0.35 0.41 0.40 0.37 0.38 0.39 0.29 0.26 0.27 0.32 0.35 0.30 0.33 0.40 0.41 0.35 0.31 0.34 0.31 0.23 0.17 0.13 0.13 0.13 0.14 0.13 0.13 0.15 0.16 0.19 0.27 0.36 0.46 0.53 0.58 0.66 0.78 0.81 0.84 0.84 0.85 0.90 0.96 1.00
0.30 0.39 0.46 0.48 0.52 0.57 0.46 0.38 0.37 0.45 0.65 0.51 0.43 0.42 0.34 0.33 0.40 0.42 0.29 0.22 0.18 0.14 0.14 0.16 0.19 0.19 0.19 0.22 0.26 0.32 0.42 0.55 0.65 0.67 0.69 0.77 0.92 1.00 1.00 1.00 1.03 1.07 1.15 1.18
0.40 0.41 0.45 0.52 0.58 0.53 0.47 0.44 0.45 0.76 0.95 0.65 0.56 0.58 0.57 0.52 0.47 0.39 0.30 0.26 0.22 0.16 0.15 0.18 0.22 0.27 0.31 0.34 0.40 0.48 0.57 0.66 0.67 0.69 0.76 0.82 1.01 1.20 1.20 1.22 1.21 1.22 1.27 1.32
0.57 0.57 0.55 0.60 0.78 0.80 0.56 0.53 0.75 0.96 0.86 0.80 0.69 0.64 0.66 0.57 0.44 0.37 0.29 0.25 0.20 0.17 0.16 0.19 0.23 0.26 0.34 0.43 0.53 0.63 0.65 0.66 0.71 0.75 0.80 0.90 1.10 1.19 1.24 1.34 1.36 1.40 1.39 1.36
0.60 0.70 0.70 0.77 0.92 0.83 0.71 0.76 0.78 0.82 0.81 0.74 0.63 0.59 0.58 0.55 0.47 0.41 0.33 0.26 0.21 0.16 0.16 0.18 0.21 0.26 0.33 0.43 0.59 0.73 0.76 0.77 0.76 0.77 0.81 0.90 1.00 1.08 1.19 1.25 1.23 1.28 1.35 1.37
0.63 0.61 0.77 1.02 1.01 0.91 0.80 0.75 0.71 0.60 0.54 0.52 0.48 0.40 0.36 0.36 0.34 0.31 0.26 0.23 0.22 0.19 0.17 0.18 0.21 0.28 0.33 0.40 0.54 0.66 0.72 0.75 0.74 0.71 0.71 0.80 0.95 1.01 1.08 1.21 1.22 1.28 1.34 1.39
0.65 0.66 0.84 1.12 1.13 1.00 0.94 0.86 0.82 0.62 0.51 0.43 0.40 0.34 0.30 0.28 0.26 0.23 0.22 0.19 0.16 0.14 0.15 0.17 0.22 0.29 0.33 0.43 0.57 0.68 0.73 0.78 0.80 0.77 0.73 0.75 0.84 0.93 1.00 1.13 1.22 1.24 1.25 1.20
0.47 0.67 0.91 1.05 1.00 0.95 0.96 0.78 0.74 0.70 0.55 0.42 0.38 0.34 0.27 0.22 0.20 0.18 0.17 0.15 0.12 0.12 0.14 0.19 0.25 0.32 0.35 0.42 0.52 0.62 0.76 0.90 0.95 0.89 0.81 0.77 0.77 0.86 0.92 1.01 1.03 0.94 0.91 0.88